Date StartTime U_cm/s V_cm/s W_cm/s Ustd_cm/s Vstd_cm/s Wstd_cm/s Uvar_(cm/s)^2 Vvar_(cm/s)^2 Wvar_(cm/s)^2 KE_(m/s)^2 TurbulentKE_(m/s)^2 HorizWindSpeed_cm/s FrictionSpeec_cm/s DragCoef SpeedOfSound_m/s SonicTemperature_C Pressure_mb 
08/12/2013  00:00:00       43.533      -19.745       12.921       32.006       26.134       27.223     1024.409      682.989      741.087        0.245        0.122       47.802       19.354        0.164      343.126       19.016      862.151
08/12/2013  00:01:00       58.506      -22.848       11.294       25.617       25.314       24.109      656.251      640.802      581.222        0.298        0.094       62.809       17.880        0.081      343.005       18.813      862.153
08/12/2013  00:02:00       11.387        1.573       16.905       27.697       18.409       16.393      767.111      338.884      268.743        0.090        0.069       11.495       10.828        0.887      342.992       18.790      862.174
08/12/2013  00:03:00       42.353       -4.307       13.262       27.934       17.180       21.898      780.301      295.161      479.507        0.177        0.078       42.571       14.635        0.118      343.187       19.121      862.191
08/12/2013  00:04:00       30.274      -19.476       -3.094       27.129       22.217       18.516      735.983      493.602      342.854        0.144        0.079       35.998       12.701        0.124      343.325       19.358      862.199
08/12/2013  00:05:00       42.216      -21.152       13.030       25.327       16.880       16.359      641.440      284.948      267.601        0.180        0.060       47.219       11.836        0.063      343.199       19.143      862.204
08/12/2013  00:06:00       27.548      -12.227       -1.410       20.938       10.376       13.223      438.404      107.667      174.860        0.082        0.036       30.139       11.949        0.157      343.175       19.103      862.209
08/12/2013  00:07:00       59.366      -12.635       23.658       29.618       20.961       22.488      877.205      439.355      505.718        0.303        0.091       60.696       13.296        0.048      342.944       18.707      862.214
08/12/2013  00:08:00       30.757        0.912       28.665       27.668       20.393       17.586      765.541      415.883      309.256        0.163        0.075       30.770       13.164        0.183      343.012       18.823      862.214
08/12/2013  00:09:00       48.929      -10.573        1.796       28.030       19.092       26.407      785.701      364.523      697.337        0.218        0.092       50.058       20.812        0.173      343.163       19.081      862.204
08/12/2013  00:10:00       42.260       -8.458       14.707       31.268       27.928       24.196      977.710      779.952      585.467        0.221        0.117       43.098       22.994        0.285      343.157       19.071      862.202
08/12/2013  00:11:00        9.992        1.908       18.197       16.547       15.042       11.520      273.801      226.248      132.701        0.053        0.032       10.173        9.963        0.959      343.177       19.105      862.202
08/12/2013  00:12:00       23.365      -25.540        4.151       14.937       10.523       10.114      223.122      110.733      102.300        0.083        0.022       34.615        6.543        0.036      343.373       19.439      862.192
08/12/2013  00:13:00       33.831        4.780       12.874       17.974       18.666       22.692      323.058      348.438      514.922        0.126        0.059       34.167       11.695        0.117      343.195       19.135      862.187
08/12/2013  00:14:00       48.995        5.463        8.233       16.061       24.145       20.773      257.968      582.997      431.512        0.189        0.064       49.298        3.938        0.006      342.945       18.711      862.185
08/12/2013  00:15:00       44.261      -17.297       -5.433       19.851       20.433       14.176      394.073      417.525      200.960        0.165        0.051       47.521        9.799        0.043      342.894       18.624      862.177
08/12/2013  00:16:00       17.255       -1.365       17.724       21.293       16.131       15.568      453.390      260.214      242.376        0.078        0.048       17.308        8.172        0.223      342.780       18.428      862.179
08/12/2013  00:17:00      -11.560       -1.827       -1.580       11.386        6.949        6.462      129.649       48.290       41.757        0.018        0.011       11.704        3.675        0.099      343.062       18.909      862.192
08/12/2013  00:18:00      -33.146        2.757       -5.298        9.772        7.048        4.965       95.492       49.677       24.648        0.065        0.008       33.260        3.627        0.012      343.341       19.384      862.184
08/12/2013  00:19:00      -20.944       -6.536       -0.107        7.989        5.763        6.524       63.828       33.217       42.557        0.031        0.007       21.940        4.896        0.050      343.388       19.464      862.173
08/12/2013  00:20:00       29.273      -16.309       16.236       30.892       19.401       16.281      954.345      376.399      265.056        0.149        0.080       33.510       10.408        0.096      342.952       18.723      862.175
08/12/2013  00:21:00       -1.127       -2.410        8.062       18.843       17.851       14.011      355.053      318.658      196.311        0.047        0.044        2.661       12.133       20.792      342.977       18.765      862.164
08/12/2013  00:22:00       24.588      -24.825        9.489       41.144       15.342       13.360     1692.854      235.384      178.497        0.171        0.105       34.941       16.130        0.213      343.090       18.957      862.161
08/12/2013  00:23:00       19.374      -15.811       10.022       14.792       14.744       12.961      218.817      217.381      167.984        0.066        0.030       25.007        9.211        0.136      343.045       18.881      862.171
08/12/2013  00:24:00      -23.262       -9.722       -4.919       18.163        8.377        5.492      329.906       70.172       30.160        0.054        0.022       25.212        6.371        0.064      343.194       19.135      862.180
08/12/2013  00:25:00      -22.220       -7.561       -5.156       18.060        5.209        5.314      326.178       27.139       28.236        0.048        0.019       23.471        3.900        0.028      343.301       19.316      862.174
08/12/2013  00:26:00        0.066       -4.878        2.314        9.920        6.758       10.557       98.411       45.666      111.454        0.014        0.013        4.879        8.040        2.716      343.458       19.585      862.169
08/12/2013  00:27:00      -48.683       -7.834       -5.910       26.341        9.455       11.866      693.842       89.404      140.806        0.170        0.046       49.310       14.548        0.087      343.090       18.954      862.183
08/12/2013  00:28:00      -56.761      -13.699       -6.814       15.671       10.071        8.076      245.575      101.419       65.225        0.193        0.021       58.391        7.286        0.016      343.159       19.074      862.180
08/12/2013  00:29:00      -37.126       -4.875       -4.118       16.053        9.016        9.712      257.687       81.291       94.322        0.093        0.022       37.445        7.819        0.044      343.242       19.217      862.163
08/12/2013  00:30:00      -15.451        4.198       -2.321        8.460        6.656        6.717       71.566       44.307       45.117        0.021        0.008       16.012        2.606        0.026      343.240       19.212      862.162
08/12/2013  00:31:00        0.249        6.917       11.649       11.287       14.449       16.362      127.392      208.764      267.729        0.039        0.030        6.921       12.942        3.496      343.003       18.808      862.164
08/12/2013  00:32:00       37.944       -5.443        3.798       21.174       22.088       22.032      448.320      487.874      485.412        0.145        0.071       38.332       20.668        0.291      342.835       18.522      862.156
08/12/2013  00:33:00        3.019       -2.917        8.597        6.941        9.689        7.571       48.178       93.868       57.319        0.015        0.010        4.198        5.234        1.554      342.735       18.353      862.153
08/12/2013  00:34:00      -24.120        9.991        0.753       11.047        8.328        8.249      122.026       69.354       68.046        0.047        0.013       26.108        5.492        0.044      342.900       18.634      862.162
08/12/2013  00:35:00      -33.482       23.814       -3.233       11.661       17.673        6.492      135.972      312.348       42.152        0.109        0.025       41.087        5.894        0.021      343.139       19.041      862.175
08/12/2013  00:36:00      -45.356       42.364       -9.384       11.166       12.554        8.711      124.683      157.604       75.877        0.215        0.018       62.064        5.751        0.009      343.082       18.943      862.177
08/12/2013  00:37:00       -6.412        9.194       -0.940       15.999       11.195        7.003      255.957      125.337       49.038        0.028        0.022       11.209        9.360        0.697      342.970       18.754      862.195
08/12/2013  00:38:00       31.796      -11.948       13.796       26.788       20.701       21.445      717.608      428.551      459.869        0.147        0.080       33.967       17.134        0.254      342.589       18.103      862.211
08/12/2013  00:39:00       41.807      -37.909        0.114       31.181       23.328       24.769      972.240      544.183      613.505        0.266        0.106       56.435       11.654        0.043      342.496       17.947      862.220
08/12/2013  00:40:00       48.406      -12.689        8.383       21.436       17.149       17.668      459.508      294.075      312.146        0.182        0.053       50.041       12.609        0.063      342.402       17.785      862.228
08/12/2013  00:41:00        7.449        5.417       -1.114       12.870       10.168       12.597      165.634      103.380      158.692        0.026        0.021        9.210       10.138        1.211      343.168       19.091      862.227
08/12/2013  00:42:00       -7.474        3.442       -2.429        8.713        8.719        9.173       75.908       76.028       84.141        0.015        0.012        8.229        6.752        0.673      343.050       18.888      862.232
08/12/2013  00:43:00      -44.962       -2.575       -7.715       16.612       10.173        6.531      275.950      103.482       42.648        0.125        0.021       45.035        4.313        0.009      342.841       18.533      862.226
08/12/2013  00:44:00      -69.486       -0.697       -6.666       15.470       14.195       10.624      239.312      201.503      112.867        0.271        0.028       69.489        8.133        0.014      342.559       18.054      862.206
08/12/2013  00:45:00      -45.901       -2.737       -5.481        9.311       11.546       12.162       86.694      133.304      147.919        0.126        0.018       45.983        4.716        0.011      342.605       18.132      862.183
08/12/2013  00:46:00      -45.664      -13.724       -5.476       11.097       10.440        9.826      123.154      108.999       96.542        0.132        0.016       47.682        7.477        0.025      342.645       18.200      862.164
08/12/2013  00:47:00      -63.404      -30.345       -6.259       14.260       20.661       14.654      203.333      426.878      214.736        0.291        0.042       70.291        9.530        0.018      342.527       18.000      862.162
08/12/2013  00:48:00      -74.419      -27.488       -5.293       18.068       18.167       11.898      326.454      330.038      141.553        0.356        0.040       79.333        9.175        0.013      342.424       17.823      862.166
08/12/2013  00:49:00      -79.688      -30.530      -10.257       16.109       14.327       10.210      259.501      205.258      104.238        0.398        0.028       85.336        8.184        0.009      342.461       17.886      862.166
08/12/2013  00:50:00      -92.510      -33.117      -11.358       10.452        9.307        8.051      109.245       86.621       64.824        0.502        0.013       98.259        4.848        0.002      342.354       17.706      862.161
08/12/2013  00:51:00      -94.666      -18.091      -16.843       12.228       14.075        9.322      149.524      198.098       86.900        0.500        0.022       96.379        6.431        0.004      342.396       17.777      862.160
08/12/2013  00:52:00      -69.056       -9.888      -11.026       20.303       15.493        8.610      412.215      240.041       74.132        0.286        0.036       69.760        6.796        0.009      342.356       17.709      862.165
08/12/2013  00:53:00      -66.531      -16.821      -10.510       22.075       14.123       10.018      487.307      199.456      100.364        0.280        0.039       68.624        7.145        0.011      342.312       17.633      862.169
08/12/2013  00:54:00      -38.646      -11.822       -6.817       10.266       15.841       10.112      105.386      250.939      102.246        0.107        0.023       40.414        5.668        0.020      342.356       17.707      862.168
08/12/2013  00:55:00      -34.986       -8.260      -10.320       17.295       15.784       12.706      299.110      249.150      161.430        0.105        0.035       35.948       10.641        0.088      342.397       17.779      862.176
08/12/2013  00:56:00      -46.299      -24.294       -2.548       20.166       16.560        9.408      406.681      274.228       88.517        0.175        0.038       52.285        4.393        0.007      342.412       17.802      862.186
08/12/2013  00:57:00      -62.081      -27.763       -4.190       12.625        9.139        6.543      159.385       83.517       42.817        0.246        0.014       68.007        4.684        0.005      342.392       17.768      862.192
08/12/2013  00:58:00      -59.900      -21.471       -9.286       17.422       15.514        8.344      303.537      240.673       69.628        0.237        0.031       63.632        6.896        0.012      342.451       17.869      862.192
08/12/2013  00:59:00      -63.515        1.070      -12.419       15.296       14.937       10.028      233.979      223.117      100.559        0.237        0.028       63.524        6.394        0.010      342.447       17.863      862.202
08/12/2013  01:00:00      -78.905        5.020       -8.043       19.432       17.446        9.128      377.609      304.356       83.317        0.354        0.038       79.064        3.455        0.002      342.372       17.734      862.216
08/12/2013  01:01:00      -39.481        4.964       -6.780       12.715       16.104       11.857      161.675      259.346      140.578        0.110        0.028       39.792       10.778        0.073      342.286       17.589      862.224
08/12/2013  01:02:00      -45.809       -3.620      -11.477       12.815       10.985        9.056      164.216      120.668       82.008        0.131        0.018       45.952        5.901        0.016      342.290       17.597      862.227
08/12/2013  01:03:00      -34.442      -13.566       -7.220       16.883       15.071       10.209      285.029      227.146      104.227        0.102        0.031       37.017        6.160        0.028      342.341       17.684      862.225
08/12/2013  01:04:00      -44.378       -7.859       -7.420       24.098       23.556       16.020      580.694      554.866      256.655        0.174        0.070       45.069       12.029        0.071      342.301       17.615      862.222
08/12/2013  01:05:00      -65.624      -17.163       -6.353       16.124       14.559        8.898      259.979      211.977       79.174        0.260        0.028       67.831        5.191        0.006      342.341       17.682      862.208
08/12/2013  01:06:00      -56.083       -4.759      -11.710       12.263        8.801        6.144      150.371       77.460       37.750        0.179        0.013       56.285        4.246        0.006      342.269       17.560      862.188
08/12/2013  01:07:00      -39.466       -1.696       -5.933       12.912        7.331        8.124      166.731       53.745       65.999        0.094        0.014       39.503        5.422        0.019      342.312       17.631      862.179
08/12/2013  01:08:00      -12.420      -12.118        8.527       10.530       22.995        9.334      110.876      528.779       87.117        0.055        0.036       17.353        6.006        0.120      342.398       17.778      862.179
08/12/2013  01:09:00        9.093      -13.131       16.115       14.002       29.834       16.667      196.051      890.095      277.800        0.094        0.068       15.972       19.618        1.509      342.088       17.253      862.173
08/12/2013  01:10:00       16.733      -16.296        8.242       17.958       12.631       16.703      322.498      159.547      278.999        0.069        0.038       23.357        5.397        0.053      342.025       17.145      862.171
08/12/2013  01:11:00        6.545      -13.042        2.078       27.996       18.047       12.394      783.802      325.712      153.610        0.074        0.063       14.592       12.461        0.729      342.180       17.409      862.183
08/12/2013  01:12:00      -41.645       -4.558       -6.563       16.632       10.019        6.329      276.638      100.374       40.054        0.111        0.021       41.893        4.841        0.013      342.252       17.531      862.184
08/12/2013  01:13:00      -41.579       -6.227       -5.838        7.384        9.184       11.221       54.521       84.347      125.912        0.103        0.013       42.043        8.562        0.041      342.282       17.583      862.186
08/12/2013  01:14:00      -29.931      -31.837       -2.053       11.868       14.401       14.171      140.858      207.397      200.815        0.123        0.027       43.697        8.887        0.041      342.281       17.580      862.194
08/12/2013  01:15:00      -13.407      -44.508       -0.978       15.171       18.522       15.576      230.148      343.060      242.616        0.149        0.041       46.483       10.172        0.048      342.209       17.460      862.204
08/12/2013  01:16:00       -2.464      -14.347       -4.561       10.252       14.024        6.360      105.111      196.660       40.455        0.029        0.017       14.557        6.863        0.222      342.033       17.159      862.204
08/12/2013  01:17:00        0.516       11.427       -4.637       15.536       11.179       11.776      241.371      124.972      138.674        0.033        0.025       11.438       10.010        0.766      342.149       17.356      862.192
08/12/2013  01:18:00       40.241       28.723       18.898       18.012       17.304       22.665      324.429      299.418      513.696        0.197        0.057       49.441        9.079        0.034      342.400       17.784      862.212
08/12/2013  01:19:00       60.457       27.383       17.224       23.971       22.814       20.673      574.628      520.491      427.369        0.311        0.076       66.370       12.107        0.033      342.519       17.986      862.211
08/12/2013  01:20:00       38.435       27.514       22.321       27.299       20.002       19.607      745.226      400.091      384.439        0.213        0.076       47.268        5.114        0.012      342.496       17.946      862.215
08/12/2013  01:21:00       44.301        5.743       12.627       29.438       26.938       21.875      866.590      725.680      478.536        0.211        0.104       44.672       12.992        0.085      342.236       17.503      862.221
08/12/2013  01:22:00       32.556        7.186       18.764       27.401       20.566       18.817      750.841      422.946      354.088        0.150        0.076       33.340        7.721        0.054      342.402       17.786      862.226
08/12/2013  01:23:00       45.554       22.184       34.986       22.607       22.501       23.653      511.086      506.291      559.486        0.268        0.079       50.668       15.200        0.090      342.369       17.730      862.225
08/12/2013  01:24:00       43.819       36.072       21.298       29.708       22.199       22.308      882.545      492.793      497.639        0.277        0.094       56.756       18.915        0.111      342.288       17.592      862.227
08/12/2013  01:25:00       15.755       13.071       13.194       21.802       11.861       14.671      475.318      140.678      215.233        0.071        0.042       20.471        9.430        0.212      342.256       17.538      862.218
08/12/2013  01:26:00       -9.245      -11.457       -2.485       11.108       12.854        9.146      123.395      165.225       83.658        0.030        0.019       14.722        4.739        0.104      342.330       17.664      862.200
08/12/2013  01:27:00        1.437       23.700       -2.014       22.762       32.548       12.833      518.126     1059.345      164.695        0.115        0.087       23.744       16.764        0.498      342.286       17.589      862.183
08/12/2013  01:28:00       44.156       64.366        6.051       32.413       29.515       24.816     1050.591      871.137      615.816        0.433        0.127       78.056       16.834        0.047      342.557       18.049      862.180
08/12/2013  01:29:00        6.739       43.506       -4.835       32.890       39.401       17.358     1081.757     1552.461      301.297        0.245        0.147       44.025       15.608        0.126      342.515       17.979      862.164
08/12/2013  01:30:00      -49.469        9.824       -7.026       15.572        9.591        8.754      242.478       91.991       76.626        0.150        0.021       50.435        4.012        0.006      342.225       17.486      862.150
08/12/2013  01:31:00      -12.993        1.868        1.819       14.323       15.127       10.765      205.154      228.815      115.887        0.036        0.027       13.127       10.279        0.613      342.220       17.476      862.137
08/12/2013  01:32:00      -24.436       51.386      -11.291       19.095       30.251       11.885      364.619      915.093      141.252        0.239        0.071       56.900        9.099        0.026      342.573       18.077      862.133
08/12/2013  01:33:00        9.891       95.159        4.188       31.446       33.947       24.964      988.839     1152.429      623.224        0.597        0.138       95.672       22.087        0.053      342.598       18.120      862.126
08/12/2013  01:34:00       17.416       77.162       -4.085       32.805       46.447       24.779     1076.160     2157.343      613.974        0.506        0.192       79.103       23.818        0.091      343.133       19.030      862.113
08/12/2013  01:35:00      -31.032        3.959        1.091       22.974       11.709       16.946      527.808      137.099      287.158        0.097        0.048       31.284       12.098        0.150      342.890       18.617      862.127
08/12/2013  01:36:00       11.518        1.665       13.231       18.007        7.252       14.586      324.240       52.590      212.753        0.045        0.029       11.638       13.524        1.350      342.665       18.234      862.126
08/12/2013  01:37:00       64.158       73.540        2.366       37.844       61.664       36.950     1432.178     3802.407     1365.275        0.806        0.330       97.593       34.759        0.127      342.902       18.637      862.125
08/12/2013  01:38:00      130.487       76.754        2.139       57.313       46.843       40.086     3284.817     2194.286     1606.888        1.500        0.354      151.387       27.603        0.033      343.268       19.260      862.131
08/12/2013  01:39:00       -4.921       61.606       -0.980       41.918       39.451       19.506     1757.090     1556.347      380.472        0.376        0.185       61.803       11.974        0.038      343.180       19.112      862.153
08/12/2013  01:40:00      -63.978       24.933      -11.956       29.824       17.675       12.372      889.441      312.417      153.057        0.311        0.068       68.665       12.713        0.034      342.624       18.163      862.173
08/12/2013  01:41:00       14.812      -39.794       13.935       26.908       17.126       14.382      724.034      293.303      206.841        0.161        0.061       42.461        7.751        0.033      342.497       17.948      862.177
08/12/2013  01:42:00       12.867      -32.899       -4.763       18.867       11.767       10.196      355.979      138.454      103.967        0.093        0.030       35.326        7.546        0.046      342.616       18.149      862.188
08/12/2013  01:43:00       25.128      -57.464        3.775       18.348       34.939       24.044      336.665     1220.703      578.111        0.304        0.107       62.718       22.816        0.132      342.447       17.863      862.189
08/12/2013  01:44:00      -10.618       25.563       -0.424       14.955       19.279       15.936      223.656      371.665      253.958        0.081        0.042       27.680       16.016        0.335      342.874       18.588      862.182
08/12/2013  01:45:00       35.650       17.673        0.469       23.519       21.560       15.150      553.136      464.813      229.512        0.142        0.062       39.790        6.238        0.025      342.872       18.586      862.198
08/12/2013  01:46:00      -85.273      -19.020       -3.718       69.623       33.979       19.403     4847.335     1154.575      376.460        0.701        0.319       87.369       33.298        0.145      342.601       18.125      862.206
08/12/2013  01:47:00     -140.560     -104.895      -17.254       53.067       54.490       22.333     2816.107     2969.112      498.750        1.867        0.314      175.386       13.063        0.006      343.092       18.958      862.209
08/12/2013  01:48:00      -71.489      -42.835      -13.919       51.113       67.435       42.367     2612.522     4547.424     1794.922        0.805        0.448       83.340       34.444        0.171      343.175       19.100      862.188
08/12/2013  01:49:00       81.542       50.850       23.734       61.530       49.107       30.844     3785.946     2411.537      951.329        0.847        0.357       96.098       21.682        0.051      342.879       18.599      862.185
08/12/2013  01:50:00       72.800       59.405       24.468       67.485       36.409       32.466     4554.177     1325.640     1054.050        0.818        0.347       93.962       30.603        0.106      342.840       18.532      862.194
08/12/2013  01:51:00       31.483       20.655       20.972       29.635       19.828       12.999      878.221      393.156      168.970        0.165        0.072       37.654        7.743        0.042      342.884       18.606      862.193
08/12/2013  01:52:00       60.355       47.800       16.669       29.588       29.608       22.075      875.462      876.651      487.320        0.422        0.112       76.991       12.039        0.024      342.804       18.469      862.198
08/12/2013  01:53:00       91.953       35.655       16.934       32.572       29.720       18.558     1060.929      883.286      344.412        0.615        0.114       98.623       13.669        0.019      342.726       18.338      862.198
08/12/2013  01:54:00       95.927       42.840       12.517       33.886       32.369       20.707     1148.279     1047.728      428.774        0.691        0.131      105.059       14.261        0.018      342.779       18.428      862.181
08/12/2013  01:55:00       57.947       55.537        3.816       31.822       34.200       16.783     1012.636     1169.668      281.683        0.446        0.123       80.263       18.927        0.056      342.697       18.288      862.185
08/12/2013  01:56:00       22.144      117.704      -17.890       36.960       36.198       26.767     1366.009     1310.276      716.471        0.903        0.170      119.769       19.993        0.028      342.742       18.363      862.173
08/12/2013  01:57:00       37.559       90.192        1.280       40.653       34.367       24.588     1652.642     1181.103      604.559        0.649        0.172       97.700       25.673        0.069      342.747       18.373      862.159
08/12/2013  01:58:00       85.346       46.498       11.501       30.957       31.800       23.264      958.305     1011.232      541.201        0.604        0.126       97.190       19.671        0.041      342.545       18.029      862.152
08/12/2013  01:59:00       68.468       45.786       19.099       44.471       30.869       31.089     1977.653      952.925      966.525        0.552        0.195       82.367       25.734        0.098      342.650       18.207      862.151
08/12/2013  02:00:00       56.215       38.091        9.556       28.278       20.138       21.053      799.646      405.529      443.223        0.318        0.082       67.905       15.350        0.051      342.648       18.205      862.148
08/12/2013  02:01:00       57.841       32.318       -3.215       29.126       46.397       27.674      848.300     2152.716      765.852        0.408        0.188       66.258       23.159        0.122      342.354       17.707      862.142
08/12/2013  02:02:00       40.594       32.384        3.368       32.436       28.513       29.869     1052.067      812.963      892.155        0.273        0.138       51.929       14.564        0.079      342.409       17.798      862.143
08/12/2013  02:03:00      -87.814        3.447        3.250       67.249       35.345       19.717     4522.470     1249.280      388.779        0.695        0.308       87.882       17.429        0.039      342.545       18.029      862.155
08/12/2013  02:04:00      -88.334      -23.187       -2.522       69.124       28.798       20.226     4778.080      829.335      409.094        0.718        0.301       91.326       25.431        0.078      342.528       17.999      862.159
08/12/2013  02:05:00      -77.024        3.251       -6.341       42.950       28.108       18.264     1844.696      790.034      333.562        0.448        0.148       77.092       13.216        0.029      342.429       17.833      862.156
08/12/2013  02:06:00     -108.023      -45.110       -8.179       45.969       34.661       20.848     2113.126     1201.373      434.632        0.876        0.187      117.064        9.878        0.007      342.383       17.754      862.159
08/12/2013  02:07:00     -169.412        0.037      -14.833       41.761       32.549       24.438     1743.957     1059.445      597.206        1.616        0.170      169.412       22.372        0.017      342.253       17.534      862.174
08/12/2013  02:08:00     -139.547      -32.543       -6.602       39.770       44.999       27.415     1581.631     2024.950      751.604        1.247        0.218      143.292       22.321        0.024      342.104       17.280      862.183
08/12/2013  02:09:00     -197.187      -29.163       -2.685       41.373       35.417       28.522     1711.694     1254.388      813.499        2.176        0.189      199.332       26.639        0.018      342.036       17.161      862.176
08/12/2013  02:10:00     -164.131      -10.132      -15.104       53.896       35.513       26.550     2904.777     1261.164      704.905        1.607        0.244      164.444       25.462        0.024      342.092       17.259      862.168
08/12/2013  02:11:00      -64.652      -14.552       -1.966       37.085       28.104       16.841     1375.281      789.860      283.604        0.342        0.122       66.269       16.728        0.064      342.086       17.248      862.165
08/12/2013  02:12:00      -94.414      -31.736       -2.332       51.333       29.610       26.949     2635.086      876.735      726.231        0.708        0.212       99.605       17.323        0.030      342.048       17.186      862.165
08/12/2013  02:13:00      -42.914       -7.398       12.262       46.531       33.049       20.108     2165.152     1092.267      404.321        0.285        0.183       43.547       19.153        0.193      341.967       17.046      862.171
08/12/2013  02:14:00      -81.983       23.557       -3.501       34.556       31.542       18.891     1194.092      994.886      356.888        0.492        0.127       85.300       13.688        0.026      341.957       17.032      862.177
08/12/2013  02:15:00      -73.902       26.497       -4.092       41.897       18.493       16.136     1755.395      342.001      260.369        0.427        0.118       78.509       15.635        0.040      341.863       16.870      862.176
08/12/2013  02:16:00      -63.407      -13.085        3.845       50.992       18.860       18.735     2600.229      355.687      351.013        0.376        0.165       64.743       24.285        0.141      341.851       16.851      862.167
08/12/2013  02:17:00      -22.169       -3.497        2.987       23.936       22.972       13.432      572.934      527.695      180.424        0.090        0.064       22.444        9.674        0.186      341.927       16.982      862.149
08/12/2013  02:18:00      -50.218      -20.049       -3.322       22.032       23.997        8.614      485.400      575.877       74.193        0.203        0.057       54.072        4.398        0.007      342.105       17.281      862.167
08/12/2013  02:19:00      -17.515      -23.830        2.294       31.000       26.933       14.082      960.995      725.385      198.304        0.138        0.094       29.574       10.779        0.133      342.099       17.272      862.169
08/12/2013  02:20:00       14.115      -15.237       16.073       24.485       17.714       19.257      599.516      313.786      370.845        0.099        0.064       20.770       15.600        0.564      342.047       17.183      862.172
08/12/2013  02:21:00      -12.344      -32.664       -0.806       16.413       16.491       13.279      269.388      271.957      176.322        0.097        0.036       34.918        8.256        0.056      342.051       17.191      862.173
08/12/2013  02:22:00      -13.925      -14.827        5.041       17.809       22.117       15.665      317.155      489.151      245.390        0.075        0.053       20.341       13.596        0.447      341.983       17.076      862.182
08/12/2013  02:23:00      -13.621        7.055       -3.902       16.736       17.385        8.421      280.089      302.229       70.916        0.045        0.033       15.339        7.493        0.239      341.945       17.011      862.184
08/12/2013  02:24:00       -8.275        4.291       -6.128       17.921       17.186       12.664      321.158      295.353      160.374        0.045        0.039        9.321        6.932        0.553      341.871       16.885      862.178
08/12/2013  02:25:00      -45.999        4.325       -9.126       16.068       21.951        9.966      258.187      481.858       99.312        0.153        0.042       46.202       10.850        0.055      342.072       17.224      862.172
08/12/2013  02:26:00      -37.766      -12.106        3.437       28.697       20.860       11.859      823.528      435.128      140.635        0.149        0.070       39.659       12.183        0.094      342.008       17.117      862.172
08/12/2013  02:27:00      -74.961      -15.074       -2.170       19.783       24.164       17.958      391.385      583.908      322.479        0.357        0.065       76.462       13.531        0.031      341.996       17.097      862.181
08/12/2013  02:28:00      -80.869      -48.623       -0.136       21.538       17.419       15.217      463.896      303.412      231.552        0.495        0.050       94.361       11.683        0.015      341.996       17.097      862.185
08/12/2013  02:29:00      -97.644      -54.990        2.294       33.420       22.672       17.709     1116.923      514.037      313.601        0.725        0.097      112.064       19.523        0.030      341.927       16.980      862.185
08/12/2013  02:30:00      -78.927      -43.961       -0.245       31.154       20.709       20.058      970.582      428.864      402.332        0.498        0.090       90.344       18.167        0.040      341.919       16.966      862.171
08/12/2013  02:31:00      -73.076      -37.837        3.543       34.666       24.644       21.177     1201.712      607.340      448.454        0.452        0.113       82.291       19.141        0.054      341.903       16.940      862.174
08/12/2013  02:32:00      -69.233      -41.706        1.543       47.153       33.304       20.807     2223.426     1109.157      432.924        0.515        0.188       80.824       23.529        0.085      341.875       16.889      862.182
08/12/2013  02:33:00      -35.532      -44.578        1.929       31.159       31.224       19.923      970.892      974.959      396.909        0.280        0.117       57.006       19.599        0.118      341.878       16.897      862.181
08/12/2013  02:34:00      -57.055      -34.096        2.698       32.148       31.702       19.308     1033.486     1005.044      372.791        0.342        0.121       66.467       18.049        0.074      341.851       16.851      862.172
08/12/2013  02:35:00      -71.290      -40.411       -8.436       52.548       24.832       16.455     2761.254      616.604      270.753        0.522        0.182       81.947       18.752        0.052      341.829       16.814      862.168
08/12/2013  02:36:00     -106.695      -21.474       -7.868       17.976       16.473        9.300      323.120      271.344       86.492        0.629        0.034      108.835        4.597        0.002      341.781       16.732      862.182
08/12/2013  02:37:00     -101.489       -8.014       -2.337       22.111       26.155       14.632      488.886      684.071      214.109        0.588        0.069      101.805       12.444        0.015      341.603       16.429      862.188
08/12/2013  02:38:00     -112.505        1.746       -7.730       19.324       17.194       10.558      373.424      295.620      111.475        0.675        0.039      112.519        6.660        0.004      341.619       16.458      862.178
08/12/2013  02:39:00      -47.671      -24.748        2.306       19.724       17.997       12.169      389.053      323.896      148.075        0.188        0.043       53.713        6.913        0.017      341.620       16.460      862.172
08/12/2013  02:40:00      -40.327      -25.010       -7.816       18.867       18.381       13.647      355.958      337.847      186.244        0.160        0.044       47.453        7.813        0.027      341.655       16.519      862.161
08/12/2013  02:41:00      -52.928      -21.514      -11.129       23.073       21.969       13.784      532.355      482.657      190.006        0.230        0.060       57.134       11.049        0.037      341.673       16.550      862.153
08/12/2013  02:42:00      -50.081      -33.780       -3.769       18.858       17.807       16.040      355.612      317.088      257.269        0.230        0.046       60.409       10.230        0.029      341.732       16.648      862.149
08/12/2013  02:43:00      -73.462      -28.575       -7.271       29.498       21.574       14.096      870.142      465.422      198.709        0.390        0.077       78.824       13.189        0.028      341.701       16.596      862.141
08/12/2013  02:44:00      -71.259       -4.840       -5.678       30.735       18.777       19.992      944.619      352.559      399.691        0.341        0.085       71.424       19.054        0.071      341.606       16.436      862.145
08/12/2013  02:45:00      -61.617       25.510       -0.426       30.980       23.848       16.552      959.786      568.736      273.953        0.312        0.090       66.688       13.762        0.043      341.542       16.326      862.134
08/12/2013  02:46:00      -73.280        7.420       -6.649       20.744       23.203       12.788      430.331      538.378      163.526        0.330        0.057       73.654        9.488        0.017      341.653       16.515      862.132
08/12/2013  02:47:00      -85.083       -2.855       -8.055       24.900       20.661       14.488      620.012      426.875      209.888        0.428        0.063       85.131        9.121        0.011      341.654       16.517      862.135
08/12/2013  02:48:00     -102.429       14.309      -14.789       17.611       21.773       10.325      310.156      474.045      106.607        0.590        0.045      103.424        7.238        0.005      341.712       16.614      862.130
08/12/2013  02:49:00      -68.250      -11.724       -4.850       19.815       16.008       15.413      392.636      256.250      237.567        0.285        0.044       69.250       11.704        0.029      341.611       16.442      862.123
08/12/2013  02:50:00      -53.225      -12.516       -7.155       18.538       14.100       11.441      343.650      198.815      130.903        0.186        0.034       54.676       10.128        0.034      341.731       16.648      862.117
08/12/2013  02:51:00      -66.627      -29.437      -11.784       22.474       21.088       14.449      505.070      444.688      208.762        0.330        0.058       72.840       12.327        0.029      341.684       16.567      862.121
08/12/2013  02:52:00     -112.403      -50.415       -6.276       12.545       14.035       10.368      157.383      196.970      107.487        0.784        0.023      123.191        5.889        0.002      341.511       16.273      862.113
08/12/2013  02:53:00     -111.756      -52.201       -9.597       15.197       14.127       12.222      230.938      199.569      149.389        0.794        0.029      123.346        8.495        0.005      341.484       16.227      862.120
08/12/2013  02:54:00     -121.798      -30.593      -12.360       17.572       18.217       10.506      308.776      331.877      110.385        0.834        0.038      125.581        7.096        0.003      341.496       16.250      862.126
08/12/2013  02:55:00     -106.018      -33.987       -9.129       15.718       16.256       11.647      247.055      264.247      135.654        0.656        0.032      111.333       10.176        0.008      341.498       16.252      862.128
08/12/2013  02:56:00     -106.699      -19.334       -8.834       24.056       17.533       15.126      578.697      307.390      228.807        0.648        0.056      108.436       12.245        0.013      341.450       16.171      862.124
08/12/2013  02:57:00      -70.708      -13.978       -9.763       31.189       13.774       12.879      972.783      189.730      165.881        0.331        0.066       72.076       12.680        0.031      341.427       16.132      862.101
08/12/2013  02:58:00      -31.524        8.216       -5.767       28.675       24.069       14.547      822.278      579.308      211.622        0.135        0.081       32.577       14.170        0.189      341.783       16.737      862.088
08/12/2013  02:59:00      -44.235       -3.474       -8.578       24.325       23.384       13.663      591.717      546.827      186.670        0.168        0.066       44.371       12.913        0.085      341.891       16.918      862.087
08/12/2013  03:00:00     -101.673      -28.921      -17.555       17.717       17.449       11.484      313.885      304.485      131.890        0.612        0.038      105.707        3.016        0.001      341.336       15.977      862.080
08/12/2013  03:01:00     -112.783      -40.265      -13.581       21.231       16.922       15.582      450.743      286.345      242.807        0.775        0.049      119.755        6.630        0.003      341.339       15.984      862.067
08/12/2013  03:02:00     -117.213      -27.741      -10.877       23.047       17.748       12.555      531.150      314.976      157.620        0.782        0.050      120.451       11.795        0.010      341.329       15.964      862.067
08/12/2013  03:03:00      -88.273      -18.525       -4.354       15.501       16.887       10.964      240.274      285.183      120.220        0.440        0.032       90.196        8.466        0.009      341.411       16.105      862.051
08/12/2013  03:04:00      -98.877      -27.658       -8.878       29.014       23.295       13.099      841.790      542.656      171.576        0.609        0.078      102.673        8.631        0.007      341.382       16.055      862.036
08/12/2013  03:05:00      -92.823      -17.415       -7.602       53.064       28.493       23.787     2815.755      811.846      565.837        0.658        0.210       94.443       25.282        0.072      341.254       15.839      862.029
08/12/2013  03:06:00     -167.941       -0.240      -22.136       47.366       28.664       23.214     2243.527      821.636      538.913        1.615        0.180      167.941       20.485        0.015      341.315       15.942      862.025
08/12/2013  03:07:00     -120.704       -1.789      -14.800       42.438       33.057       20.890     1800.957     1092.790      436.398        0.906        0.167      120.717       20.214        0.028      341.288       15.896      862.006
08/12/2013  03:08:00     -108.515        5.261      -16.629       36.968       26.029       21.154     1366.641      677.492      447.512        0.729        0.125      108.642       17.639        0.026      341.400       16.086      861.997
08/12/2013  03:09:00     -109.469       26.766      -18.085       36.172       33.797       21.441     1308.398     1142.227      459.708        0.797        0.146      112.694       20.051        0.032      341.457       16.183      861.996
08/12/2013  03:10:00     -116.025       50.786      -17.232       44.491       37.023       30.229     1979.442     1370.716      913.776        1.030        0.213      126.653       20.485        0.026      341.592       16.411      861.992
08/12/2013  03:11:00     -153.248       57.967      -10.884       41.546       26.570       23.703     1726.038      705.963      561.832        1.498        0.150      163.845       11.178        0.005      341.913       16.956      861.982
08/12/2013  03:12:00     -132.543       25.406      -13.156       43.044       41.342       19.734     1852.754     1709.162      389.415        1.117        0.198      134.956       13.440        0.010      341.631       16.477      861.987
08/12/2013  03:13:00     -143.221       31.795      -22.080       47.595       43.110       24.598     2265.305     1858.442      605.046        1.337        0.236      146.708       18.792        0.016      341.772       16.716      861.995
08/12/2013  03:14:00     -145.847       20.946      -11.339       25.231       39.510       17.051      636.605     1561.027      290.746        1.216        0.124      147.343       10.952        0.006      341.823       16.802      861.991
08/12/2013  03:15:00     -118.031      -15.401       -9.698       33.544       19.623       19.942     1125.225      385.082      397.696        0.809        0.095      119.032       15.554        0.017      341.616       16.451      861.993
08/12/2013  03:16:00     -102.075      -41.263        1.795       45.683       36.106       21.194     2086.892     1303.643      449.195        0.798        0.192      110.100       21.844        0.039      341.637       16.487      861.989
08/12/2013  03:17:00     -153.101       -7.321      -17.272       24.760       24.396       15.469      613.052      595.169      239.286        1.262        0.072      153.276       11.410        0.006      341.629       16.475      861.976
08/12/2013  03:18:00     -172.381      -19.387      -17.615       45.072       37.773       22.175     2031.505     1426.832      491.740        1.718        0.198      173.468       19.038        0.012      341.617       16.452      861.973
08/12/2013  03:19:00     -158.022      -15.261      -15.113       50.913       35.070       20.692     2592.084     1229.882      428.155        1.484        0.213      158.757       17.135        0.012      341.664       16.534      861.970
08/12/2013  03:20:00     -186.369       10.002      -23.205       34.445       46.974       28.771     1186.451     2206.512      827.781        1.980        0.211      186.637       22.103        0.014      341.784       16.736      861.960
08/12/2013  03:21:00     -198.597      -11.144      -24.876       27.972       31.203       18.601      782.427      973.615      345.985        2.114        0.105      198.909        9.392        0.002      341.759       16.695      861.950
08/12/2013  03:22:00     -163.228      -42.137      -11.542       46.124       33.323       31.163     2127.469     1110.416      971.139        1.638        0.210      168.580       28.749        0.029      341.735       16.652      861.951
08/12/2013  03:23:00     -164.888      -34.035      -14.140       39.583       31.126       24.690     1566.809      968.827      609.582        1.585        0.157      168.364       19.683        0.014      341.745       16.671      861.947
08/12/2013  03:24:00     -178.765      -25.745      -15.755       52.505       45.424       25.432     2756.811     2063.305      646.798        1.917        0.273      180.609       25.310        0.020      341.830       16.814      861.950
08/12/2013  03:25:00     -164.559      -13.208      -17.047       50.291       47.488       27.882     2529.232     2255.110      777.388        1.655        0.278      165.088       23.041        0.019      341.867       16.876      861.960
08/12/2013  03:26:00     -117.440      -11.652       -6.714       43.122       31.328       19.250     1859.481      981.446      370.566        0.859        0.161      118.016       20.835        0.031      341.810       16.780      861.963
08/12/2013  03:27:00     -118.817      -18.136      -16.503       27.033       22.673       18.503      730.795      514.043      342.358        0.815        0.079      120.193       16.411        0.019      341.811       16.781      861.964
08/12/2013  03:28:00     -115.838      -23.147      -16.896       28.247       24.666       14.063      797.867      608.424      197.770        0.792        0.080      118.128       11.403        0.009      341.835       16.824      861.981
08/12/2013  03:29:00     -159.822      -75.307       -7.388       44.238       40.603       20.584     1956.978     1648.643      423.708        1.765        0.201      176.675       16.535        0.009      341.864       16.871      862.009
08/12/2013  03:30:00     -128.478      -32.335       -8.139       29.987       34.286       20.834      899.222     1175.551      434.042        1.006        0.125      132.485       15.666        0.014      341.814       16.788      862.022
08/12/2013  03:31:00      -86.377      -30.225       -4.931       38.275       32.265       22.005     1464.995     1041.001      484.228        0.569        0.150       91.512       18.948        0.043      341.818       16.794      862.036
08/12/2013  03:32:00      -63.983      -21.451       -5.084       32.337       25.011       17.206     1045.664      625.530      296.047        0.327        0.098       67.483        7.772        0.013      341.840       16.830      862.052
08/12/2013  03:33:00     -115.895      -21.358      -14.060       42.367       33.254       26.292     1794.971     1105.822      691.250        0.884        0.180      117.846       24.451        0.043      341.815       16.788      862.057
08/12/2013  03:34:00     -110.973      -45.022      -17.344       25.553       25.668       19.223      652.937      658.839      369.518        0.816        0.084      119.758       12.524        0.011      341.911       16.952      862.049
08/12/2013  03:35:00      -62.923      -29.990       -2.008       36.463       30.101       17.664     1329.567      906.068      312.014        0.370        0.127       69.705       15.789        0.051      341.922       16.971      862.064
08/12/2013  03:36:00      -95.325      -26.777        0.053       64.331       27.667       24.782     4138.475      765.446      614.153        0.766        0.276       99.014       28.220        0.081      341.895       16.927      862.067
08/12/2013  03:37:00      -95.258      -66.826        1.089       37.731       38.579       24.022     1423.615     1488.321      577.065        0.851        0.174      116.360       20.682        0.032      341.852       16.852      862.063
08/12/2013  03:38:00      -86.385      -50.613       -5.125       29.950       32.571       22.341      897.025     1060.899      499.132        0.625        0.123      100.121       16.096        0.026      341.875       16.892      862.053
08/12/2013  03:39:00      -39.824      -24.985        4.416       40.076       23.646       17.369     1606.118      559.125      301.669        0.235        0.123       47.013       19.240        0.167      341.856       16.858      862.053
08/12/2013  03:40:00      -84.691      -25.679       -0.452       39.885       43.330       19.716     1590.780     1877.506      388.731        0.584        0.193       88.499       21.355        0.058      341.887       16.911      862.059
08/12/2013  03:41:00     -133.788       -6.949      -11.011       74.927       44.413       28.492     5614.088     1972.485      811.783        1.323        0.420      133.969       35.801        0.071      341.928       16.980      862.057
08/12/2013  03:42:00     -114.524      -77.308       -2.349       45.761       48.390       30.628     2094.054     2341.581      938.075        1.223        0.269      138.175       26.962        0.038      341.917       16.964      862.056
08/12/2013  03:43:00      -67.070      -53.840        0.188       43.171       33.043       26.216     1863.695     1091.823      687.279        0.552        0.182       86.007       24.447        0.081      341.877       16.894      862.060
08/12/2013  03:44:00      -72.681      -28.858       -5.345       36.628       38.471       23.692     1341.618     1479.997      561.315        0.476        0.169       78.201       22.179        0.080      341.929       16.982      862.071
08/12/2013  03:45:00      -39.124      -26.753        0.686       36.656       26.685       15.466     1343.661      712.088      239.212        0.227        0.115       47.396       16.349        0.119      341.944       17.009      862.068
08/12/2013  03:46:00      -14.213      -31.720      -10.458       35.053       18.290       16.919     1228.708      334.511      286.240        0.158        0.092       34.758       13.115        0.142      341.990       17.087      862.064
08/12/2013  03:47:00       14.278      -38.961        0.124       21.366       20.726       16.454      456.487      429.555      270.743        0.144        0.058       41.495        3.311        0.006      341.916       16.961      862.059
08/12/2013  03:48:00      -35.229      -73.021        4.119       26.173       53.733       15.187      685.046     2887.269      230.631        0.520        0.190       81.075       18.147        0.050      341.896       16.927      862.069
08/12/2013  03:49:00      -34.879      -76.350       -9.278       40.903       32.141       20.128     1673.085     1033.021      405.131        0.512        0.156       83.940       20.107        0.057      341.909       16.946      862.062
08/12/2013  03:50:00       -9.848      -47.954        5.611       17.036       37.722       16.095      290.233     1422.986      259.038        0.220        0.099       48.955       17.832        0.133      341.827       16.809      862.063
08/12/2013  03:51:00      -14.220      -63.605       -6.008       26.726       42.926       15.869      714.302     1842.654      251.820        0.355        0.140       65.175        8.446        0.017      341.806       16.775      862.067
08/12/2013  03:52:00      -38.980      -67.217        1.888       31.994       50.105       27.735     1023.618     2510.556      769.228        0.517        0.215       77.701       12.409        0.026      341.606       16.434      862.071
08/12/2013  03:53:00      -18.898      -77.687        1.580       34.550       55.614       32.933     1193.679     3092.913     1084.615        0.588        0.269       79.953       33.361        0.174      341.471       16.207      862.072
08/12/2013  03:54:00       10.685      -18.695        5.493       19.187       40.045       27.239      368.135     1603.583      741.983        0.160        0.136       21.533       22.986        1.140      341.428       16.133      862.065
08/12/2013  03:55:00       -4.695      -28.018       11.720       33.444       24.002       16.770     1118.512      576.084      281.220        0.146        0.099       28.408       14.440        0.258      341.504       16.263      862.067
08/12/2013  03:56:00      -19.548      -22.127       -5.309       35.342       17.809       10.109     1249.073      317.151      102.184        0.128        0.083       29.524       11.873        0.162      341.608       16.440      862.067
08/12/2013  03:57:00      -59.831       -7.681       10.011       41.352       27.713       18.686     1709.978      768.001      349.178        0.328        0.141       60.322       16.111        0.071      341.418       16.118      862.071
08/12/2013  03:58:00      -86.153      -37.216      -13.199       44.116       40.160       18.136     1946.211     1612.858      328.915        0.643        0.194       93.847       10.697        0.013      341.436       16.146      862.071
08/12/2013  03:59:00      -81.426      -33.737        1.391       44.460       30.036       19.694     1976.681      902.174      387.863        0.552        0.163       88.138       14.825        0.028      341.377       16.047      862.082
08/12/2013  04:00:00      -22.421      -26.233       -0.565       29.600       20.534       17.311      876.161      421.652      299.661        0.139        0.080       34.509       13.684        0.157      341.364       16.023      862.076
08/12/2013  04:01:00      -78.587      -22.289       -6.501       39.594       27.878       20.344     1567.656      777.199      413.859        0.474        0.138       81.687       21.924        0.072      341.366       16.029      862.060
08/12/2013  04:02:00     -100.225      -30.384      -10.878       26.230       21.611       16.731      688.030      467.045      279.929        0.626        0.072      104.730       10.461        0.010      341.388       16.066      862.061
08/12/2013  04:03:00      -71.420      -44.349       -0.472       34.418       20.866       15.959     1184.570      435.371      254.678        0.447        0.094       84.070        9.788        0.014      341.303       15.922      862.061
08/12/2013  04:04:00      -18.074      -30.541       -1.237       19.147       14.555       10.692      366.617      211.851      114.313        0.098        0.035       35.489        7.040        0.039      341.349       16.000      862.060
08/12/2013  04:05:00      -15.648      -36.296        8.171       24.463       19.797       14.029      598.437      391.905      196.803        0.141        0.059       39.525        9.192        0.054      341.289       15.899      862.061
08/12/2013  04:06:00      -38.904      -47.091       -4.413       26.233       22.718       17.993      688.168      516.104      323.737        0.264        0.076       61.083       16.676        0.075      341.357       16.013      862.054
08/12/2013  04:07:00      -10.285      -56.520      -12.659       17.280       21.617       12.924      298.589      467.274      167.027        0.220        0.047       57.449        9.780        0.029      341.381       16.055      862.059
08/12/2013  04:08:00       -7.703      -15.711        6.056       18.111       13.392       11.012      328.004      179.349      121.273        0.049        0.031       17.498        8.512        0.237      341.415       16.111      862.059
08/12/2013  04:09:00      -58.879      -22.599        4.246       20.436       20.482       14.673      417.631      419.520      215.306        0.252        0.053       63.067        9.534        0.023      341.383       16.057      862.076
08/12/2013  04:10:00       -0.012      -25.396       -1.161       18.327       27.688       14.285      335.882      766.652      204.049        0.098        0.065       25.396        7.070        0.078      341.294       15.907      862.092
08/12/2013  04:11:00      -37.809       -7.345       -9.764       23.744       21.863       14.477      563.769      477.989      209.569        0.141        0.063       38.516       13.538        0.124      341.301       15.920      862.102
08/12/2013  04:12:00      -76.119      -41.602        1.870       35.651       35.369       17.803     1270.968     1250.982      316.938        0.518        0.142       86.746       17.579        0.041      341.265       15.858      862.114
08/12/2013  04:13:00      -92.256      -74.464        3.909       49.292       41.655       24.128     2429.683     1735.118      582.140        0.941        0.237      118.558       26.921        0.052      341.184       15.721      862.108
08/12/2013  04:14:00      -78.071      -63.227       -1.941       32.583       34.202       27.838     1061.672     1169.792      774.946        0.655        0.150      100.463       19.971        0.040      341.166       15.692      862.096
08/12/2013  04:15:00     -112.152      -77.541      -12.203       26.142       19.400       15.311      683.414      376.346      234.418        1.002        0.065      136.347        7.228        0.003      341.234       15.805      862.097
08/12/2013  04:16:00     -107.780      -61.597       -6.937       23.894       26.201       16.104      570.901      686.490      259.324        0.849        0.076      124.140       12.032        0.009      341.226       15.793      862.100
08/12/2013  04:17:00      -69.627      -31.720       -0.584       24.585       21.353       17.090      604.402      455.941      292.068        0.360        0.068       76.512       11.968        0.024      341.184       15.722      862.099
08/12/2013  04:18:00      -80.329      -22.163       -8.198       10.507       12.016        9.172      110.405      144.388       84.126        0.367        0.017       83.330        2.952        0.001      341.165       15.690      862.093
08/12/2013  04:19:00      -55.758      -30.086       -2.681       27.846       19.807       11.420      775.388      392.316      130.416        0.266        0.065       63.357       12.031        0.036      341.138       15.642      862.082
08/12/2013  04:20:00      -29.771      -42.914       -5.279       33.605       33.141       13.179     1129.300     1098.320      173.676        0.258        0.120       52.229       13.581        0.068      341.174       15.704      862.076
08/12/2013  04:21:00      -50.455      -62.607       -5.233       58.245       35.561       28.205     3392.428     1264.612      795.532        0.597        0.273       80.407       26.393        0.108      341.080       15.545      862.076
08/12/2013  04:22:00      -83.678      -39.069       -1.570       45.099       32.823       22.346     2033.959     1077.350      499.349        0.607        0.181       92.349       21.084        0.052      341.037       15.472      862.071
08/12/2013  04:23:00      -51.704       -1.866       -1.825       21.408       15.510       18.740      458.306      240.547      351.205        0.186        0.053       51.737       10.811        0.044      341.098       15.575      862.067
08/12/2013  04:24:00      -33.147      -21.818       -3.836       25.021       24.334       15.609      626.056      592.132      243.629        0.153        0.073       39.683        6.885        0.030      341.124       15.617      862.072
08/12/2013  04:25:00      -36.936       -8.808        7.865       37.297       26.707       20.182     1391.031      713.255      407.300        0.201        0.126       37.972       16.652        0.192      341.079       15.543      862.071
08/12/2013  04:26:00      -98.101      -46.338        6.578       41.773       40.307       28.985     1745.024     1624.667      840.108        0.801        0.210      108.495       22.503        0.043      340.979       15.374      862.075
08/12/2013  04:27:00      -96.577      -64.258        1.607       45.016       37.369       22.479     2026.440     1396.476      505.296        0.869        0.196      116.001       21.524        0.034      340.909       15.255      862.074
08/12/2013  04:28:00     -119.576      -69.476       -6.684       32.058       29.865       21.296     1027.687      891.899      453.503        1.077        0.119      138.295       18.834        0.019      340.975       15.366      862.084
08/12/2013  04:29:00      -87.171      -59.168       -1.834       42.659       31.810       19.757     1819.756     1011.850      390.333        0.716        0.161      105.355       21.588        0.042      340.985       15.382      862.079
08/12/2013  04:30:00      -94.500      -45.986       -3.484       22.459       21.884       13.009      504.402      478.902      169.224        0.610        0.058      105.095        9.736        0.009      341.000       15.407      862.097
08/12/2013  04:31:00      -63.848      -38.856       -1.046       28.490       25.877       14.697      811.693      669.613      216.015        0.364        0.085       74.742       11.290        0.023      340.990       15.391      862.096
08/12/2013  04:32:00      -30.210      -19.332        7.302       26.196       17.202       14.933      686.217      295.914      222.980        0.127        0.060       35.866       11.098        0.096      340.951       15.326      862.116
08/12/2013  04:33:00      -25.124      -38.674       17.025       44.215       36.954       23.312     1954.939     1365.612      543.458        0.314        0.193       46.119       24.457        0.281      340.922       15.277      862.126
08/12/2013  04:34:00      -89.986      -85.956       -0.593       49.218       34.091       23.381     2422.383     1162.210      546.665        0.981        0.207      124.442       24.314        0.038      340.911       15.258      862.134
08/12/2013  04:35:00      -94.685      -58.523       -0.398       59.135       35.987       28.759     3496.923     1295.062      827.074        0.900        0.281      111.312       30.956        0.077      340.855       15.163      862.133
08/12/2013  04:36:00      -50.638      -47.049        5.924       73.220       40.687       33.761     5361.167     1655.431     1139.800        0.648        0.408       69.122       39.640        0.329      340.855       15.163      862.117
08/12/2013  04:37:00      -49.570      -37.482       14.664       55.294       38.411       33.274     3057.433     1475.437     1107.190        0.486        0.282       62.145       25.415        0.167      340.755       14.994      862.123
08/12/2013  04:38:00      -85.962      -50.158        1.634       63.820       37.697       33.140     4073.029     1421.057     1098.268        0.825        0.330       99.525       29.508        0.088      340.671       14.852      862.115
08/12/2013  04:39:00      -67.292      -43.092        4.951       63.221       43.422       25.194     3996.883     1885.452      634.723        0.646        0.326       79.906       24.211        0.092      340.682       14.872      862.109
08/12/2013  04:40:00      -54.403      -36.372        5.732       50.702       41.372       26.643     2570.654     1711.683      709.841        0.465        0.250       65.442       18.087        0.076      340.701       14.903      862.119
08/12/2013  04:41:00     -104.096      -82.275        2.297       51.138       46.861       33.247     2615.080     2195.915     1105.379        1.176        0.296      132.684       30.228        0.052      340.643       14.806      862.124
08/12/2013  04:42:00     -102.488      -87.552        3.994       53.212       38.547       30.350     2831.509     1485.891      921.106        1.171        0.262      134.793       29.327        0.047      340.593       14.719      862.117
08/12/2013  04:43:00      -99.198     -109.694       -7.091       41.434       42.743       27.096     1716.764     1826.984      734.217        1.310        0.214      147.896       16.266        0.012      340.598       14.727      862.116
08/12/2013  04:44:00      -85.240      -61.265        5.058       52.824       41.264       31.331     2790.398     1702.696      981.603        0.826        0.274      104.972       27.592        0.069      340.623       14.773      862.112
08/12/2013  04:45:00      -56.995      -40.246       13.724       53.455       32.155       27.922     2857.426     1033.945      779.649        0.486        0.234       69.772       28.608        0.168      340.588       14.713      862.106
08/12/2013  04:46:00     -108.953      -71.823       -1.580       54.817       41.081       28.019     3004.928     1687.640      785.090        1.125        0.274      130.496       24.442        0.035      340.609       14.748      862.105
08/12/2013  04:47:00     -103.744      -65.393        4.284       53.215       35.741       26.093     2831.869     1277.410      680.827        0.992        0.240      122.634       27.153        0.049      340.540       14.631      862.110
08/12/2013  04:48:00     -112.055      -73.212       -6.339       71.458       50.682       29.712     5106.174     2568.650      882.825        1.326        0.428      133.852       33.761        0.064      340.539       14.629      862.120
08/12/2013  04:49:00     -116.169      -77.572        4.885       55.578       44.679       29.917     3088.886     1996.182      895.021        1.276        0.299      139.687       29.412        0.044      340.499       14.563      862.120
08/12/2013  04:50:00     -112.659      -99.494       -1.404       57.672       42.581       30.247     3326.048     1813.181      914.879        1.432        0.303      150.303       30.976        0.042      340.525       14.605      862.122
08/12/2013  04:51:00      -89.059      -87.111        6.266       59.404       45.475       34.180     3528.858     2067.983     1168.281        1.116        0.338      124.579       32.406        0.068      340.474       14.520      862.135
08/12/2013  04:52:00     -115.778      -86.086        3.783       58.947       38.811       30.109     3474.728     1506.299      906.573        1.336        0.294      144.275       31.720        0.048      340.433       14.449      862.135
08/12/2013  04:53:00      -79.456      -88.609        4.992       56.007       36.032       29.405     3136.812     1298.314      864.681        0.974        0.265      119.016       32.392        0.074      340.461       14.498      862.141
08/12/2013  04:54:00     -110.352     -113.170       -1.339       38.325       45.213       35.645     1468.808     2044.188     1270.575        1.488        0.239      158.066       29.206        0.034      340.449       14.478      862.142
08/12/2013  04:55:00      -83.728      -84.146        2.460       59.084       57.459       29.629     3490.937     3301.577      877.906        1.088        0.384      118.706       35.042        0.087      340.406       14.403      862.137
08/12/2013  04:56:00     -113.352     -100.987        4.662       52.370       43.204       34.729     2742.627     1866.565     1206.106        1.444        0.291      151.812       32.087        0.045      340.361       14.328      862.128
08/12/2013  04:57:00     -106.562      -89.565        2.537       38.392       37.670       28.242     1473.917     1418.995      797.592        1.154        0.185      139.203       25.070        0.032      340.377       14.356      862.123
08/12/2013  04:58:00     -101.262      -50.512       -3.594       33.283       21.628       17.341     1107.728      467.762      300.694        0.735        0.094      113.161       17.130        0.023      340.433       14.451      862.113
08/12/2013  04:59:00      -18.461      -41.754       16.306       41.309       27.130       25.925     1706.441      736.064      672.121        0.273        0.156       45.653       23.502        0.265      340.343       14.297      862.133
08/12/2013  05:00:00      -49.059      -37.781        1.291       40.083       22.897       16.011     1606.664      524.271      256.361        0.311        0.119       61.920       16.120        0.068      340.362       14.329      862.144
08/12/2013  05:01:00      -85.657      -60.968        2.128       42.940       45.940       22.910     1843.874     2110.459      524.887        0.777        0.224      105.139       20.966        0.040      340.384       14.367      862.158
08/12/2013  05:02:00      -94.374      -64.511       -8.413       39.996       24.859       24.410     1599.672      617.992      595.826        0.798        0.141      114.316       23.860        0.044      340.383       14.366      862.173
08/12/2013  05:03:00      -95.740      -37.509      -10.009       20.201       29.748       12.635      408.075      884.961      159.650        0.606        0.073      102.825        9.409        0.008      340.312       14.244      862.179
08/12/2013  05:04:00      -22.209      -44.635       -0.118       26.045       28.874       16.492      678.360      833.694      271.988        0.213        0.089       49.855       17.797        0.127      340.383       14.365      862.180
08/12/2013  05:05:00      -35.577     -123.013       -3.338       29.220       32.056       14.531      853.803     1027.587      211.164        0.925        0.105      128.054        9.491        0.005      340.465       14.505      862.184
08/12/2013  05:06:00      -37.181      -31.600       12.304       26.681       23.376       18.268      711.851      546.446      333.710        0.206        0.080       48.795       14.700        0.091      340.428       14.442      862.179
08/12/2013  05:07:00      -44.727      -48.740        7.578       52.803       26.722       23.593     2788.105      714.054      556.624        0.425        0.203       66.152       27.891        0.178      340.448       14.474      862.171
08/12/2013  05:08:00      -37.482      -34.591       11.250       36.171       26.776       20.875     1308.311      716.977      435.769        0.259        0.123       51.004       24.809        0.237      340.379       14.360      862.174
08/12/2013  05:09:00      -67.881      -50.783       -7.194       32.307       17.206       13.638     1043.762      296.054      186.002        0.438        0.076       84.775       13.338        0.025      340.469       14.512      862.175
08/12/2013  05:10:00      -18.428      -82.846       -4.284       37.317       23.015       25.765     1392.522      529.669      663.844        0.490        0.129       84.871       23.700        0.078      340.553       14.653      862.175
08/12/2013  05:11:00      -63.361     -118.830       -2.553       23.244       33.146       19.004      540.293     1098.678      361.152        1.007        0.100      134.666       12.814        0.009      340.661       14.837      862.180
08/12/2013  05:12:00      -38.311      -72.682       -5.067       29.627       29.160       20.149      877.744      850.297      405.964        0.445        0.107       82.161       16.417        0.040      340.568       14.681      862.175
08/12/2013  05:13:00      -30.579      -31.497       12.139       33.240       22.734       15.716     1104.926      516.819      246.983        0.197        0.093       43.900       17.512        0.159      340.436       14.454      862.175
08/12/2013  05:14:00      -77.105      -92.577       -2.061       35.863       35.151       21.729     1286.190     1235.583      472.146        0.876        0.150      120.481       18.101        0.023      340.523       14.603      862.181
08/12/2013  05:15:00      -86.007      -85.483       -4.197       35.952       45.613       22.478     1292.552     2080.547      505.258        0.930        0.194      121.262       20.781        0.029      340.472       14.516      862.185
08/12/2013  05:16:00     -100.882     -115.545       -4.713       41.008       33.277       34.083     1681.655     1107.375     1161.642        1.375        0.198      153.387       27.402        0.032      340.499       14.562      862.189
08/12/2013  05:17:00      -50.415      -60.212        5.223       48.421       39.551       22.436     2344.638     1564.300      503.384        0.530        0.221       78.532       22.120        0.079      340.443       14.468      862.194
08/12/2013  05:18:00      -92.507      -82.446        2.871       46.359       36.958       25.232     2149.182     1365.858      636.642        0.976        0.208      123.915       28.767        0.054      340.421       14.428      862.182
08/12/2013  05:19:00      -57.476      -58.312        5.976       39.877       28.552       22.241     1590.165      815.201      494.660        0.482        0.145       81.876       20.759        0.064      340.337       14.286      862.176
08/12/2013  05:20:00      -29.784      -53.739        4.177       40.749       28.974       26.184     1660.449      839.466      685.626        0.349        0.159       61.440       27.819        0.205      340.402       14.397      862.178
08/12/2013  05:21:00      -33.097      -37.201       15.806       53.207       36.566       23.553     2831.016     1337.058      554.742        0.373        0.236       49.793       28.796        0.334      340.403       14.400      862.189
08/12/2013  05:22:00      -79.942      -44.153       -3.883       15.949       28.840       14.042      254.368      831.756      197.172        0.482        0.064       91.325        5.921        0.004      340.453       14.482      862.174
08/12/2013  05:23:00      -61.785      -30.318       -0.784       29.775       22.466       18.869      886.570      504.706      356.042        0.324        0.087       68.822       18.248        0.070      340.235       14.114      862.176
08/12/2013  05:24:00      -67.097      -15.234       -0.202       26.320       25.480       13.626      692.762      649.232      185.657        0.313        0.076       68.805       11.228        0.027      340.112       13.908      862.181
08/12/2013  05:25:00      -75.637      -15.962       -3.797       37.104       21.237       15.083     1376.716      451.028      227.486        0.402        0.103       77.303       16.558        0.046      340.027       13.764      862.181
08/12/2013  05:26:00      -67.977       -9.495       -5.990       32.031       16.055       11.808     1025.985      257.747      139.434        0.308        0.071       68.636       11.634        0.029      339.998       13.716      862.183
08/12/2013  05:27:00      -63.982      -43.060        0.487       28.786       20.427       15.609      828.614      417.261      243.634        0.372        0.074       77.122       12.113        0.025      340.062       13.824      862.186
08/12/2013  05:28:00      -86.043      -21.761       -1.354       33.605       27.824       16.264     1129.319      774.160      264.514        0.502        0.108       88.752       13.633        0.024      340.146       13.965      862.185
08/12/2013  05:29:00      -79.920      -36.234        0.818       27.716       27.224       18.109      768.154      741.148      327.923        0.477        0.092       87.750       14.856        0.029      340.131       13.940      862.195
08/12/2013  05:30:00      -47.918      -44.066        5.211       23.500       26.738       17.457      552.228      714.900      304.760        0.292        0.079       65.099       11.994        0.034      340.235       14.115      862.208
08/12/2013  05:31:00      -34.476      -23.028        9.506       36.601       27.034       15.156     1339.602      730.845      229.709        0.205        0.115       41.459       13.220        0.102      340.217       14.084      862.207
08/12/2013  05:32:00      -99.469      -46.213       -3.367       28.805       23.017       17.115      829.728      529.798      292.939        0.685        0.083      109.680       15.091        0.019      340.218       14.088      862.200
08/12/2013  05:33:00      -94.909      -42.874       -2.924       22.813       28.406       16.522      520.425      806.908      272.986        0.623        0.080      104.144       15.210        0.021      340.201       14.057      862.198
08/12/2013  05:34:00     -134.492      -28.576       -8.968       17.882       19.584       16.596      319.748      383.543      275.437        0.998        0.049      137.494        4.609        0.001      340.180       14.022      862.189
08/12/2013  05:35:00     -125.986      -60.805       -6.093       21.732       19.804       11.749      472.268      392.210      138.044        1.030        0.050      139.891        3.796        0.001      340.244       14.131      862.200
08/12/2013  05:36:00      -82.880      -52.528        3.223       41.090       23.788       20.357     1688.416      565.874      414.426        0.615        0.133       98.124       18.368        0.035      340.229       14.105      862.205
08/12/2013  05:37:00     -119.684      -37.860       -6.941       40.334       19.018       15.791     1626.865      361.676      249.341        0.902        0.112      125.529       14.551        0.013      340.242       14.127      862.229
08/12/2013  05:38:00     -122.473      -51.472      -16.983       20.582       16.201       18.456      423.629      262.465      340.617        0.948        0.051      132.849       12.674        0.009      340.126       13.931      862.240
08/12/2013  05:39:00     -115.929      -31.932      -13.734       22.939       24.050       19.014      526.198      578.424      361.530        0.806        0.073      120.246       10.792        0.008      340.199       14.055      862.253
08/12/2013  05:40:00      -94.228       -3.882       -3.180       38.234       34.726       29.191     1461.845     1205.919      852.137        0.621        0.176       94.308       27.252        0.084      340.214       14.080      862.258
08/12/2013  05:41:00     -114.682      -28.518       -7.194       24.697       24.735       23.629      609.939      611.840      558.347        0.790        0.089      118.174       18.338        0.024      340.167       14.000      862.263
08/12/2013  05:42:00     -112.506      -34.002      -11.775       23.120       19.480       19.967      534.519      379.469      398.691        0.763        0.066      117.532        8.965        0.006      340.272       14.179      862.271
08/12/2013  05:43:00     -133.813      -20.152      -15.686       43.094       19.656       21.059     1857.128      386.374      443.491        1.062        0.134      135.322       21.038        0.024      340.171       14.007      862.276
08/12/2013  05:44:00     -158.218      -18.391      -10.308       45.222       31.717       27.031     2045.073     1005.944      730.686        1.463        0.189      159.283       28.804        0.033      340.220       14.091      862.284
08/12/2013  05:45:00     -103.289      -47.319       -5.085       37.541       25.258       19.380     1409.357      637.963      375.588        0.768        0.121      113.612       14.898        0.017      340.198       14.053      862.291
08/12/2013  05:46:00      -99.448      -53.385      -10.096       32.956       32.606       16.125     1086.112     1063.172      260.031        0.763        0.120      112.871       14.083        0.016      340.286       14.203      862.302
08/12/2013  05:47:00     -131.597      -38.622       -9.355       28.170       28.187       20.637      793.563      794.535      425.882        1.046        0.101      137.147       16.257        0.014      340.274       14.181      862.296
08/12/2013  05:48:00     -149.740      -56.590      -13.503       24.128       25.640       18.077      582.144      657.386      326.786        1.369        0.078      160.076       13.781        0.007      340.289       14.206      862.298
08/12/2013  05:49:00     -150.372      -67.624      -10.886       29.107       34.381       19.836      847.243     1182.038      393.469        1.486        0.121      164.878       15.423        0.009      340.311       14.243      862.313
08/12/2013  05:50:00     -137.650      -61.698      -12.509       50.582       22.273       19.389     2558.506      496.086      375.939        1.317        0.172      150.845       25.290        0.028      340.280       14.191      862.324
08/12/2013  05:51:00     -156.135      -24.001      -12.996       30.511       26.649       18.116      930.913      710.171      328.190        1.355        0.098      157.969       16.110        0.010      340.211       14.076      862.332
08/12/2013  05:52:00     -160.128      -30.040      -12.490       28.852       25.847       16.884      832.464      668.069      285.080        1.424        0.089      162.922       10.244        0.004      340.159       13.987      862.344
08/12/2013  05:53:00     -144.517      -37.759      -16.448       26.055       27.024       17.036      678.859      730.277      290.226        1.214        0.085      149.368       10.454        0.005      340.161       13.989      862.348
08/12/2013  05:54:00     -126.071      -53.964      -17.100       24.436       24.777       16.659      597.119      613.891      277.529        1.029        0.074      137.135        5.931        0.002      340.193       14.044      862.351
08/12/2013  05:55:00     -115.321      -34.467       -7.355       24.593       25.024       17.235      604.800      626.220      297.049        0.803        0.076      120.361       12.711        0.011      340.187       14.034      862.348
08/12/2013  05:56:00     -148.228      -14.960      -12.432       36.232       26.584       25.124     1312.759      706.720      631.199        1.250        0.133      148.981       19.877        0.018      340.237       14.119      862.352
08/12/2013  05:57:00     -116.685      -49.241       -6.474       29.435       32.356       18.820      866.436     1046.903      354.202        0.917        0.113      126.650       12.696        0.010      340.232       14.109      862.362
08/12/2013  05:58:00      -93.361      -63.558       -2.884       29.372       23.188       15.908      862.689      537.695      253.071        0.721        0.083      112.942       16.903        0.022      340.252       14.144      862.376
08/12/2013  05:59:00      -83.515      -54.128       -4.168       21.211       13.776       13.880      449.892      189.787      192.641        0.538        0.042       99.521        9.305        0.009      340.261       14.159      862.380
08/12/2013  06:00:00      -68.136      -46.998       -6.012       27.937       21.761       17.662      780.472      473.544      311.956        0.423        0.078       82.773       16.017        0.037      340.291       14.210      862.393
08/12/2013  06:01:00      -76.412      -39.834      -10.624       13.437       12.634       11.547      180.552      159.610      133.331        0.401        0.024       86.171        3.494        0.002      340.175       14.014      862.397
08/12/2013  06:02:00      -69.950      -25.317       -6.025       14.897       12.912        8.319      221.929      166.712       69.209        0.301        0.023       74.390        6.340        0.007      340.150       13.974      862.408
08/12/2013  06:03:00      -37.509      -20.083      -10.280       38.087       24.196       22.367     1450.637      585.461      500.286        0.223        0.127       42.547       18.271        0.184      340.160       13.989      862.421
08/12/2013  06:04:00      -43.305      -34.687        1.742       37.347       19.296       14.940     1394.809      372.326      223.197        0.254        0.100       55.484       14.843        0.072      340.130       13.938      862.426
08/12/2013  06:05:00      -83.878      -60.322        7.552       51.447       30.753       19.717     2646.796      945.731      388.748        0.736        0.199      103.316       22.485        0.047      340.137       13.948      862.431
08/12/2013  06:06:00      -85.696      -75.803       -2.811       44.170       27.880       22.965     1950.998      777.294      527.403        0.818        0.163      114.411       21.199        0.034      340.106       13.898      862.434
08/12/2013  06:07:00      -64.583      -78.433       -3.065       34.577       25.322       21.536     1195.536      641.200      463.819        0.632        0.115      101.601       20.581        0.041      340.107       13.900      862.447
08/12/2013  06:08:00      -82.184      -81.950       -6.606       39.540       49.548       25.401     1563.379     2455.035      645.234        0.909        0.233      116.060       23.061        0.039      340.026       13.762      862.456
08/12/2013  06:09:00     -121.017      -96.919      -11.917       25.475       35.960       24.331      648.959     1293.155      591.973        1.336        0.127      155.043       20.779        0.018      340.080       13.854      862.459
08/12/2013  06:10:00      -90.446      -86.339       -2.767       32.413       33.795       25.487     1050.578     1142.079      649.611        0.924        0.142      125.040       23.975        0.037      340.063       13.824      862.461
08/12/2013  06:11:00      -77.733      -51.716       -2.411       56.928       34.227       29.141     3240.794     1171.515      849.181        0.699        0.263       93.365       25.571        0.075      340.017       13.747      862.464
08/12/2013  06:12:00     -106.797      -90.911       -5.484       38.588       29.906       20.414     1489.032      894.356      416.723        1.125        0.140      140.251       16.702        0.014      340.007       13.731      862.464
08/12/2013  06:13:00      -91.089     -104.796       -3.455       56.012       37.806       27.323     3137.347     1429.277      746.573        1.230        0.266      138.850       28.272        0.041      339.985       13.694      862.471
08/12/2013  06:14:00      -90.443      -70.467       -2.535       30.576       22.128       25.811      934.904      489.664      666.202        0.762        0.105      114.653       21.726        0.036      340.065       13.829      862.476
08/12/2013  06:15:00      -45.368      -43.335        1.447       52.554       30.079       22.341     2761.965      904.725      499.134        0.405        0.208       62.739       30.324        0.234      340.079       13.852      862.467
08/12/2013  06:16:00      -24.825      -14.388        8.662       30.539       21.636       16.685      932.632      468.122      278.391        0.129        0.084       28.693        9.822        0.117      340.091       13.872      862.456
08/12/2013  06:17:00     -100.669      -40.118       -7.292       14.986       20.851       12.921      224.577      434.755      166.963        0.631        0.041      108.368        7.492        0.005      340.132       13.942      862.456
08/12/2013  06:18:00     -123.432      -52.659       -3.597       31.870       21.137       16.055     1015.701      446.791      257.757        0.987        0.086      134.196       14.667        0.012      340.099       13.885      862.462
08/12/2013  06:19:00      -79.364      -35.069       -0.297       15.483       19.745       11.135      239.719      389.868      123.992        0.414        0.038       86.767        5.908        0.005      340.060       13.820      862.462
08/12/2013  06:20:00      -45.658      -32.567       -0.562       31.575       16.993       14.488      996.993      288.761      209.906        0.232        0.075       56.083       13.111        0.055      340.086       13.864      862.468
08/12/2013  06:21:00      -59.570      -56.773        0.906       55.316       43.280       19.924     3059.811     1873.185      396.966        0.605        0.266       82.290       22.038        0.072      340.084       13.862      862.466
08/12/2013  06:22:00     -133.832      -91.077       -9.651       34.948       27.218       18.047     1221.329      740.806      325.702        1.429        0.114      161.883       14.871        0.008      340.008       13.733      862.467
08/12/2013  06:23:00     -130.888      -94.099       -6.239       46.027       29.698       28.022     2118.479      881.955      785.208        1.490        0.189      161.202       20.439        0.016      339.967       13.663      862.474
08/12/2013  06:24:00      -99.032      -71.625       -4.550       56.701       39.322       21.802     3215.056     1546.223      475.323        1.010        0.262      122.219       25.187        0.042      339.915       13.577      862.482
08/12/2013  06:25:00      -68.429      -61.044        7.009       41.526       33.196       25.930     1724.418     1101.971      672.352        0.598        0.175       91.700       24.065        0.069      339.957       13.646      862.489
08/12/2013  06:26:00      -90.925      -84.399       -9.109       42.338       24.848       20.459     1792.486      617.423      418.591        0.915        0.141      124.058       16.572        0.018      339.975       13.677      862.490
08/12/2013  06:27:00      -81.343      -79.871       -1.375       45.449       48.491       22.231     2065.655     2351.401      494.219        0.895        0.246      114.000       24.149        0.045      339.910       13.567      862.478
08/12/2013  06:28:00      -48.325      -60.823        6.346       36.691       36.630       24.561     1346.233     1341.740      603.265        0.468        0.165       77.684       28.723        0.137      339.925       13.592      862.485
08/12/2013  06:29:00      -42.260      -54.767        3.841       46.844       34.931       22.165     2194.349     1220.142      491.274        0.435        0.195       69.177       27.132        0.154      339.976       13.677      862.489
08/12/2013  06:30:00     -121.836      -63.291       -9.373       29.685       18.432       15.349      881.207      339.747      235.587        1.020        0.073      137.294       12.895        0.009      339.933       13.606      862.502
08/12/2013  06:31:00      -89.531      -64.945       -1.109       45.643       27.441       23.832     2083.240      753.003      567.983        0.782        0.170      110.606       25.778        0.054      339.910       13.567      862.512
08/12/2013  06:32:00     -130.559      -44.649      -10.129       32.710       32.332       21.684     1069.922     1045.335      470.214        1.086        0.129      137.982       20.114        0.021      339.864       13.491      862.518
08/12/2013  06:33:00     -135.315      -39.949      -13.957       28.807       35.147       18.952      829.866     1235.346      359.189        1.126        0.121      141.089       10.898        0.006      339.846       13.460      862.522
08/12/2013  06:34:00     -128.300      -20.743      -12.753       33.619       33.646       22.019     1130.206     1132.034      484.843        0.990        0.137      129.966       19.274        0.022      339.809       13.398      862.526
08/12/2013  06:35:00     -131.158      -42.332       -5.659       34.267       40.275       20.569     1174.222     1622.109      423.080        1.112        0.161      137.821       13.436        0.010      339.772       13.336      862.542
08/12/2013  06:36:00     -126.858      -70.396       -6.649       51.029       43.408       21.166     2603.988     1884.290      447.993        1.301        0.247      145.081       23.311        0.026      339.810       13.398      862.542
08/12/2013  06:37:00      -92.272      -78.082        8.391       52.104       49.765       25.865     2714.862     2476.572      669.004        1.027        0.293      120.876       32.126        0.071      339.791       13.367      862.544
08/12/2013  06:38:00     -106.642      -88.367        0.666       52.982       40.004       26.304     2807.123     1600.336      691.879        1.214        0.255      138.496       28.256        0.042      339.739       13.279      862.549
08/12/2013  06:39:00     -124.378      -91.262       -0.197       52.355       36.221       26.744     2741.059     1311.925      715.244        1.428        0.238      154.268       20.627        0.018      339.767       13.326      862.550
08/12/2013  06:40:00     -121.705      -65.939        4.851       54.979       45.212       31.838     3022.678     2044.105     1013.645        1.263        0.304      138.420       33.201        0.058      339.809       13.396      862.545
08/12/2013  06:41:00     -123.571      -89.939        0.625       64.974       51.236       25.984     4221.654     2625.144      675.145        1.544        0.376      152.836       24.987        0.027      339.845       13.455      862.544
08/12/2013  06:42:00     -145.301      -88.466       -7.022       60.777       41.659       38.958     3693.794     1735.465     1517.696        1.797        0.347      170.114       35.921        0.045      339.806       13.390      862.549
08/12/2013  06:43:00      -86.165      -59.752       -2.595       49.540       39.675       23.763     2454.194     1574.105      564.663        0.780        0.230      104.855       22.055        0.044      339.864       13.489      862.562
08/12/2013  06:44:00     -106.034      -70.598       -5.197       32.932       39.800       21.235     1084.528     1584.062      450.942        0.969        0.156      127.386       22.106        0.030      339.909       13.566      862.579
08/12/2013  06:45:00      -49.145      -30.741        9.358       45.027       29.053       27.632     2027.451      844.074      763.506        0.354        0.182       57.968       23.350        0.162      339.904       13.557      862.586
08/12/2013  06:46:00      -91.689       16.844       -8.584       25.168       18.641       16.650      633.445      347.505      277.214        0.501        0.063       93.223        6.570        0.005      339.897       13.545      862.596
08/12/2013  06:47:00      -47.704      -18.379      -13.434       14.987       17.986       12.088      224.616      323.505      146.113        0.174        0.035       51.121        9.452        0.034      339.953       13.640      862.608
08/12/2013  06:48:00      -11.191      -29.458        3.192       16.569       14.759       14.433      274.518      217.835      208.315        0.085        0.035       31.512       10.946        0.121      340.044       13.794      862.616
08/12/2013  06:49:00      -57.165      -16.389        3.148       28.671       21.003       14.697      822.007      441.125      216.004        0.251        0.074       59.468       14.219        0.057      339.992       13.706      862.618
08/12/2013  06:50:00      -57.387      -19.578       -0.113       23.131       22.796       14.154      535.037      519.653      200.325        0.247        0.063       60.635       12.368        0.042      339.983       13.690      862.624
08/12/2013  06:51:00      -69.954      -44.213        5.404       35.600       23.528       16.646     1267.385      553.564      277.079        0.449        0.105       82.755       15.882        0.037      339.974       13.674      862.633
08/12/2013  06:52:00      -51.915      -39.945        3.396       49.375       22.350       20.702     2437.899      499.508      428.557        0.383        0.168       65.503       25.901        0.156      339.977       13.680      862.647
08/12/2013  06:53:00     -135.701     -102.269      -12.369       35.645       34.039       26.638     1270.560     1158.683      709.594        1.608        0.157      169.923       20.238        0.014      339.938       13.615      862.658
08/12/2013  06:54:00     -105.632      -89.077        2.475       50.838       42.493       26.825     2584.459     1805.675      719.570        1.210        0.255      138.177       31.043        0.050      339.951       13.636      862.670
08/12/2013  06:55:00     -118.277      -89.977       -9.680       29.951       31.731       22.104      897.079     1006.848      488.595        1.229        0.120      148.611       17.501        0.014      339.957       13.647      862.676
08/12/2013  06:56:00      -93.545      -90.259       -0.570       43.448       35.919       22.862     1887.721     1290.178      522.668        1.030        0.185      129.990       18.829        0.021      340.017       13.748      862.684
08/12/2013  06:57:00      -71.887      -63.795        4.263       49.307       35.710       25.037     2431.168     1275.239      626.835        0.679        0.217       96.112       25.739        0.072      340.053       13.810      862.694
08/12/2013  06:58:00      -49.969      -60.534       13.826       42.747       36.296       29.782     1827.311     1317.383      886.975        0.519        0.202       78.494       27.428        0.122      340.051       13.805      862.693
08/12/2013  06:59:00      -80.644      -69.329       -3.562       30.563       31.341       20.374      934.121      982.235      415.082        0.683        0.117      106.348       16.282        0.023      340.062       13.824      862.681
08/12/2013  07:00:00      -84.305      -74.416       -3.638       49.077       33.634       21.369     2408.548     1131.265      456.648        0.833        0.200      112.451       24.862        0.049      340.077       13.848      862.677
08/12/2013  07:01:00      -55.238      -78.877       -8.322       39.365       35.832       23.008     1549.623     1283.967      529.372        0.635        0.168       96.295       17.569        0.033      340.109       13.903      862.688
08/12/2013  07:02:00      -42.694      -35.905       -2.758       35.072       22.647       16.508     1230.045      512.892      272.509        0.257        0.101       55.785        9.372        0.028      340.186       14.033      862.681
08/12/2013  07:03:00      -54.041      -35.002        1.565       41.174       52.630       25.329     1695.291     2769.909      641.564        0.463        0.255       64.386       27.840        0.187      340.223       14.097      862.675
08/12/2013  07:04:00      -21.082       -3.141        4.384       21.931       19.612       16.037      480.968      384.636      257.189        0.080        0.056       21.314       13.887        0.425      340.325       14.267      862.689
08/12/2013  07:05:00      -75.080      -17.197       -7.447       33.411       23.415       23.438     1116.269      548.282      549.358        0.410        0.111       77.024        7.988        0.011      340.314       14.249      862.701
08/12/2013  07:06:00      -58.863      -37.640        5.359       43.456       39.011       20.894     1888.463     1521.848      436.567        0.438        0.192       69.868       23.321        0.111      340.342       14.298      862.708
08/12/2013  07:07:00      -70.507      -53.699        3.322       39.829       33.208       22.320     1586.369     1102.803      498.197        0.553        0.159       88.627       24.846        0.079      340.403       14.399      862.715
08/12/2013  07:08:00      -87.011      -60.209       -3.126       43.968       35.932       22.712     1933.207     1291.143      515.841        0.747        0.187      105.812       26.508        0.063      340.345       14.302      862.719
08/12/2013  07:09:00     -108.328      -93.017        1.998       47.235       28.820       29.421     2231.104      830.608      865.600        1.216        0.196      142.784       27.045        0.036      340.311       14.244      862.713
08/12/2013  07:10:00      -68.981      -43.183        0.720       39.263       33.664       24.369     1541.592     1133.252      593.841        0.495        0.163       81.383       16.703        0.042      340.359       14.326      862.726
08/12/2013  07:11:00      -30.937      -36.745       14.156       47.388       34.635       25.656     2245.582     1199.615      658.213        0.330        0.205       48.034       27.739        0.333      340.457       14.492      862.741
08/12/2013  07:12:00      -56.234      -67.696        1.877       47.806       39.572       33.137     2285.416     1565.940     1098.043        0.635        0.247       88.006       31.511        0.128      340.414       14.418      862.763
08/12/2013  07:13:00      -62.476      -56.688        0.602       48.072       51.867       29.868     2310.920     2690.165      892.089        0.650        0.295       84.361       28.715        0.116      340.430       14.446      862.771
08/12/2013  07:14:00      -56.371      -74.323        1.674       31.843       26.167       19.412     1014.007      684.722      376.826        0.539        0.104       93.282       20.239        0.047      340.441       14.463      862.783
08/12/2013  07:15:00      -39.885      -47.946        7.012       35.215       26.780       20.420     1240.130      717.147      416.990        0.316        0.119       62.367       16.870        0.073      340.439       14.459      862.787
08/12/2013  07:16:00      -39.233      -65.443        3.289       33.436       33.931       18.958     1117.981     1151.329      359.414        0.423        0.131       76.303       18.038        0.056      340.455       14.488      862.784
08/12/2013  07:17:00      -52.406      -61.070        0.258       31.943       25.148       18.925     1020.356      632.439      358.137        0.424        0.101       80.473       19.387        0.058      340.456       14.489      862.796
08/12/2013  07:18:00      -21.903      -39.205        6.413       29.136       31.255       15.149      848.925      976.874      229.492        0.206        0.103       44.909       16.412        0.134      340.477       14.524      862.801
08/12/2013  07:19:00      -68.116      -31.458       -4.314       34.773       22.012       20.085     1209.142      484.547      403.391        0.387        0.105       75.030       18.948        0.064      340.490       14.547      862.818
08/12/2013  07:20:00      -70.198      -24.608        0.307       58.658       33.317       19.088     3440.723     1110.022      364.363        0.522        0.246       74.386       18.493        0.062      340.500       14.563      862.814
08/12/2013  07:21:00     -104.829      -25.977        0.119       27.132       29.750       19.028      736.144      885.074      362.072        0.682        0.099      108.000       12.630        0.014      340.462       14.499      862.831
08/12/2013  07:22:00     -114.112      -10.159       -2.077       31.129       21.290       15.752      969.038      453.243      248.130        0.740        0.084      114.563       14.134        0.015      340.447       14.473      862.833
08/12/2013  07:23:00      -90.001      -29.482        0.712       23.933       18.459       12.786      572.772      340.728      163.491        0.502        0.054       94.706        6.569        0.005      340.468       14.507      862.837
08/12/2013  07:24:00      -43.124      -39.487        2.825       23.985       10.382       15.466      575.292      107.795      239.206        0.217        0.046       58.471       10.076        0.030      340.519       14.597      862.834
08/12/2013  07:25:00       14.362      -70.534      -13.200       27.180       26.293       29.944      738.774      691.318      896.645        0.384        0.116       71.981        5.062        0.005      340.267       14.168      862.826
08/12/2013  07:26:00       23.565      -45.397      -12.480       23.718       40.320       25.561      562.566     1625.664      653.363        0.281        0.142       51.149       25.331        0.245      340.528       14.610      862.829
08/12/2013  07:27:00       10.169      -23.025       15.031       18.531       17.818       28.460      343.382      317.497      809.964        0.116        0.074       25.171       15.940        0.401      340.791       15.056      862.836
08/12/2013  07:28:00        3.710       14.369       28.575       21.056       41.092       22.311      443.337     1688.570      497.781        0.183        0.131       14.841       18.988        1.637      340.704       14.910      862.853
08/12/2013  07:29:00       -7.169      -27.082       -3.581       22.467       23.635       12.775      504.769      558.594      163.197        0.101        0.061       28.015       10.321        0.136      340.848       15.152      862.854
08/12/2013  07:30:00      -33.453       12.605      -22.143       24.790       25.332       19.841      614.526      641.730      393.670        0.171        0.082       35.749       16.612        0.216      340.721       14.936      862.874
08/12/2013  07:31:00      -39.303        2.664        9.645       28.947       15.504       12.536      837.951      240.379      157.150        0.144        0.062       39.393        8.090        0.042      340.899       15.237      862.872
08/12/2013  07:32:00      -51.328        7.305        5.432       23.948       23.714       19.098      573.505      562.369      364.725        0.211        0.075       51.845       16.540        0.102      340.820       15.105      862.870
08/12/2013  07:33:00      -42.096      -11.569        9.822       28.380       26.700       15.141      805.425      712.895      229.246        0.187        0.087       43.657       18.299        0.176      341.042       15.481      862.871
08/12/2013  07:34:00      -39.738      -47.363       -4.291       22.844       16.521       11.355      521.842      272.931      128.929        0.238        0.046       61.825        9.178        0.022      340.757       14.997      862.875
08/12/2013  07:35:00      -38.046      -61.822       -1.374       27.038       18.912       17.534      731.036      357.664      307.429        0.333        0.070       72.591       15.788        0.047      340.763       15.009      862.869
08/12/2013  07:36:00      -48.530      -61.467       -4.057       17.378       15.903        9.223      302.007      252.893       85.070        0.339        0.032       78.316        5.672        0.005      340.787       15.049      862.860
08/12/2013  07:37:00      -31.747      -48.583       -5.231        9.409        8.208        7.478       88.537       67.367       55.919        0.180        0.011       58.036        5.756        0.010      340.807       15.080      862.868
08/12/2013  07:38:00      -21.765      -57.737       -3.091       10.097       10.540        8.932      101.943      111.096       79.778        0.205        0.015       61.703        5.451        0.008      340.880       15.207      862.865
08/12/2013  07:39:00      -22.313      -56.558       -5.232       13.255       10.244        7.257      175.687      104.931       52.664        0.203        0.017       60.800        4.720        0.006      340.905       15.247      862.860
08/12/2013  07:40:00       -8.938      -26.427       11.494       22.026       19.711       16.132      485.155      388.515      260.251        0.102        0.057       27.897       14.494        0.270      341.269       15.864      862.859
08/12/2013  07:41:00      -20.627      -53.165        2.390       13.780       14.131       12.354      189.889      199.672      152.623        0.190        0.027       57.026        6.326        0.012      340.981       15.377      862.861
08/12/2013  07:42:00      -33.416      -45.920       -3.311       18.282       13.826        9.132      334.229      191.164       83.388        0.192        0.030       56.791        7.945        0.020      340.989       15.391      862.851
08/12/2013  07:43:00      -46.436      -56.328       -2.529       20.888       14.358        7.988      436.320      206.147       63.811        0.302        0.035       73.001        6.757        0.009      341.067       15.522      862.854
08/12/2013  07:44:00      -51.117      -79.929       -3.049       26.975       21.735       16.361      727.671      472.409      267.686        0.524        0.073       94.876       15.576        0.027      341.087       15.557      862.858
08/12/2013  07:45:00      -84.747      -87.626       -5.774       24.893       24.182       13.609      619.638      584.781      185.209        0.814        0.069      121.903       10.594        0.008      341.087       15.559      862.862
08/12/2013  07:46:00      -79.067      -79.141      -11.856       40.956       26.705       20.857     1677.393      713.143      434.994        0.774        0.141      111.870       14.613        0.017      341.107       15.590      862.861
08/12/2013  07:47:00      -58.224      -68.048        3.343       41.532       50.154       19.651     1724.874     2515.383      386.155        0.633        0.231       89.558       23.600        0.069      341.136       15.642      862.864
08/12/2013  07:48:00      -23.586      -44.577        4.765       28.532       31.221       18.960      814.056      974.771      359.469        0.236        0.107       50.432       16.702        0.110      341.294       15.908      862.881
08/12/2013  07:49:00      -50.999      -87.641        3.006       31.967       41.799       20.238     1021.915     1747.179      409.589        0.673        0.159      101.400       18.563        0.034      341.217       15.777      862.893
08/12/2013  07:50:00      -93.136      -81.237       -1.230       43.362       36.491       24.832     1880.250     1331.584      616.613        0.955        0.191      123.587       15.007        0.015      341.276       15.876      862.889
08/12/2013  07:51:00      -78.719     -101.773       -5.234       25.834       28.996       15.109      667.402      840.789      228.295        0.916        0.087      128.664       11.936        0.009      341.264       15.854      862.890
08/12/2013  07:52:00      -55.432      -58.350        1.292       24.331       26.051       17.791      591.996      678.674      316.516        0.403        0.079       80.482       15.987        0.039      341.401       16.088      862.885
08/12/2013  07:53:00      -66.899      -62.448        1.757       41.368       29.600       19.339     1711.307      876.155      373.993        0.567        0.148       91.516       19.213        0.044      341.396       16.079      862.879
08/12/2013  07:54:00      -48.246      -69.577        0.438       38.590       27.158       21.232     1489.162      737.575      450.811        0.492        0.134       84.668       21.102        0.062      341.507       16.268      862.877
08/12/2013  07:55:00      -45.428      -71.446        6.190       44.117       31.044       27.572     1946.340      963.748      760.199        0.544        0.184       84.665       29.068        0.118      341.511       16.275      862.873
08/12/2013  07:56:00      -36.978      -93.197        3.852       28.311       29.180       19.438      801.496      851.484      377.838        0.605        0.102      100.265       16.784        0.028      341.516       16.281      862.866
08/12/2013  07:57:00      -21.458      -92.377        2.279       10.724       13.323        9.419      114.998      177.490       88.725        0.469        0.019       94.837        7.757        0.007      341.520       16.288      862.868
08/12/2013  07:58:00      -43.687      -50.879        7.040       22.217       40.565       17.567      493.607     1645.509      308.600        0.350        0.122       67.061       19.518        0.085      341.610       16.442      862.862
08/12/2013  07:59:00      -26.035      -85.454        1.702       20.118       17.977       13.841      404.732      323.187      191.561        0.445        0.046       89.332        7.669        0.007      341.686       16.572      862.861
08/12/2013  08:00:00      -42.847      -42.818       -1.457       31.902       32.221       18.743     1017.727     1038.186      351.306        0.304        0.120       60.574       12.215        0.041      341.814       16.787      862.862
08/12/2013  08:01:00      -51.216      -42.754        3.204       33.865       20.432       16.520     1146.855      417.476      272.921        0.315        0.092       66.716        7.026        0.011      341.730       16.645      862.869
08/12/2013  08:02:00      -17.269      -46.734       -5.935       26.046       32.052       15.180      678.375     1027.349      230.444        0.223        0.097       49.822       14.698        0.087      341.779       16.730      862.874
08/12/2013  08:03:00      -28.385      -46.451       -3.914       23.516        9.649       11.374      552.985       93.096      129.371        0.188        0.039       54.437        5.713        0.011      341.768       16.711      862.879
08/12/2013  08:04:00       -8.067      -47.302        4.965       11.865       25.790       15.255      140.769      665.113      232.703        0.168        0.052       47.985        8.675        0.033      341.884       16.908      862.890
08/12/2013  08:05:00      -33.830      -36.456       -6.203       22.451       29.008       16.996      504.059      841.450      288.878        0.207        0.082       49.734       12.091        0.059      341.856       16.859      862.905
08/12/2013  08:06:00      -47.328      -11.105       -9.025       14.734       17.040       10.836      217.078      290.374      117.420        0.153        0.031       48.613        3.618        0.006      341.847       16.842      862.913
08/12/2013  08:07:00      -40.337       11.083        0.017        9.277       23.156        7.470       86.057      536.202       55.804        0.121        0.034       41.832        9.442        0.051      341.853       16.852      862.912
08/12/2013  08:08:00      -34.874      -40.652       -2.560       24.442       29.912       14.492      597.427      894.700      210.004        0.229        0.085       53.561       13.341        0.062      341.975       17.060      862.914
08/12/2013  08:09:00      -61.381      -81.463       -7.791       29.236       34.969       26.634      854.721     1222.826      709.387        0.663        0.139      102.000       22.087        0.047      341.906       16.944      862.922
08/12/2013  08:10:00      -75.556      -33.847       15.542       48.531       24.825       20.951     2355.248      616.282      438.963        0.525        0.171       82.791       12.269        0.022      342.004       17.111      862.926
08/12/2013  08:11:00      -58.528      -65.147        1.194       25.087       32.561       19.562      629.368     1060.249      382.654        0.487        0.104       87.577       19.822        0.051      342.018       17.135      862.924
08/12/2013  08:12:00      -37.397      -84.637       -7.708       30.913       34.429       17.639      955.641     1185.379      311.124        0.554        0.123       92.531       17.135        0.034      342.004       17.111      862.917
08/12/2013  08:13:00      -17.450      -28.564       -6.525       16.199       17.456       13.335      262.406      304.723      177.827        0.095        0.037       33.472        9.252        0.076      342.160       17.376      862.914
08/12/2013  08:14:00      -20.918       -4.510        6.345       11.524       12.229       11.890      132.794      149.560      141.378        0.046        0.021       21.398        9.486        0.197      342.430       17.834      862.911
08/12/2013  08:15:00      -12.487      -11.963        7.783       35.379       23.650       23.974     1251.694      559.338      574.769        0.137        0.119       17.293       17.777        1.057      342.512       17.975      862.908
08/12/2013  08:16:00      -22.661       -3.110       15.470       25.917       13.605       13.171      671.710      185.102      173.465        0.090        0.052       22.873        6.136        0.072      342.527       18.000      862.918
08/12/2013  08:17:00      -14.095       -0.965       10.840       21.104       18.635       22.187      445.375      347.271      492.283        0.080        0.064       14.128       13.861        0.962      342.818       18.494      862.918
08/12/2013  08:18:00      -13.181        0.917        5.193       20.572       22.350       28.833      423.218      499.504      831.335        0.098        0.088       13.213       18.431        1.946      342.609       18.139      862.923
08/12/2013  08:19:00       -9.077       -6.080       19.389       19.168       16.054       21.802      367.430      257.728      475.312        0.080        0.055       10.925       12.858        1.385      342.902       18.637      862.920
08/12/2013  08:20:00        2.062       13.660       34.397       23.016       20.469       16.236      529.755      418.970      263.615        0.129        0.061       13.815       10.728        0.603      342.830       18.515      862.916
08/12/2013  08:21:00       18.461       24.884       44.654       30.957       31.458       20.955      958.318      989.613      439.114        0.267        0.119       30.984       14.168        0.209      342.693       18.281      862.921
08/12/2013  08:22:00      -14.981       -2.744       19.873       42.039       28.435       24.804     1767.276      808.543      615.221        0.191        0.160       15.230       25.238        2.746      342.631       18.177      862.928
08/12/2013  08:23:00      -12.802       -0.506       19.340       18.078       19.360       23.116      326.832      374.829      534.360        0.089        0.062       12.812       13.769        1.155      343.048       18.886      862.942
08/12/2013  08:24:00      -26.147       -3.692        8.470       27.352       19.434       20.540      748.143      377.675      421.880        0.116        0.077       26.406       14.611        0.306      342.710       18.310      862.953
08/12/2013  08:25:00      -18.049       -5.709        7.787       27.590       50.651       19.229      761.222     2565.490      369.760        0.206        0.185       18.931        7.988        0.178      342.733       18.349      862.965
08/12/2013  08:26:00       23.092        0.879       26.590       34.249       45.648       34.727     1172.983     2083.767     1205.995        0.285        0.223       23.109       28.284        1.498      342.763       18.401      862.973
08/12/2013  08:27:00       -7.383       33.797       45.780       21.598       35.384       26.159      466.487     1251.997      684.290        0.285        0.120       34.594       24.648        0.508      342.761       18.398      862.980
08/12/2013  08:28:00        5.900      -11.575       12.789       33.860       18.679       26.198     1146.530      348.893      686.361        0.126        0.109       12.992       19.101        2.161      342.584       18.095      862.985
08/12/2013  08:29:00        2.205      -17.921      -14.013       24.756       26.434       14.078      612.853      698.734      198.193        0.102        0.075       18.056       12.534        0.482      342.438       17.848      862.987
08/12/2013  08:30:00      -12.939      -26.076       11.854       30.903       16.997       16.718      955.002      288.897      279.508        0.126        0.076       29.110       16.656        0.327      342.653       18.214      862.981
08/12/2013  08:31:00      -24.667      -26.609       12.276       31.588       33.800       18.136      997.820     1142.437      328.925        0.197        0.123       36.284       21.447        0.349      342.609       18.138      862.970
08/12/2013  08:32:00      -34.719      -85.140        4.871       17.685       17.963       15.020      312.762      322.679      225.602        0.467        0.043       91.947       10.309        0.013      342.441       17.852      862.977
08/12/2013  08:33:00      -17.776      -37.548        3.170       16.622       26.809       13.917      276.286      718.697      193.676        0.146        0.059       41.543       14.396        0.120      342.751       18.382      862.973
08/12/2013  08:34:00       -3.343      -13.095       23.164       22.731       24.150       16.224      516.702      583.204      263.221        0.104        0.068       13.515       15.528        1.320      343.153       19.065      862.972
08/12/2013  08:35:00       -7.110        2.070       24.224       11.807       11.022        9.051      139.396      121.494       81.912        0.049        0.017        7.405        6.009        0.658      343.756       20.093      862.977
08/12/2013  08:36:00       -9.254        3.940       27.177       12.100       10.431       13.436      146.417      108.804      180.516        0.064        0.022       10.058        6.815        0.459      343.812       20.188      862.983
08/12/2013  08:37:00        1.429       -4.950       24.416       15.683       10.207       11.201      245.944      104.178      125.458        0.055        0.024        5.152       11.041        4.593      343.358       19.413      862.987
08/12/2013  08:38:00        0.218      -28.045        6.318       16.879       24.346       20.760      284.893      592.736      430.972        0.107        0.065       28.046       10.244        0.133      342.726       18.337      862.983
08/12/2013  08:39:00       26.478      -47.880        5.767       21.020       36.065       30.249      441.837     1300.690      915.007        0.284        0.133       54.714       24.897        0.207      342.853       18.553      862.980
08/12/2013  08:40:00      -19.676      -29.273      -22.997       21.373       20.266       17.063      456.809      410.724      291.143        0.147        0.058       35.271       12.054        0.117      342.719       18.324      862.984
08/12/2013  08:41:00        7.162      -35.843       -4.757       16.725       22.440       18.587      279.715      503.536      345.494        0.124        0.056       36.551       14.415        0.156      342.637       18.186      862.985
08/12/2013  08:42:00       -9.847      -77.337       -8.386       22.866       18.891       16.130      522.848      356.865      260.193        0.364        0.057       77.962       13.332        0.029      342.684       18.266      862.982
08/12/2013  08:43:00       -9.412      -73.470        4.992       24.576       32.080       20.174      603.961     1029.116      406.985        0.378        0.102       74.070       13.235        0.032      342.793       18.451      862.982
08/12/2013  08:44:00      -38.361      -76.537       -3.860       21.458       15.890       14.578      460.428      252.491      212.527        0.413        0.046       85.613        6.338        0.005      342.690       18.277      862.988
08/12/2013  08:45:00      -32.127      -75.637        7.258       21.412       45.272       18.793      458.471     2049.555      353.161        0.483        0.143       82.177       10.883        0.018      342.801       18.466      862.986
08/12/2013  08:46:00      -31.383      -48.240        5.294       36.131       30.030       20.355     1305.454      901.793      414.335        0.298        0.131       57.550        7.029        0.015      342.904       18.642      862.992
08/12/2013  08:47:00      -96.223      -21.689      -15.437       45.172       31.625       10.140     2040.515     1000.161      102.822        0.656        0.157       98.637        7.291        0.005      342.777       18.426      862.999
08/12/2013  08:48:00        7.583       -5.221       22.552       16.340       15.915       13.706      266.993      253.281      187.867        0.065        0.035        9.207       11.698        1.614      343.696       19.988      862.997
08/12/2013  08:49:00      -22.402       -6.912       15.806       28.723       24.395       28.971      824.990      595.135      839.342        0.153        0.113       23.444       22.556        0.926      343.356       19.410      862.995
08/12/2013  08:50:00      -25.144       64.066       18.265       20.035       34.412       28.839      401.387     1184.200      831.672        0.374        0.121       68.824       28.085        0.167      343.496       19.650      862.993
08/12/2013  08:51:00      -63.852       23.628       -0.817       29.892       24.707       19.251      893.547      610.447      370.593        0.325        0.094       68.083       21.124        0.096      343.073       18.928      862.991
08/12/2013  08:52:00      -59.985       15.203       -4.495       22.875       22.903       17.207      523.286      524.531      296.095        0.260        0.067       61.881       11.278        0.033      343.119       19.007      862.982
08/12/2013  08:53:00      -40.026     -113.437        1.220       27.581       47.462       16.623      760.718     2252.654      276.309        0.888        0.164      120.292       13.341        0.012      342.974       18.759      862.982
08/12/2013  08:54:00      -92.852      -55.732      -12.396       23.651       30.107       18.193      559.387      906.454      330.998        0.684        0.090      108.293       12.858        0.014      343.015       18.830      862.972
08/12/2013  08:55:00      -82.487      -74.566       -9.782       50.266       47.637       18.451     2526.709     2269.327      340.458        0.880        0.257      111.194       18.556        0.028      343.116       19.001      862.961
08/12/2013  08:56:00      -68.326      -72.945        5.479       37.029       43.700       21.878     1371.121     1909.677      478.640        0.689        0.188       99.948       25.054        0.063      343.087       18.952      862.957
08/12/2013  08:57:00      -61.618      -42.087        3.044       47.138       35.578       15.473     2221.972     1265.807      239.420        0.465        0.186       74.619       18.023        0.058      343.113       18.997      862.952
08/12/2013  08:58:00      -43.709     -118.427       -0.931       21.627       19.643       15.938      467.745      385.846      254.017        0.852        0.055      126.235       14.913        0.014      342.991       18.786      862.960
08/12/2013  08:59:00      -70.531      -98.689       -5.731       32.722       42.455       20.932     1070.734     1802.444      438.140        0.903        0.166      121.302       17.080        0.020      343.079       18.939      862.960
08/12/2013  09:00:00      -23.932      -44.734       -8.511       38.325       24.374       17.971     1468.813      594.072      322.971        0.252        0.119       50.733       12.662        0.062      343.161       19.077      862.957
08/12/2013  09:01:00      -40.276        3.643      -15.856       21.183       18.578       19.028      448.739      345.149      362.052        0.152        0.058       40.440       12.873        0.101      343.251       19.231      862.954
08/12/2013  09:02:00       10.851        0.765        5.023       29.956       18.054       24.894      897.357      325.929      619.714        0.099        0.092       10.878       19.974        3.372      343.645       19.904      862.945
08/12/2013  09:03:00      -36.139      -55.897       -5.769       34.305       46.844       15.615     1176.823     2194.319      243.830        0.404        0.181       66.562       12.238        0.034      343.340       19.383      862.939
08/12/2013  09:04:00      -54.406      -72.530        1.413       44.330       34.372       21.474     1965.178     1181.454      461.130        0.591        0.180       90.668       19.180        0.045      343.302       19.319      862.932
08/12/2013  09:05:00      -62.106        0.523        9.064       38.333       28.387       23.113     1469.392      805.810      534.200        0.337        0.140       62.108       25.495        0.169      343.573       19.781      862.913
08/12/2013  09:06:00      -13.467        7.839       24.946       22.098       20.692       21.260      488.322      428.166      451.973        0.112        0.068       15.582       16.154        1.075      343.853       20.258      862.894
08/12/2013  09:07:00       -4.472        8.890       26.461       41.546       38.980       30.484     1726.047     1519.426      929.287        0.249        0.209        9.951       26.235        6.950      343.828       20.215      862.876
08/12/2013  09:08:00      -28.572        1.012       16.355       36.692       11.084       21.210     1346.305      122.855      449.881        0.150        0.096       28.590       21.054        0.542      343.959       20.439      862.863
08/12/2013  09:09:00      -13.490      -43.627       17.459       46.458       40.533       31.154     2158.341     1642.918      970.557        0.358        0.239       45.665       30.303        0.440      343.789       20.148      862.852
08/12/2013  09:10:00       -2.338      -16.970       15.103       43.976       27.107       28.708     1933.848      734.801      824.170        0.201        0.175       17.130       17.751        1.074      343.988       20.490      862.846
08/12/2013  09:11:00      -18.589       -0.498       -7.798       40.640       24.818       30.451     1651.646      615.915      927.276        0.180        0.160       18.596       17.235        0.859      343.816       20.195      862.839
08/12/2013  09:12:00        1.465        3.612      -11.369       55.047       33.772       24.677     3030.176     1140.572      608.964        0.246        0.239        3.897       29.505       57.310      343.409       19.500      862.835
08/12/2013  09:13:00      -19.776      -32.163        0.557       27.005       21.105       19.996      729.295      445.435      399.844        0.150        0.079       37.756       14.894        0.156      343.759       20.097      862.840
08/12/2013  09:14:00      -35.127      -35.397       14.134       50.283       37.903       27.632     2528.361     1436.652      763.525        0.371        0.236       49.869       18.046        0.131      343.794       20.159      862.841
08/12/2013  09:15:00      -91.307      -65.577       -1.191       58.057       44.204       22.791     3370.620     1953.965      519.449        0.924        0.292      112.416       19.596        0.030      343.458       19.585      862.845
08/12/2013  09:16:00      -49.291       11.144        6.103       22.945       24.381       21.787      526.485      594.410      474.670        0.209        0.080       50.535       16.148        0.102      343.671       19.948      862.842
08/12/2013  09:17:00      -26.355      -11.635        6.138       20.687       25.291       20.654      427.963      639.628      426.579        0.118        0.075       28.808       19.192        0.444      343.834       20.225      862.842
08/12/2013  09:18:00      -39.419      -60.018        5.369       33.879       32.643       25.622     1147.762     1065.568      656.482        0.403        0.143       71.805       23.999        0.112      343.622       19.865      862.845
08/12/2013  09:19:00      -12.865      -20.169       -3.638       28.929       23.544       14.464      836.907      554.336      209.200        0.109        0.080       23.923        9.828        0.169      343.554       19.747      862.851
08/12/2013  09:20:00      -23.766      -22.609       13.090       46.658       26.419       25.579     2176.989      697.939      654.283        0.239        0.176       32.802       22.932        0.489      343.929       20.386      862.850
08/12/2013  09:21:00      -41.466      -81.592        9.256       34.259       46.986       25.044     1173.694     2207.720      627.182        0.623        0.200       91.524       18.449        0.041      343.614       19.850      862.854
08/12/2013  09:22:00      -91.076      -50.092       11.272       54.082       39.833       28.007     2924.811     1586.644      784.411        0.811        0.265      103.943       29.357        0.080      343.636       19.887      862.852
08/12/2013  09:23:00      -71.039      -80.714       -6.744       36.727       23.154       19.820     1348.899      536.123      392.850        0.694        0.114      107.523       15.662        0.021      343.493       19.643      862.846
08/12/2013  09:24:00      -69.071        0.900       -9.736       20.688       28.696       13.117      427.977      823.460      172.060        0.314        0.071       69.077       10.277        0.022      343.494       19.643      862.837
08/12/2013  09:25:00      -28.174      -61.285        7.056       24.535       47.727       16.347      601.987     2277.899      267.235        0.387        0.157       67.451       16.781        0.062      343.704       20.003      862.835
08/12/2013  09:26:00      -66.812      -64.902       -5.824       27.159       27.712       16.776      737.594      767.955      281.450        0.525        0.089       93.145       17.481        0.035      343.541       19.725      862.828
08/12/2013  09:27:00      -70.375       -0.694        0.336       17.986       21.552       15.845      323.505      464.470      251.053        0.300        0.052       70.379       13.172        0.035      343.635       19.884      862.826
08/12/2013  09:28:00      -34.098      -21.672        3.243       34.990       28.955       19.485     1224.278      838.381      379.681        0.204        0.122       40.402       13.669        0.114      343.930       20.388      862.818
08/12/2013  09:29:00      -26.172      -72.778        5.123       31.998       26.615       21.296     1023.888      708.374      453.532        0.410        0.109       77.341       19.937        0.066      343.730       20.047      862.811
08/12/2013  09:30:00      -65.806      -60.495       -0.936       50.912       46.008       21.831     2591.990     2116.744      476.583        0.659        0.259       89.387       19.640        0.048      343.844       20.242      862.799
08/12/2013  09:31:00      -89.339      -37.443       -2.546       15.431       27.339        8.112      238.104      747.433       65.803        0.522        0.053       96.868        6.525        0.005      343.654       19.918      862.797
08/12/2013  09:32:00      -67.642       14.344       -0.037       16.604       17.506       10.016      275.685      306.474      100.328        0.273        0.034       69.146        9.011        0.017      343.657       19.924      862.792
08/12/2013  09:33:00      -27.988       10.436       -0.420       22.285       18.257       15.479      496.619      333.314      239.599        0.098        0.053       29.870       13.121        0.193      344.074       20.635      862.783
08/12/2013  09:34:00        7.185      -18.362       17.578       45.728       54.377       37.042     2091.010     2956.806     1372.130        0.356        0.321       19.718       36.175        3.366      344.355       21.115      862.770
08/12/2013  09:35:00      -30.955      -12.983       21.143       34.672       22.056       23.062     1202.130      486.466      531.862        0.190        0.111       33.567       23.156        0.476      344.492       21.351      862.759
08/12/2013  09:36:00        2.404      -45.667       21.889       52.782       50.516       31.497     2785.918     2551.866      992.069        0.445        0.316       45.730       22.575        0.244      344.441       21.262      862.764
08/12/2013  09:37:00       -3.531        5.797       52.446       23.607       45.713       26.205      557.268     2089.686      686.717        0.306        0.167        6.788       15.774        5.400      344.678       21.668      862.756
08/12/2013  09:38:00       -8.429        8.415       12.462       35.035       11.353       18.312     1227.435      128.887      335.314        0.099        0.085       11.910       12.971        1.186      344.431       21.246      862.761
08/12/2013  09:39:00      -26.820       -2.691        6.669       38.095       24.767       25.006     1451.242      613.402      625.276        0.173        0.134       26.954       18.356        0.464      344.632       21.589      862.760
08/12/2013  09:40:00      -67.605      -30.836      -10.760       47.954       39.463       23.832     2299.567     1557.319      567.947        0.503        0.221       74.306       17.134        0.053      344.192       20.838      862.751
08/12/2013  09:41:00      -33.216        8.246       39.019       32.790       38.902       33.911     1075.170     1513.329     1149.979        0.322        0.187       34.225       32.819        0.920      345.016       22.247      862.758
08/12/2013  09:42:00        5.041        3.103       10.873       43.982       32.560       31.838     1934.420     1060.159     1013.630        0.208        0.200        5.919       15.877        7.195      344.446       21.271      862.766
08/12/2013  09:43:00      -10.017       19.232        3.485       23.442       25.538       24.868      549.531      652.183      618.399        0.115        0.091       21.684       18.513        0.729      344.289       21.004      862.757
08/12/2013  09:44:00      -15.553       20.603       29.812       64.576       26.813       33.233     4170.116      718.960     1104.434        0.377        0.300       25.814       29.162        1.276      344.433       21.250      862.756
08/12/2013  09:45:00      -73.499      -10.881        3.778       34.011       36.895       18.473     1156.753     1361.228      341.259        0.420        0.143       74.300       17.776        0.057      344.192       20.836      862.756
08/12/2013  09:46:00      -24.401       10.673       20.120       31.809       28.929       22.547     1011.806      836.909      508.385        0.174        0.118       26.633       20.660        0.602      345.120       22.426      862.756
08/12/2013  09:47:00        3.247       -2.473       24.143       11.840       13.681       11.087      140.191      187.174      122.912        0.052        0.023        4.081        6.492        2.531      345.202       22.565      862.759
08/12/2013  09:48:00      -26.327       -1.007       22.731       27.153       20.585       24.854      737.310      423.729      617.735        0.149        0.089       26.346       16.321        0.384      344.964       22.158      862.755
08/12/2013  09:49:00      -13.745      -40.713        3.198       47.803       23.898       16.304     2285.112      571.124      265.809        0.249        0.156       42.970       13.411        0.097      344.334       21.080      862.751
08/12/2013  09:50:00      -45.552      -25.307       -5.950       33.593       30.621       17.620     1128.520      937.620      310.450        0.256        0.119       52.110       14.535        0.078      344.351       21.108      862.751
08/12/2013  09:51:00      -28.350      -54.681      -16.061       17.321       28.179       19.742      300.017      794.082      389.733        0.277        0.074       61.594       14.547        0.056      344.193       20.838      862.747
08/12/2013  09:52:00     -101.893      -22.190       -3.134       33.537       34.408       26.080     1124.697     1183.880      680.188        0.694        0.149      104.281       24.828        0.057      344.238       20.915      862.745
08/12/2013  09:53:00      -74.894       38.343        5.997       42.141       20.268       24.261     1775.832      410.803      588.614        0.494        0.139       84.139       19.423        0.053      344.406       21.202      862.754
08/12/2013  09:54:00        8.678       10.653       32.736       39.573       30.548       20.818     1566.006      933.199      433.392        0.210        0.147       13.741       21.899        2.540      345.439       22.972      862.752
08/12/2013  09:55:00       31.414        6.169       38.164       37.514       40.664       34.374     1407.275     1653.587     1181.559        0.336        0.212       32.014       27.029        0.713      344.859       21.978      862.753
08/12/2013  09:56:00       10.676      -10.655       48.829       29.674       44.872       32.161      880.521     2013.535     1034.311        0.327        0.196       15.083       20.930        1.925      345.158       22.490      862.749
08/12/2013  09:57:00       32.060      -69.696       19.288       55.628       74.305       44.560     3094.480     5521.247     1985.583        0.843        0.530       76.716       40.423        0.278      345.041       22.289      862.750
08/12/2013  09:58:00       67.533      -69.317       -9.991       46.126       76.358       44.344     2127.602     5830.568     1966.411        0.969        0.496       96.775       38.520        0.158      344.923       22.087      862.761
08/12/2013  09:59:00        0.187      -97.484        9.234       28.995       45.929       26.319      840.704     2109.434      692.701        0.662        0.182       97.484       26.811        0.076      344.513       21.385      862.757
08/12/2013  10:00:00       29.389       49.139       31.638       37.127       24.546       26.862     1378.419      602.513      721.581        0.349        0.135       57.257       23.523        0.169      345.045       22.296      862.758
08/12/2013  10:01:00      100.584       75.199       25.163       52.806       44.763       27.133     2788.424     2003.723      736.200        1.097        0.276      125.587       19.045        0.023      344.577       21.494      862.755
08/12/2013  10:02:00       48.967       -8.477       26.832       45.172       59.796       29.731     2040.497     3575.517      883.943        0.484        0.325       49.695       16.323        0.108      344.827       21.923      862.755
08/12/2013  10:03:00       89.275       52.267       13.885       45.066       41.683       32.849     2030.926     1737.471     1079.029        0.787        0.242      103.450       24.891        0.058      344.897       22.041      862.746
08/12/2013  10:04:00       94.048       35.284       29.031       61.570       34.735       39.110     3790.843     1206.552     1529.570        0.873        0.326      100.449       33.243        0.110      344.960       22.150      862.755
08/12/2013  10:05:00       59.673       24.214       19.218       39.489       39.131       31.903     1559.417     1531.205     1017.810        0.431        0.205       64.398       25.040        0.151      345.118       22.421      862.760
08/12/2013  10:06:00        3.515       22.547       46.729       39.038       49.400       36.380     1523.944     2440.395     1323.496        0.400        0.264       22.819       32.549        2.035      345.328       22.781      862.758
08/12/2013  10:07:00       25.250      -20.459       28.713       52.799       41.216       47.759     2787.735     1698.743     2280.889        0.432        0.338       32.498       36.167        1.239      345.578       23.208      862.755
08/12/2013  10:08:00       29.169       10.048       48.530       53.817       54.362       44.228     2896.262     2955.187     1956.122        0.556        0.390       30.851       35.586        1.330      345.343       22.806      862.756
08/12/2013  10:09:00       37.150       19.444       47.899       48.202       55.387       45.802     2323.399     3067.707     2097.818        0.577        0.374       41.931       43.089        1.056      345.006       22.230      862.762
08/12/2013  10:10:00       18.852       -9.556       32.903       36.488       59.372       50.493     1331.349     3525.057     2549.516        0.447        0.370       21.136       45.296        4.593      345.168       22.505      862.749
08/12/2013  10:11:00       18.334      -54.337        8.943       39.592       50.759       38.854     1567.493     2576.514     1509.619        0.451        0.283       57.347       33.611        0.344      345.175       22.518      862.751
08/12/2013  10:12:00       56.620      -49.483        8.668       51.072       59.403       48.500     2608.302     3528.714     2352.249        0.711        0.424       75.196       45.938        0.373      345.390       22.886      862.744
08/12/2013  10:13:00      -15.094        4.511       28.913       28.554       32.119       22.278      815.356     1031.635      496.321        0.171        0.117       15.753        5.933        0.142      345.642       23.319      862.747
08/12/2013  10:14:00        0.785        5.696       -1.569       25.642       37.815       28.404      657.512     1429.939      806.762        0.146        0.145        5.750       12.786        4.944      345.267       22.677      862.753
08/12/2013  10:15:00      -10.672      -16.533       38.374       26.809       56.398       25.883      718.734     3180.782      669.933        0.321        0.228       19.679       28.370        2.078      345.510       23.093      862.766
08/12/2013  10:16:00      -24.291       -8.721       16.208       24.884       29.545       18.651      619.201      872.927      347.860        0.138        0.092       25.809       10.349        0.161      345.395       22.893      862.775
08/12/2013  10:17:00       30.334      -11.459       21.290       33.977       21.398       25.028     1154.455      457.870      626.413        0.187        0.112       32.427       18.840        0.338      345.445       22.982      862.787
08/12/2013  10:18:00       -3.042       -4.485        3.606       15.765       18.481       18.448      248.540      341.556      340.346        0.049        0.047        5.419       13.820        6.503      345.510       23.092      862.781
08/12/2013  10:19:00       14.579       -9.648       31.190       22.934       26.993       21.713      525.964      728.598      471.444        0.150        0.086       17.482       18.233        1.088      345.512       23.098      862.785
08/12/2013  10:20:00       58.784      -43.569        1.137       50.426       48.302       31.901     2542.779     2333.086     1017.689        0.562        0.295       73.170       31.722        0.188      344.849       21.960      862.774
08/12/2013  10:21:00       45.773      -10.154       21.690       54.321       64.490       34.055     2950.754     4158.960     1159.749        0.547        0.413       46.886       31.421        0.449      345.120       22.425      862.779
08/12/2013  10:22:00       34.564       63.663       71.144       46.799       44.226       36.956     2190.154     1955.983     1365.767        0.791        0.276       72.441       25.497        0.124      345.461       23.007      862.782
08/12/2013  10:23:00       66.708       81.388       55.195       52.620       46.119       55.339     2768.887     2126.972     3062.391        1.104        0.398      105.233       35.201        0.112      344.977       22.181      862.791
08/12/2013  10:24:00       52.487       95.679       77.313       40.859       46.497       32.326     1669.444     2161.978     1044.997        1.138        0.244      109.130       10.343        0.009      344.792       21.863      862.796
08/12/2013  10:25:00       91.686       86.945       37.726       52.016       31.144       42.526     2705.623      969.940     1808.471        1.144        0.274      126.356       38.597        0.093      344.847       21.957      862.808
08/12/2013  10:26:00       78.144       64.634       24.401       46.422       26.513       28.295     2155.009      702.941      800.627        0.727        0.183      101.410       17.876        0.031      345.153       22.482      862.804
08/12/2013  10:27:00       34.732       39.687       39.554       46.542       36.035       26.476     2166.112     1298.551      700.975        0.426        0.208       52.739       19.894        0.142      345.417       22.934      862.790
08/12/2013  10:28:00       41.359       57.281       45.746       34.869       30.234       32.472     1215.832      914.086     1054.454        0.513        0.159       70.651       15.366        0.047      345.130       22.441      862.797
08/12/2013  10:29:00       67.389       44.766        8.576       38.908       33.255       28.384     1513.813     1105.920      805.634        0.502        0.171       80.903       17.954        0.049      344.737       21.769      862.789
08/12/2013  10:30:00        3.781       58.075       -7.197       42.947       26.549       28.975     1844.432      704.829      839.545        0.341        0.169       58.198       25.769        0.196      345.081       22.359      862.788
08/12/2013  10:31:00       43.375       59.052        0.811       35.587       24.880       28.605     1266.448      618.999      818.255        0.404        0.135       73.270       16.695        0.052      345.341       22.802      862.780
08/12/2013  10:32:00        1.085      -15.160        8.713       24.297       24.252       16.984      590.354      588.138      288.444        0.089        0.073       15.199       12.027        0.626      345.724       23.460      862.777
08/12/2013  10:33:00       19.788       -6.074       24.587       27.363       31.032       24.024      748.709      963.005      577.149        0.166        0.114       20.699       24.376        1.387      345.433       22.959      862.776
08/12/2013  10:34:00      115.962       86.566       23.186       58.571       50.091       56.251     3430.620     2509.120     3164.143        1.529        0.455      144.710       25.088        0.030      345.072       22.342      862.758
08/12/2013  10:35:00       95.974       72.422       21.460       62.185       45.145       38.261     3867.015     2038.081     1463.894        1.114        0.368      120.233       21.343        0.032      345.424       22.944      862.749
08/12/2013  10:36:00       18.215      -10.924       23.351       34.670       48.278       39.788     1201.982     2330.731     1583.046        0.306        0.256       21.239       22.943        1.167      345.230       22.612      862.729
08/12/2013  10:37:00       36.418       -7.664        4.679       46.884       34.767       37.883     2198.066     1208.769     1435.094        0.312        0.242       37.215       19.115        0.264      345.073       22.344      862.734
08/12/2013  10:38:00       -0.030       -7.998       11.764       17.785       41.524       29.614      316.324     1724.251      877.005        0.156        0.146        7.998       14.664        3.362      345.324       22.774      862.718
08/12/2013  10:39:00       23.144       17.214       24.179       54.275       29.416       24.629     2945.757      865.320      606.602        0.292        0.221       28.844       21.812        0.572      345.694       23.407      862.714
08/12/2013  10:40:00       83.377       66.757        6.208       48.395       57.036       43.978     2342.103     3253.153     1934.073        0.949        0.376      106.810       36.869        0.119      345.686       23.394      862.703
08/12/2013  10:41:00       86.957       76.883       -1.037       31.450       27.400       33.889      989.129      750.763     1148.464        0.818        0.144      116.071       21.414        0.034      345.336       22.794      862.695
08/12/2013  10:42:00       81.013       75.432       35.260       32.264       29.931       34.163     1040.972      895.876     1167.135        0.830        0.155      110.694       22.352        0.041      345.136       22.451      862.692
08/12/2013  10:43:00       65.431       37.660       -3.135       30.863       40.466       21.810      952.540     1637.502      475.697        0.439        0.153       75.495        8.911        0.014      345.125       22.431      862.689
08/12/2013  10:44:00       60.833      -45.257        3.702       36.798       31.759       36.371     1354.117     1008.653     1322.868        0.472        0.184       75.822       19.212        0.064      345.139       22.456      862.689
08/12/2013  10:45:00       45.161        6.308       29.967       35.616       42.952       36.739     1268.486     1844.892     1349.726        0.372        0.223       45.599       20.314        0.198      345.444       22.979      862.677
08/12/2013  10:46:00       38.415       65.155        3.622       45.128       35.464       39.085     2036.518     1257.666     1527.621        0.528        0.241       75.637       16.658        0.049      345.896       23.757      862.682
08/12/2013  10:47:00       56.622       53.168       10.553       33.230       22.468       30.221     1104.218      504.829      913.296        0.433        0.126       77.672       13.551        0.030      345.850       23.677      862.682
08/12/2013  10:48:00       19.380       45.261       18.526       26.312       40.124       31.468      692.298     1609.926      990.249        0.303        0.165       49.235       28.501        0.335      345.946       23.842      862.691
08/12/2013  10:49:00       28.673       40.148       -5.415       26.298       21.364       26.272      691.569      456.423      690.202        0.215        0.092       49.336       20.417        0.171      345.400       22.903      862.685
08/12/2013  10:50:00      -14.376        6.022        7.964       22.626       29.035       24.522      511.923      843.019      601.343        0.113        0.098       15.586       18.694        1.439      345.918       23.793      862.685
08/12/2013  10:51:00       74.064       71.850       -5.821       36.453       53.612       38.798     1328.835     2874.209     1505.292        0.819        0.285      103.188       30.152        0.085      345.706       23.429      862.675
08/12/2013  10:52:00       65.507       69.797       -4.920       30.975       39.233       33.880      959.471     1539.263     1147.882        0.642        0.182       95.722       19.787        0.043      345.750       23.504      862.678
08/12/2013  10:53:00       -0.629       97.170        5.565       33.962       51.688       37.694     1153.443     2671.686     1420.852        0.736        0.262       97.172       37.042        0.145      345.779       23.552      862.674
08/12/2013  10:54:00      -19.165       94.798        5.050       29.940       42.201       34.327      896.423     1780.940     1178.349        0.662        0.193       96.716       23.229        0.058      346.307       24.461      862.658
08/12/2013  10:55:00       -5.097      117.691        2.970       28.997       43.536       35.064      840.848     1895.369     1229.450        0.893        0.198      117.801       27.036        0.053      346.132       24.160      862.653
08/12/2013  10:56:00      -18.572      110.315        8.084       31.939       46.200       32.643     1020.125     2134.480     1065.590        0.840        0.211      111.867       24.623        0.048      346.252       24.367      862.642
08/12/2013  10:57:00        5.677       34.587       20.061       33.476       51.319       27.902     1120.662     2633.653      778.496        0.308        0.227       35.049       29.275        0.698      347.003       25.660      862.653
08/12/2013  10:58:00       31.373       40.450       16.474       43.620       25.597       25.691     1902.681      655.222      660.018        0.305        0.161       51.191       10.878        0.045      346.443       24.694      862.648
08/12/2013  10:59:00        4.315        4.743       19.848       28.253       21.562       23.583      798.212      464.899      556.170        0.113        0.091        6.412       10.151        2.506      346.657       25.063      862.647
08/12/2013  11:00:00      -40.707       -1.520       13.449       45.369       30.980       21.844     2058.326      959.732      477.179        0.267        0.175       40.735       25.736        0.399      346.135       24.166      862.637
08/12/2013  11:01:00      -81.883      -55.655       -3.757       29.590       24.954       22.114      875.580      622.696      489.015        0.590        0.099       99.007       21.036        0.045      345.608       23.260      862.628
08/12/2013  11:02:00      -39.522      -11.125       -0.902       21.555       28.759       18.090      464.602      827.079      327.234        0.165        0.081       41.058       17.207        0.176      345.731       23.472      862.622
08/12/2013  11:03:00       34.445       20.890       10.958       24.940       26.489       25.134      621.984      701.660      631.726        0.185        0.098       40.285       13.055        0.105      345.980       23.898      862.600
08/12/2013  11:04:00      -12.952       70.625       13.176       19.290       36.008       24.620      372.088     1296.550      606.125        0.380        0.114       71.803       21.848        0.093      346.282       24.418      862.592
08/12/2013  11:05:00       -3.541       90.970        0.405       21.634       43.706       30.620      468.046     1910.217      937.586        0.580        0.166       91.039       28.337        0.097      346.458       24.722      862.581
08/12/2013  11:06:00       61.963       29.841       26.475       42.921       28.032       35.957     1842.227      785.776     1292.913        0.468        0.196       68.774       25.831        0.141      346.276       24.407      862.565
08/12/2013  11:07:00       95.796       53.983        1.468       55.301       46.640       33.914     3058.188     2175.333     1150.155        0.924        0.319      109.959       21.520        0.038      346.086       24.081      862.548
08/12/2013  11:08:00       71.378       74.591      -11.612       31.782       35.375       25.944     1010.083     1251.390      673.096        0.686        0.147      103.241       18.869        0.033      346.011       23.953      862.540
08/12/2013  11:09:00       29.860       30.804       24.832       34.006       28.554       29.008     1156.392      815.331      841.468        0.263        0.141       42.901       26.935        0.394      346.796       25.304      862.527
08/12/2013  11:10:00       36.887      -22.261       27.259       45.958       57.816       49.486     2112.100     3342.639     2448.857        0.525        0.395       43.084       39.558        0.843      346.305       24.458      862.513
08/12/2013  11:11:00       40.919        3.151       56.207       52.960       51.296       44.679     2804.745     2631.247     1996.254        0.614        0.372       41.040       41.103        1.003      346.528       24.842      862.500
08/12/2013  11:12:00       33.400       36.369       88.452       58.108       71.936       52.252     3376.521     5174.815     2730.307        1.077        0.564       49.379       53.280        1.164      346.325       24.490      862.480
08/12/2013  11:13:00       54.196       66.050       93.917       62.939       92.830       62.363     3961.354     8617.427     3889.153        1.629        0.823       85.439       71.968        0.710      346.294       24.438      862.470
08/12/2013  11:14:00       35.340       49.972       75.648       61.206       53.096       46.610     3746.210     2819.161     2172.496        0.910        0.437       61.206       38.178        0.389      346.511       24.810      862.453
08/12/2013  11:15:00        2.252       24.494       64.169       25.958       24.119       18.342      673.806      581.707      336.439        0.316        0.080       24.597       13.958        0.322      347.412       26.363      862.446
08/12/2013  11:16:00        4.858       14.609       30.814       32.716       24.680       24.099     1070.359      609.124      580.783        0.172        0.113       15.396       10.186        0.438      346.811       25.327      862.425
08/12/2013  11:17:00       -3.433        3.047       55.869       23.965       65.990       36.510      574.334     4354.745     1332.953        0.470        0.313        4.590       44.064       92.154      346.716       25.165      862.417
08/12/2013  11:18:00       -7.066      -12.056       31.769       17.281       37.878       25.819      298.635     1434.774      666.618        0.180        0.120       13.974       24.809        3.152      347.012       25.674      862.397
08/12/2013  11:19:00       79.028       75.286        6.900       76.806       60.558       43.992     5899.107     3667.330     1935.259        1.173        0.575      109.149       34.734        0.101      346.459       24.722      862.393
08/12/2013  11:20:00       75.275       19.638       34.925       54.432       49.611       38.886     2962.884     2461.287     1512.100        0.710        0.347       77.794       31.313        0.162      346.643       25.039      862.380
08/12/2013  11:21:00      -30.630       34.465       68.622       41.169       38.400       28.087     1694.910     1474.531      788.906        0.540        0.198       46.109       26.019        0.318      346.974       25.607      862.372
08/12/2013  11:22:00      -16.106       13.161       22.803       32.354       25.605       20.259     1046.772      655.631      410.409        0.153        0.106       20.800       12.377        0.354      347.057       25.751      862.368
08/12/2013  11:23:00       24.727       33.678       26.422       44.085       36.288       29.250     1943.446     1316.835      855.552        0.328        0.206       41.781       25.242        0.365      346.806       25.319      862.359
08/12/2013  11:24:00       49.497       34.097       23.216       43.065       23.650       30.153     1854.584      559.336      909.229        0.374        0.166       60.105       16.686        0.077      346.534       24.852      862.347
08/12/2013  11:25:00        4.285      -42.970        7.069       42.972       51.591       25.290     1846.562     2661.611      639.604        0.353        0.257       43.183       22.444        0.270      346.741       25.206      862.323
08/12/2013  11:26:00       35.695       15.182       20.493       53.960       45.936       34.545     2911.697     2110.107     1193.339        0.407        0.311       38.790       30.176        0.605      347.169       25.945      862.316
08/12/2013  11:27:00      112.723      108.454       29.399       44.628       38.332       33.863     1991.678     1469.367     1146.732        1.497        0.230      156.425       11.802        0.006      346.480       24.759      862.293
08/12/2013  11:28:00      129.818       89.233       42.560       56.122       31.079       44.299     3149.626      965.902     1962.415        1.635        0.304      157.528       19.727        0.016      346.264       24.387      862.290
08/12/2013  11:29:00      180.750      117.945       36.662       76.419       54.629       58.465     5839.934     2984.318     3418.200        3.008        0.612      215.827       31.816        0.022      346.339       24.512      862.270
08/12/2013  11:30:00      175.824      109.326       33.435       70.842       51.833       49.645     5018.527     2686.683     2464.620        2.708        0.508      207.042        9.510        0.002      346.515       24.815      862.254
08/12/2013  11:31:00      153.871      111.412       67.144       96.935       74.494       69.257     9396.468     5549.296     4796.469        3.017        0.987      189.970       43.738        0.053      346.541       24.860      862.250
08/12/2013  11:32:00       94.187       41.763       21.562       85.730       68.843       51.825     7349.593     4739.388     2685.809        1.293        0.739      103.030       44.319        0.185      346.776       25.268      862.256
08/12/2013  11:33:00       84.905     -129.829        3.330       51.139      102.625       49.713     2615.197    10531.856     2471.421        1.984        0.781      155.128       37.971        0.060      346.589       24.942      862.258
08/12/2013  11:34:00       66.298      -42.399       64.414       51.137       81.961       54.410     2615.034     6717.573     2960.405        1.132        0.615       78.696       53.104        0.455      347.004       25.660      862.263
08/12/2013  11:35:00       20.202      -19.722       32.984       26.418       42.182       33.015      697.919     1779.321     1089.965        0.273        0.178       28.232       22.825        0.654      346.885       25.456      862.259
08/12/2013  11:36:00        1.745        1.425       36.848       15.207       25.530       16.396      231.247      651.793      268.821        0.126        0.058        2.253       13.849       37.793      347.434       26.400      862.255
08/12/2013  11:37:00       20.385       28.928       31.392       24.314       22.012       20.482      591.159      484.544      419.514        0.187        0.075       35.389       14.885        0.177      347.077       25.786      862.247
08/12/2013  11:38:00       -1.644       -2.163       35.638       25.707       42.816       18.581      660.828     1833.237      345.267        0.206        0.142        2.717       19.187       49.875      347.378       26.304      862.233
08/12/2013  11:39:00       92.033      -90.724       22.188       81.776      157.166       84.226     6687.352    24701.049     7094.020        2.783        1.924      129.232      101.984        0.623      347.106       25.834      862.217
08/12/2013  11:40:00       90.086      -18.703       44.623       87.890      133.915       92.055     7724.574    17933.338     8474.193        2.229        1.707       92.007       94.614        1.057      347.040       25.720      862.199
08/12/2013  11:41:00       53.107      -45.971       52.517       73.309       89.049       73.072     5374.184     7929.787     5339.524        1.316        0.932       70.240       54.368        0.599      347.192       25.984      862.187
08/12/2013  11:42:00      168.180     -167.896      -45.653       73.072       81.507       44.106     5339.513     6643.399     1945.367        3.624        0.696      237.642       44.245        0.035      346.548       24.871      862.186
08/12/2013  11:43:00       98.960     -100.258      -33.352       61.469       68.078       39.975     3778.398     4634.662     1598.010        1.548        0.501      140.871       43.402        0.095      346.842       25.379      862.194
08/12/2013  11:44:00       19.003       40.747       67.462       44.915       59.668       47.948     2017.353     3560.274     2299.020        0.722        0.394       44.961       51.147        1.294      347.291       26.155      862.187
08/12/2013  11:45:00       11.145      -26.327       43.966       32.903       71.888       40.274     1082.575     5167.931     1621.959        0.531        0.394       28.589       43.270        2.291      347.319       26.201      862.172
08/12/2013  11:46:00       64.643       -1.023       36.504       74.971       50.853       45.000     5620.709     2586.045     2024.992        0.787        0.512       64.651       38.635        0.357      347.206       26.006      862.170
08/12/2013  11:47:00       23.009      -81.674       18.387       44.752       59.438       36.502     2002.705     3532.882     1332.396        0.720        0.343       84.853       23.023        0.074      347.100       25.826      862.151
08/12/2013  11:48:00       55.030      -30.113       37.929       48.163       62.610       35.351     2319.629     3920.004     1249.663        0.643        0.374       62.731       30.070        0.230      347.303       26.175      862.134
08/12/2013  11:49:00      -23.120        6.788       34.262       36.004       56.699       39.086     1296.280     3214.782     1527.706        0.390        0.302       24.096       37.832        2.465      347.351       26.258      862.129
08/12/2013  11:50:00      -87.826      -80.330       -3.118       81.942       53.031       35.489     6714.477     2812.308     1259.475        1.248        0.539      119.023       25.239        0.045      346.800       25.307      862.116
08/12/2013  11:51:00      -74.351      -80.629        2.677       58.584       38.825       38.333     3432.054     1507.376     1469.397        0.922        0.320      109.678       29.170        0.071      346.754       25.230      862.097
08/12/2013  11:52:00      -48.176      -73.339       -4.923       55.838       46.724       34.235     3117.849     2183.170     1172.045        0.710        0.324       87.747       26.969        0.094      346.748       25.219      862.091
08/12/2013  11:53:00      -91.574      -79.467       -6.163       60.004       30.635       28.181     3600.442      938.507      794.196        1.004        0.267      121.246       25.302        0.044      346.577       24.923      862.077
08/12/2013  11:54:00      -64.005      -50.703        1.136       46.428       42.793       25.775     2155.586     1831.228      664.336        0.566        0.233       81.655       28.359        0.121      346.902       25.483      862.054
08/12/2013  11:55:00      -51.071      -59.011        9.371       51.898       42.347       29.721     2693.359     1793.310      883.326        0.577        0.268       78.042       36.547        0.219      346.922       25.519      862.049
08/12/2013  11:56:00      -28.632      -19.726       18.189       48.653       46.734       33.243     2367.144     2184.048     1105.106        0.360        0.283       34.769       34.245        0.970      347.202       26.001      862.036
08/12/2013  11:57:00        4.391      -12.684       26.992       24.732       34.742       28.083      611.688     1206.991      788.639        0.176        0.130       13.423       24.856        3.429      347.817       27.062      862.027
08/12/2013  11:58:00       16.172       13.725       17.392       34.824       22.048       21.295     1212.745      486.106      453.461        0.145        0.108       21.211       14.407        0.461      347.461       26.449      862.008
08/12/2013  11:59:00       18.306       -1.348       16.288       42.861       18.204       20.771     1837.032      331.403      431.416        0.160        0.130       18.356        9.285        0.256      347.474       26.470      862.006
08/12/2013  12:00:00       51.283       20.943       27.561       43.501       36.821       26.862     1892.321     1355.799      721.541        0.390        0.198       55.394       20.648        0.139      347.622       26.725      862.006
08/12/2013  12:01:00       67.238       22.808       19.231       40.263       47.222       31.719     1621.092     2229.959     1006.097        0.513        0.243       71.001       14.401        0.041      347.327       26.217      861.985
08/12/2013  12:02:00      111.456       79.025        7.402       71.175       79.888       45.246     5065.826     6382.159     2047.174        1.611        0.675      136.628       37.169        0.074      347.004       25.658      861.975
08/12/2013  12:03:00        7.891       28.058       10.004       27.904       42.093       35.554      778.625     1771.860     1264.103        0.238        0.191       29.147       26.001        0.796      347.451       26.430      861.979
08/12/2013  12:04:00        9.786       24.024       40.960       25.384       32.269       35.153      644.349     1041.274     1235.750        0.264        0.146       25.941       22.956        0.783      348.049       27.462      861.957
08/12/2013  12:05:00       26.916      -42.209       20.055       43.481       70.188       41.404     1890.619     4926.372     1714.262        0.572        0.427       50.061       47.464        0.899      347.417       26.372      861.956
08/12/2013  12:06:00       60.457       57.085       51.492       62.147       56.464       33.654     3862.244     3188.155     1132.601        0.887        0.409       83.149       26.459        0.101      347.556       26.609      861.943
08/12/2013  12:07:00      115.564       79.322       40.484       29.123       34.311       32.567      848.153     1177.261     1060.598        1.219        0.154      140.168       15.300        0.012      346.949       25.564      861.935
08/12/2013  12:08:00       22.800     -103.891        0.419       49.149       63.312       32.347     2415.651     4008.391     1046.338        0.939        0.374      106.363       21.598        0.041      347.141       25.896      861.923
08/12/2013  12:09:00       -0.807       20.676       66.146       66.009       75.365       44.842     4357.220     5679.868     2010.819        0.842        0.602       20.691       39.607        3.664      347.576       26.645      861.897
08/12/2013  12:10:00        4.998       63.947       92.171       49.630       50.592       37.051     2463.107     2559.501     1372.759        0.950        0.320       64.142       31.540        0.242      347.891       27.189      861.901
08/12/2013  12:11:00      110.988      124.323       82.346       75.181       47.870       55.070     5652.181     2291.528     3032.756        2.276        0.549      166.657       41.838        0.063      347.293       26.156      861.876
08/12/2013  12:12:00       64.991       63.058       55.685       78.421       53.698       41.077     6149.799     2883.517     1687.342        1.101        0.536       90.555       33.080        0.133      347.476       26.473      861.878
08/12/2013  12:13:00       32.733       39.627       59.725       40.433       39.297       30.925     1634.840     1544.290      956.379        0.517        0.207       51.398       17.283        0.113      347.703       26.865      861.884
08/12/2013  12:14:00       31.058       59.598       72.000       46.556       37.634       35.804     2167.475     1416.331     1281.952        0.728        0.243       67.205       23.993        0.127      347.172       25.948      861.887
08/12/2013  12:15:00       72.479       47.034       14.766       22.925       26.334       28.866      525.533      693.495      833.235        0.487        0.103       86.403       19.127        0.049      346.933       25.536      861.854
08/12/2013  12:16:00       59.533       11.809       30.596       45.013       50.512       28.203     2026.147     2551.432      795.421        0.500        0.269       60.693       21.560        0.126      347.421       26.378      861.840
08/12/2013  12:17:00       -5.174      -61.073       24.468       40.689       41.587       41.296     1655.634     1729.507     1705.392        0.472        0.255       61.292       30.319        0.245      347.700       26.861      861.826
08/12/2013  12:18:00      -24.577      -75.297      -10.109       34.787       53.967       27.158     1210.153     2912.439      737.572        0.562        0.243       79.207       20.016        0.064      347.536       26.576      861.804
08/12/2013  12:19:00       25.748      -58.403       38.533       42.901       75.986       43.126     1840.473     5773.938     1859.848        0.751        0.474       63.827       45.192        0.501      347.781       27.001      861.808
08/12/2013  12:20:00      101.300      -98.956       -2.264       72.719      102.795       59.857     5288.057    10566.801     3582.919        1.975        0.972      141.612       70.682        0.249      347.351       26.256      861.785
08/12/2013  12:21:00      118.226     -121.195      -38.347       81.807       90.269       58.947     6692.316     8148.440     3474.752        2.422        0.916      169.309       55.948        0.109      347.227       26.039      861.773
08/12/2013  12:22:00       89.813     -103.520       -9.640       70.448       92.106       71.684     4962.897     8483.560     5138.540        1.873        0.929      137.050       64.897        0.224      347.390       26.324      861.761
08/12/2013  12:23:00       60.091      -56.059       21.872       58.994       87.768       55.734     3480.299     7703.148     3106.279        1.076        0.714       82.180       60.490        0.542      347.413       26.364      861.771
08/12/2013  12:24:00       86.822       56.686       35.603       38.292       38.642       34.721     1466.291     1493.232     1205.529        0.809        0.208      103.688       24.782        0.057      346.788       25.287      861.777
08/12/2013  12:25:00       62.597       70.877       61.747       46.128       33.819       38.583     2127.762     1143.706     1488.659        0.876        0.238       94.562       23.720        0.063      347.109       25.840      861.767
08/12/2013  12:26:00       53.701       68.810        5.135       39.246       27.434       28.120     1540.283      752.623      790.735        0.536        0.154       87.285       16.500        0.036      347.162       25.932      861.754
08/12/2013  12:27:00      -23.052      115.281       -7.253       18.254       49.389       25.636      333.226     2439.278      657.181        0.865        0.171      117.563       21.823        0.034      347.414       26.366      861.751
08/12/2013  12:28:00      -24.427      154.662      -31.028       22.147       49.814       22.876      490.471     2481.427      523.309        1.449        0.175      156.579       19.098        0.015      346.989       25.634      861.743
08/12/2013  12:29:00        2.813       27.666       23.110       27.638       29.488       26.835      763.862      869.570      720.091        0.183        0.118       27.809       12.990        0.218      348.185       27.697      861.736
08/12/2013  12:30:00       30.412       44.937      -14.605       37.215       30.417       17.601     1384.948      925.209      309.800        0.289        0.131       54.261       16.217        0.089      347.825       27.075      861.733
08/12/2013  12:31:00       82.475       51.342       11.755       56.831       41.899       37.584     3229.732     1755.530     1412.530        0.799        0.320       97.150       26.236        0.073      347.628       26.737      861.722
08/12/2013  12:32:00       38.241       59.216       53.207       60.347       56.706       34.365     3641.815     3215.623     1180.968        0.792        0.402       70.491       21.034        0.089      348.152       27.640      861.702
08/12/2013  12:33:00       43.060      -63.236        1.270       51.941       71.152       39.622     2697.879     5062.548     1569.919        0.759        0.467       76.505       34.876        0.208      347.818       27.064      861.699
08/12/2013  12:34:00      -28.797       -8.989       35.069       47.783       49.897       38.909     2283.222     2489.744     1513.879        0.421        0.314       30.167       29.611        0.963      347.912       27.224      861.697
08/12/2013  12:35:00       72.147     -131.037      -10.369       96.397       64.750       62.854     9292.289     4192.590     3950.583        1.996        0.872      149.586       67.947        0.206      347.680       26.822      861.694
08/12/2013  12:36:00       59.236      -62.962       -0.149       58.703       49.231       53.599     3446.035     2423.648     2872.860        0.811        0.437       86.448       45.801        0.281      347.571       26.637      861.703
08/12/2013  12:37:00       10.789       29.367       63.899       41.117       58.858       33.116     1690.619     3464.303     1096.668        0.566        0.313       31.286       35.847        1.313      347.954       27.299      861.687
08/12/2013  12:38:00       20.288      -75.787        6.961       59.583       74.951       37.653     3550.174     5617.690     1417.727        0.839        0.529       78.455       45.199        0.332      347.434       26.401      861.677
08/12/2013  12:39:00       22.654       48.040       39.923       38.404       35.507       39.157     1474.848     1260.727     1533.307        0.434        0.213       53.113       29.560        0.310      347.710       26.877      861.673
08/12/2013  12:40:00       35.011       65.596       -1.026       45.359       81.237       36.650     2057.470     6599.381     1343.205        0.776        0.500       74.354       34.115        0.211      347.609       26.704      861.656
08/12/2013  12:41:00       48.121       45.590        3.509       67.902       63.478       41.203     4610.678     4029.477     1697.679        0.737        0.517       66.288       30.295        0.209      347.773       26.985      861.656
08/12/2013  12:42:00      130.756      158.849       -7.850       91.496      100.344       51.162     8371.492    10069.003     2617.586        3.172        1.053      205.743       56.819        0.076      347.373       26.293      861.637
08/12/2013  12:43:00       37.857       65.033       19.876       72.293       56.899       47.304     5226.328     3237.543     2237.672        0.838        0.535       75.249       39.323        0.273      347.789       27.013      861.627
08/12/2013  12:44:00      -36.732      141.588       -6.938       44.124       60.441       36.484     1946.925     3653.071     1331.102        1.419        0.347      146.275       27.937        0.036      347.842       27.104      861.638
08/12/2013  12:45:00      -42.306      121.696       -0.363       40.579       52.921       35.264     1646.634     2800.653     1243.532        1.114        0.285      128.840       31.963        0.062      347.839       27.099      861.633
08/12/2013  12:46:00      -49.762      122.574        5.573       35.479       55.698       40.204     1258.728     3102.264     1616.378        1.175        0.299      132.290       33.465        0.064      348.000       27.377      861.620
08/12/2013  12:47:00       35.571       70.219        8.707       58.854       54.243       33.405     3463.794     2942.309     1115.885        0.690        0.376       78.715       26.828        0.116      348.066       27.492      861.612
08/12/2013  12:48:00       31.736       71.155       80.589       52.755       56.142       39.959     2783.136     3151.966     1596.686        1.005        0.377       77.912       31.098        0.159      348.133       27.607      861.597
08/12/2013  12:49:00      114.940       91.777       42.273       77.071       43.534       41.567     5939.948     1895.176     1727.833        1.649        0.478      147.085       32.107        0.048      347.440       26.408      861.592
08/12/2013  12:50:00       77.329       37.448       17.407       37.777       50.050       44.359     1427.109     2505.007     1967.744        0.679        0.295       85.920       19.854        0.053      347.431       26.395      861.588
08/12/2013  12:51:00      144.349       85.528       28.705       82.025       45.991       41.574     6728.058     2115.187     1728.426        1.977        0.529      167.784       38.215        0.052      347.623       26.725      861.565
08/12/2013  12:52:00      178.112      104.735       33.929       66.276       62.656       56.274     4392.523     3925.808     3166.766        2.766        0.574      206.624       35.903        0.030      347.944       27.276      861.548
08/12/2013  12:53:00      110.066       63.970       41.447       97.585       80.165       65.870     9522.908     6426.355     4338.801        1.910        1.014      127.306       60.447        0.225      347.955       27.297      861.539
08/12/2013  12:54:00      102.748       63.780       94.523       76.052       76.059       62.541     5783.936     5784.981     3911.393        1.952        0.774      120.934       52.730        0.190      347.436       26.402      861.551
08/12/2013  12:55:00       63.459       14.046       35.804       62.427       42.370       35.871     3897.112     1795.236     1286.748        0.624        0.349       64.995       20.536        0.100      347.479       26.478      861.549
08/12/2013  12:56:00      -13.195       40.002      -19.127       36.437       24.173       20.260     1327.662      584.320      410.455        0.223        0.116       42.123       14.357        0.116      347.463       26.451      861.529
08/12/2013  12:57:00       14.245        5.731       15.131       21.609       19.827       18.961      466.949      393.127      359.508        0.084        0.061       15.355       10.630        0.479      348.263       27.831      861.495
08/12/2013  12:58:00       38.020       27.507       16.150       24.046       24.404       22.229      578.229      595.551      494.142        0.207        0.083       46.927       14.336        0.093      348.001       27.378      861.484
08/12/2013  12:59:00       54.684       47.540        8.524       49.481       43.386       32.013     2448.378     1882.370     1024.863        0.534        0.268       72.459       16.009        0.049      347.969       27.323      861.483
08/12/2013  13:00:00       46.426       50.835       30.845       40.630       42.112       41.806     1650.823     1773.403     1747.764        0.543        0.259       68.844       26.995        0.154      347.676       26.819      861.473
08/12/2013  13:01:00       58.629       63.431        6.204       28.552       34.527       25.871      815.226     1192.138      669.324        0.509        0.134       86.376       24.091        0.078      347.699       26.857      861.473
08/12/2013  13:02:00       -7.413       60.286       12.602       36.506       47.207       35.239     1332.715     2228.521     1241.758        0.432        0.240       60.740       31.230        0.264      347.941       27.276      861.475
08/12/2013  13:03:00      -68.319      -16.652       -8.003       35.262       15.952       27.776     1243.409      254.477      771.514        0.364        0.113       70.319       27.083        0.148      347.696       26.854      861.468
08/12/2013  13:04:00     -124.852       43.243      -12.446       50.882       55.076       29.273     2589.011     3033.390      856.924        1.205        0.324      132.129       29.987        0.052      347.558       26.613      861.458
08/12/2013  13:05:00      -54.492       72.714       10.744       51.619       50.556       41.761     2664.553     2555.948     1743.983        0.767        0.348       90.867       39.615        0.190      348.073       27.506      861.453
08/12/2013  13:06:00      -50.531       51.869      -26.365       28.034       37.336       23.235      785.900     1393.965      539.877        0.433        0.136       72.414       11.785        0.026      347.494       26.502      861.440
08/12/2013  13:07:00      -37.923        1.611       14.945       35.087       29.582       27.117     1231.109      875.122      735.336        0.225        0.142       37.957       24.477        0.416      347.969       27.324      861.428
08/12/2013  13:08:00       13.634       22.955       26.437       26.810       49.751       29.458      718.774     2475.156      867.763        0.274        0.203       26.699       30.291        1.287      348.563       28.350      861.403
08/12/2013  13:09:00      -10.424       69.701        7.937       70.647       47.033       34.842     4991.043     2212.076     1213.983        0.672        0.421       70.476       31.065        0.194      348.074       27.504      861.380
08/12/2013  13:10:00      -73.581      102.416       -4.534       45.078       53.974       40.038     2032.034     2913.168     1603.064        1.123        0.327      126.108       35.484        0.079      348.106       27.560      861.374
08/12/2013  13:11:00      -86.623      123.654      -19.629       37.411       40.665       31.588     1399.548     1653.640      997.788        1.361        0.203      150.977       24.490        0.026      347.862       27.140      861.360
08/12/2013  13:12:00      -84.352       34.420      -11.014       40.185       41.201       19.933     1614.865     1697.508      397.331        0.606        0.185       91.104        9.492        0.011      347.899       27.202      861.343
08/12/2013  13:13:00      -49.012       48.170      -10.339       49.402       50.356       31.897     2440.541     2535.743     1017.393        0.541        0.300       68.720       26.913        0.153      348.164       27.660      861.323
08/12/2013  13:14:00      -21.462      130.193        2.402       54.189       75.287       44.614     2936.456     5668.122     1990.420        1.400        0.530      131.950       34.685        0.069      348.456       28.165      861.317
08/12/2013  13:15:00      -70.701      111.640      -10.199       34.458       47.319       33.621     1187.343     2239.123     1130.368        1.106        0.228      132.144       26.598        0.041      348.135       27.612      861.328
08/12/2013  13:16:00     -104.560       38.735       -9.196       35.072       41.595       23.791     1230.062     1730.145      566.006        0.802        0.176      111.505       16.218        0.021      347.933       27.262      861.304
08/12/2013  13:17:00      -17.033       82.613       12.486       81.307       61.045       36.936     6610.866     3726.441     1364.285        0.948        0.585       84.350       44.649        0.280      348.550       28.328      861.296
08/12/2013  13:18:00       -0.654       61.974       13.285       42.200       65.901       38.718     1780.832     4342.957     1499.054        0.582        0.381       61.978       37.478        0.366      348.738       28.654      861.283
08/12/2013  13:19:00      -64.943      105.794       -4.207       92.250       66.842       46.240     8509.984     4467.863     2138.176        1.527        0.756      124.137       26.131        0.044      347.955       27.301      861.272
08/12/2013  13:20:00       -2.224       41.849       28.404       46.276       43.032       35.145     2141.453     1851.731     1235.170        0.389        0.261       41.908       32.807        0.613      348.520       28.278      861.274
08/12/2013  13:21:00      -23.715        7.636        5.390       37.707       26.366       17.602     1421.824      695.164      309.848        0.154        0.121       24.914       14.771        0.352      348.343       27.971      861.241
08/12/2013  13:22:00      -94.360      -20.577        6.400       52.667       54.221       28.464     2773.830     2939.959      810.198        0.794        0.326       96.577       28.624        0.088      348.301       27.896      861.227
08/12/2013  13:23:00     -217.571        8.698      -21.598      110.418       80.274       42.635    12192.211     6443.858     1817.742        3.416        1.023      217.745       59.154        0.074      347.996       27.369      861.212
08/12/2013  13:24:00     -181.583      -95.485      -22.181       70.367       40.982       30.593     4951.466     1679.503      935.916        2.507        0.378      205.158       21.925        0.011      347.827       27.077      861.209
08/12/2013  13:25:00      -81.740      -30.358        1.708       29.957       31.986       19.795      897.428     1023.111      391.856        0.496        0.116       87.195       16.135        0.034      347.805       27.041      861.217
08/12/2013  13:26:00       -7.470      -39.479        3.296       22.411       27.303       18.787      502.265      745.441      352.948        0.161        0.080       40.179       18.588        0.214      347.904       27.212      861.205
08/12/2013  13:27:00      -10.453       11.534       28.175       26.158       23.550       13.971      684.266      554.580      195.175        0.123        0.072       15.566       13.382        0.739      348.959       29.037      861.193
08/12/2013  13:28:00        8.115      120.887       -2.003       43.894       97.609       41.377     1926.698     9527.488     1712.097        1.392        0.658      121.159       47.791        0.156      348.481       28.207      861.175
08/12/2013  13:29:00       27.483      124.121       -1.339       67.168       85.904       48.318     4511.479     7379.424     2334.666        1.519        0.711      127.127       43.107        0.115      348.448       28.151      861.160
08/12/2013  13:30:00        7.949       11.199       22.880       39.529       36.063       31.904     1562.516     1300.544     1017.862        0.230        0.194       13.734       19.064        1.927      348.637       28.478      861.161
08/12/2013  13:31:00       28.952      116.188       -6.297       37.179       62.254       40.502     1382.251     3875.615     1640.381        1.064        0.345      119.740       39.914        0.111      348.337       27.960      861.147
08/12/2013  13:32:00      -35.185      183.989      -16.972       72.591       58.902       42.677     5269.432     3469.481     1821.352        2.297        0.528      187.323       36.514        0.038      348.201       27.723      861.156
08/12/2013  13:33:00       43.393      118.147        7.728       73.635      101.424       56.685     5422.121    10286.790     3213.228        1.741        0.946      125.864       66.320        0.278      348.397       28.064      861.149
08/12/2013  13:34:00       68.502       97.469       17.424       77.791       63.832       49.917     6051.397     4074.520     2491.742        1.355        0.631      119.133       40.541        0.116      348.242       27.794      861.143
08/12/2013  13:35:00       58.727      230.059      -29.311       60.919      102.031       54.369     3711.180    10410.302     2956.030        3.715        0.854      237.436       52.863        0.050      348.075       27.503      861.128
08/12/2013  13:36:00       42.480      250.982      -42.431       46.708       74.158       36.409     2181.603     5499.370     1325.644        3.780        0.450      254.551       35.224        0.019      347.928       27.248      861.121
08/12/2013  13:37:00       85.551       82.920       16.512       59.200       69.804       45.201     3504.615     4872.544     2043.115        1.244        0.521      119.141       32.766        0.076      348.205       27.732      861.133
08/12/2013  13:38:00       25.877       79.923       13.459       61.586       68.682       48.048     3792.792     4717.192     2308.628        0.903        0.541       84.008       43.368        0.267      348.386       28.044      861.104
08/12/2013  13:39:00       34.257      154.518       -9.587       39.737       98.097       45.716     1579.016     9622.940     2089.949        1.921        0.665      158.270       46.713        0.087      348.104       27.555      861.105
08/12/2013  13:40:00       29.187       17.542      -10.391       22.184       67.449       17.472      492.127     4549.318      305.259        0.331        0.267       34.053       18.194        0.285      347.905       27.214      861.102
08/12/2013  13:41:00       18.697       -3.483       14.425       27.532       43.404       25.146      758.036     1883.870      632.335        0.192        0.164       19.018       28.317        2.217      348.233       27.779      861.079
08/12/2013  13:42:00       27.170       80.136        0.986       51.170       77.548       32.877     2618.325     6013.726     1080.884        0.844        0.486       84.617       33.404        0.156      348.189       27.702      861.065
08/12/2013  13:43:00      -11.003      120.003      -14.905       21.597       71.765       29.395      466.421     5150.284      864.048        1.061        0.324      120.506       35.742        0.088      348.255       27.818      861.055
08/12/2013  13:44:00      -38.671      136.212      -13.437       34.748       49.278       30.753     1207.450     2428.346      945.737        1.240        0.229      141.595       27.992        0.039      348.190       27.705      861.035
08/12/2013  13:45:00      -18.958       80.253        1.518       19.442       48.528       32.035      377.979     2354.925     1026.217        0.528        0.188       82.462       27.083        0.108      348.537       28.307      861.031
08/12/2013  13:46:00      -28.781       67.264        0.100       31.837       29.960       24.921     1013.597      897.615      621.035        0.394        0.127       73.163       22.717        0.096      348.467       28.184      861.029
08/12/2013  13:47:00      -27.676       48.058       -8.085       41.785       27.012       35.819     1745.973      729.665     1282.989        0.345        0.188       55.458       31.852        0.330      348.451       28.156      861.014
08/12/2013  13:48:00      -16.988       99.758       10.649       33.312       85.510       34.491     1109.717     7312.013     1189.642        0.998        0.481      101.194       40.879        0.163      348.782       28.730      860.994
08/12/2013  13:49:00      -20.075      141.524       -6.034       49.782       65.009       29.133     2478.227     4226.181      848.750        1.401        0.378      142.940       26.549        0.034      348.618       28.445      860.986
08/12/2013  13:50:00       -8.406       25.358       16.539       30.000       40.054       27.432      899.994     1604.316      752.518        0.212        0.163       26.715       17.916        0.450      349.116       29.307      860.972
08/12/2013  13:51:00        3.854      -59.997       11.497       27.470       50.872       31.884      754.611     2587.985     1016.574        0.405        0.218       60.120       34.656        0.332      348.365       28.010      860.971
08/12/2013  13:52:00       -9.235      -31.812        9.635       32.573       28.641       21.614     1061.001      820.312      467.152        0.177        0.117       33.125        6.554        0.039      348.244       27.798      860.967
08/12/2013  13:53:00      -12.262     -138.450      -10.976       65.685       74.444       22.604     4314.481     5541.959      510.943        1.490        0.518      138.992       15.363        0.012      348.144       27.624      860.964
08/12/2013  13:54:00     -110.736     -142.174       -2.063      101.665       95.924       48.801    10335.727     9201.451     2381.514        2.720        1.096      180.211       51.065        0.080      348.390       28.048      860.955
08/12/2013  13:55:00      -22.407      -10.414       33.413       50.712       44.264       24.154     2571.707     1959.287      583.407        0.342        0.256       24.709       25.193        1.040      349.239       29.522      860.964
08/12/2013  13:56:00      -18.396      -42.979        4.503       38.571       52.561       26.847     1487.755     2762.701      720.751        0.359        0.249       46.750       32.192        0.474      348.990       29.092      860.951
08/12/2013  13:57:00        0.016      -45.691        6.661       68.583       72.020       46.267     4703.671     5186.940     2140.631        0.708        0.602       45.691       34.544        0.572      348.499       28.239      860.937
08/12/2013  13:58:00       44.980      -16.386       54.603       78.855      125.715       69.879     6218.057    15804.231     4883.054        1.608        1.345       47.871       91.983        3.692      348.492       28.226      860.923
08/12/2013  13:59:00       78.213     -123.980      -46.831       71.944       75.142       50.597     5175.900     5646.352     2560.020        1.853        0.669      146.589       50.218        0.117      348.377       28.026      860.895
08/12/2013  14:00:00       97.921     -147.544      -22.527       75.874      121.711       67.610     5756.845    14813.564     4571.177        2.850        1.257      177.081       68.450        0.149      348.505       28.248      860.886
08/12/2013  14:01:00       -2.584     -129.534      -21.523       68.502       86.067       56.230     4692.578     7407.573     3161.827        1.625        0.763      129.560       57.076        0.194      348.659       28.516      860.910
08/12/2013  14:02:00       13.709       26.548       46.450       30.038       31.123       34.142      902.307      968.619     1165.679        0.304        0.152       29.879       20.031        0.449      348.746       28.666      860.894
08/12/2013  14:03:00       53.076      -76.511       -8.024       37.811       67.260       36.835     1429.695     4523.892     1356.834        0.802        0.366       93.118       28.662        0.095      348.240       27.791      860.885
08/12/2013  14:04:00       24.555      -21.794       27.232       41.090       54.334       33.713     1688.361     2952.204     1136.581        0.380        0.289       32.832       26.689        0.661      348.604       28.423      860.880
08/12/2013  14:05:00       23.721       27.511       42.017       41.590       57.075       33.756     1729.701     3257.567     1139.449        0.460        0.306       36.326       35.603        0.961      348.364       28.007      860.861
08/12/2013  14:06:00      -51.196       14.048       31.353       74.600       38.771       34.151     5565.199     1503.179     1166.298        0.602        0.412       53.088       33.691        0.403      349.111       29.299      860.854
08/12/2013  14:07:00      -11.424     -113.765        8.131       51.436       98.526       28.075     2645.678     9707.390      788.187        1.314        0.657      114.337       22.841        0.040      348.745       28.664      860.869
08/12/2013  14:08:00      -39.686     -152.068       -4.236       84.204       80.391       43.829     7090.317     6462.743     1920.965        2.009        0.774      157.161       28.822        0.034      348.469       28.184      860.875
08/12/2013  14:09:00       49.194      -38.192       35.503       48.873      109.145       51.778     2388.528    11912.595     2680.927        1.106        0.849       62.279       66.848        1.152      348.617       28.442      860.859
08/12/2013  14:10:00        8.530      110.952      136.342       50.263       75.707       55.381     2526.398     5731.560     3067.026        2.115        0.566      111.280       55.672        0.250      348.388       28.047      860.798
08/12/2013  14:11:00      127.283       40.475       52.120      104.130       96.043       68.452    10843.091     9224.198     4685.682        2.265        1.238      133.563       53.244        0.159      348.482       28.207      860.773
08/12/2013  14:12:00      121.332       85.464       72.158      101.548       76.699       58.774    10312.022     5882.758     3454.417        2.344        0.982      148.410       52.591        0.126      348.453       28.158      860.756
08/12/2013  14:13:00      -65.519      -24.542       23.968       81.874       72.951       44.122     6703.322     5321.843     1946.777        0.972        0.699       69.965       52.404        0.561      349.034       29.166      860.780
08/12/2013  14:14:00     -144.190     -132.537        2.051       86.168       68.947       46.302     7424.902     4753.732     2143.833        2.634        0.716      195.849       42.840        0.048      348.704       28.591      860.787
08/12/2013  14:15:00     -216.476      -94.986      -15.156       47.677       56.298       30.580     2273.139     3169.498      935.135        3.124        0.319      236.398       27.003        0.013      348.298       27.889      860.796
08/12/2013  14:16:00     -264.870      -38.874      -12.275      102.974       64.293       38.466    10603.686     4133.602     1479.608        4.401        0.811      267.708       40.363        0.023      348.668       28.529      860.786
08/12/2013  14:17:00     -164.769       -9.146        3.548      124.734      103.903       47.993    15558.500    10795.759     2303.375        2.795        1.433      165.022       48.910        0.088      348.856       28.856      860.805
08/12/2013  14:18:00      -30.992       23.471       18.873       49.382       29.980       43.825     2438.595      898.820     1920.605        0.356        0.263       38.877       27.350        0.495      348.901       28.935      860.805
08/12/2013  14:19:00        0.933       47.082       20.091       24.322       39.301       30.782      591.559     1544.591      947.503        0.285        0.154       47.091       25.925        0.303      349.141       29.351      860.773
08/12/2013  14:20:00       47.086       89.750       -4.372       54.201       56.276       42.674     2937.736     3167.043     1821.050        0.911        0.396      101.351       38.417        0.144      348.837       28.825      860.748
08/12/2013  14:21:00       40.754      107.739       -5.318       64.474       79.100       30.806     4156.908     6256.817      949.008        1.233        0.568      115.189       29.484        0.066      348.778       28.721      860.745
08/12/2013  14:22:00      -77.987      131.793      -17.036       53.909       65.119       40.191     2906.168     4240.515     1615.349        1.625        0.438      153.138       30.018        0.038      348.677       28.548      860.746
08/12/2013  14:23:00     -103.615       25.656      -22.461       44.071       29.977       19.470     1942.291      898.623      379.090        0.756        0.161      106.744       10.132        0.009      348.526       28.287      860.769
08/12/2013  14:24:00     -102.799      -10.348      -26.639       19.960       25.328       17.206      398.413      641.529      296.057        0.636        0.067      103.319        8.142        0.006      348.508       28.255      860.772
08/12/2013  14:25:00     -103.427     -163.423       -0.515       81.043       75.769       39.160     6567.926     5740.981     1533.532        2.562        0.692      193.401       33.964        0.031      348.644       28.487      860.787
08/12/2013  14:26:00       -4.274      -56.196       20.829       40.913       80.677       32.823     1673.860     6508.841     1077.354        0.643        0.463       56.358       38.042        0.456      348.933       28.990      860.768
08/12/2013  14:27:00      -78.912     -154.006      -23.866       74.653      101.212       37.850     5573.065    10243.818     1432.640        2.388        0.862      173.047       25.568        0.022      348.795       28.749      860.775
08/12/2013  14:28:00      -63.535     -101.319       -4.039       43.882       69.598       31.384     1925.601     4843.923      984.926        1.104        0.388      119.592       24.461        0.042      348.589       28.394      860.775
08/12/2013  14:29:00      -43.097       10.457       15.750       39.606       38.785       22.845     1568.612     1504.309      521.881        0.290        0.180       44.347       16.995        0.147      349.015       29.133      860.744
08/12/2013  14:30:00      -47.026      -22.658       -2.834       56.757       71.395       33.710     3221.315     5097.228     1136.369        0.609        0.473       52.200       33.125        0.403      348.809       28.777      860.726
08/12/2013  14:31:00     -126.105      -61.666        3.884       54.038       53.236       29.574     2920.139     2834.069      874.613        1.317        0.331      140.375       30.206        0.046      348.797       28.755      860.708
08/12/2013  14:32:00     -165.313      -31.666      -15.008       53.248       41.907       29.648     2835.385     1756.228      878.993        1.701        0.274      168.319       28.305        0.028      348.710       28.603      860.702
08/12/2013  14:33:00     -195.842      -57.843      -17.385       51.591       61.206       35.339     2661.657     3746.128     1248.865        2.483        0.383      204.206       31.383        0.024      348.605       28.421      860.699
08/12/2013  14:34:00      -83.036      -38.345       -7.882       49.789       37.268       20.920     2478.969     1388.934      437.627        0.637        0.215       91.462       29.638        0.105      348.556       28.338      860.687
08/12/2013  14:35:00     -125.004      -43.942       -2.059       84.294       74.895       32.767     7105.454     5609.293     1073.679        1.567        0.689      132.503       29.687        0.050      348.996       29.098      860.664
08/12/2013  14:36:00     -176.794     -113.680       -0.718       77.032       62.549       39.726     5933.891     3912.350     1578.183        2.780        0.571      210.189       32.089        0.023      348.742       28.656      860.664
08/12/2013  14:37:00      -94.892      -12.386      -33.271       63.655       62.193       36.934     4051.944     3868.020     1364.107        0.977        0.464       95.697       32.893        0.118      348.642       28.486      860.670
08/12/2013  14:38:00       48.462       62.370       13.409       36.255       38.146       28.864     1314.459     1455.119      833.137        0.501        0.180       78.984       16.315        0.043      348.841       28.831      860.655
08/12/2013  14:39:00       83.997       26.010        5.458       36.547       28.088       29.329     1335.695      788.956      860.216        0.537        0.149       87.932       14.558        0.027      348.157       27.649      860.648
08/12/2013  14:40:00       32.236        0.871        1.611       22.476       22.459       24.561      505.182      504.417      603.250        0.133        0.081       32.248       11.237        0.121      348.381       28.037      860.638
08/12/2013  14:41:00       18.042       13.314       41.469       32.328       36.810       31.077     1045.068     1355.002      965.798        0.279        0.168       22.423       25.759        1.320      348.641       28.486      860.633
08/12/2013  14:42:00       31.893      -24.654       33.836       26.958       40.590       27.687      726.728     1647.547      766.586        0.295        0.157       40.311       23.268        0.333      348.893       28.921      860.629
08/12/2013  14:43:00       19.425       27.948       48.292       26.343       20.666       17.104      693.943      427.089      292.544        0.245        0.071       34.036        9.928        0.085      348.648       28.497      860.613
08/12/2013  14:44:00     -100.025       -5.603        2.090       68.544       45.414       30.710     4698.248     2062.404      943.106        0.887        0.385      100.182       30.872        0.095      349.351       29.717      860.607
08/12/2013  14:45:00     -264.494      -77.925        0.178      116.080       93.781       58.093    13474.620     8794.831     3374.810        5.083        1.282      275.734       57.316        0.043      349.081       29.244      860.594
08/12/2013  14:46:00     -309.040      -49.451      -18.185       86.221       99.636       38.878     7434.044     9927.423     1511.464        5.857        0.944      312.971       24.601        0.006      348.564       28.347      860.588
08/12/2013  14:47:00     -140.085     -113.110       -1.924      132.251       91.180       62.823    17490.249     8313.836     3946.788        3.108        1.488      180.049       78.609        0.191      348.778       28.721      860.578
08/12/2013  14:48:00      -32.180      -57.190       22.660      104.274       59.697       51.095    10872.976     3563.730     2610.714        1.093        0.852       65.622       59.258        0.815      349.105       29.289      860.573
08/12/2013  14:49:00       18.588      -18.258       23.827       55.243       78.031       43.341     3051.796     6088.890     1878.446        0.613        0.551       26.055       30.966        1.413      349.153       29.372      860.567
08/12/2013  14:50:00      -93.763      -27.216       21.501       80.665       71.239       50.398     6506.794     5074.963     2539.954        1.206        0.706       97.633       51.048        0.273      349.123       29.319      860.574
08/12/2013  14:51:00      -87.213      -20.519       -0.230       73.560       74.747       37.217     5411.127     5587.166     1385.118        1.020        0.619       89.594       38.938        0.189      348.777       28.720      860.578
08/12/2013  14:52:00      -27.035       14.130       21.006       82.236       58.199       36.357     6762.822     3387.142     1321.854        0.642        0.574       30.505       39.189        1.650      348.770       28.708      860.575
08/12/2013  14:53:00       -4.639        2.870       16.588       54.310       39.848       33.445     2949.589     1587.862     1118.566        0.298        0.283        5.455       27.960       26.273      348.730       28.639      860.606
08/12/2013  14:54:00      -96.252     -175.747        5.252       87.238       70.412       36.337     7610.388     4957.864     1320.376        2.703        0.694      200.378       37.555        0.035      348.734       28.644      860.619
08/12/2013  14:55:00     -229.966      -98.596       -1.368      111.804      113.140       50.602    12500.040    12800.625     2560.532        4.523        1.393      250.211       53.959        0.047      348.876       28.889      860.615
08/12/2013  14:56:00     -262.831     -149.123       -0.251      136.532      117.837       59.769    18641.004    13885.468     3572.304        6.370        1.805      302.189       64.480        0.046      348.698       28.580      860.622
08/12/2013  14:57:00     -160.424      -40.768      -13.798      100.056       55.503       38.595    10011.243     3080.603     1489.562        2.108        0.729      165.523       46.370        0.078      348.834       28.819      860.627
08/12/2013  14:58:00     -180.105     -173.114        1.611      106.255       84.153       69.595    11290.132     7081.780     4843.515        4.281        1.161      249.812       65.912        0.070      348.681       28.551      860.617
08/12/2013  14:59:00     -112.063      -94.055       -5.594      105.553      106.490       53.708    11141.423    11340.074     2884.552        2.340        1.268      146.303       58.549        0.160      348.693       28.573      860.610
08/12/2013  15:00:00      -68.866      -14.108       -2.483       64.756       31.520       19.084     4193.379      993.495      364.205        0.525        0.278       70.296       22.543        0.103      348.786       28.735      860.606
08/12/2013  15:01:00     -272.792      -97.361      -12.009      112.790       69.795       46.323    12721.570     4871.366     2145.803        5.189        0.987      289.646       49.489        0.029      348.772       28.709      860.590
08/12/2013  15:02:00     -173.094      -91.225       16.846      155.480      107.786       54.858    24174.090    11617.755     3009.354        3.868        1.940      195.662       82.101        0.176      348.672       28.537      860.574
08/12/2013  15:03:00     -195.289     -146.004      -11.571      126.196       74.843       53.130    15925.436     5601.502     2822.778        4.197        1.217      243.834       51.356        0.044      348.686       28.560      860.573
08/12/2013  15:04:00      -45.352       41.347       -8.137       85.971       92.967       50.523     7391.030     8642.811     2552.529        1.121        0.929       61.370       38.585        0.395      348.682       28.556      860.571
08/12/2013  15:05:00     -176.569       70.446       -6.625       66.818       40.681       35.873     4464.679     1654.931     1286.874        2.179        0.370      190.103       35.476        0.035      348.725       28.628      860.567
08/12/2013  15:06:00      -53.889      -10.003        8.741       45.948       34.033       25.870     2111.211     1158.254      669.259        0.351        0.197       54.810       21.225        0.150      348.799       28.759      860.563
08/12/2013  15:07:00      -31.633       -2.197       20.093       57.496       41.730       28.068     3305.845     1741.410      787.793        0.362        0.292       31.710       32.453        1.047      349.232       29.508      860.551
08/12/2013  15:08:00      -19.313       -4.285       20.017       34.472       34.387       25.504     1188.351     1182.461      650.474        0.191        0.151       19.783       26.620        1.811      349.036       29.168      860.526
08/12/2013  15:09:00      -39.784       19.444       14.759       28.031       18.893       22.598      785.714      356.929      510.690        0.192        0.083       44.281        9.336        0.044      348.931       28.989      860.532
08/12/2013  15:10:00      -59.841        2.541        5.119       69.595       31.533       22.415     4843.491      994.310      502.441        0.498        0.317       59.894       28.564        0.227      348.735       28.647      860.538
08/12/2013  15:11:00     -106.837        6.139      -22.238       36.261       43.825       27.533     1314.885     1920.624      758.082        0.797        0.200      107.014       21.837        0.042      348.771       28.710      860.534
08/12/2013  15:12:00      -50.239      105.586       -8.552       43.232      102.794       45.094     1869.032    10566.584     2033.426        1.410        0.723      116.929       38.422        0.108      348.669       28.533      860.540
08/12/2013  15:13:00       -2.838        1.469       10.177       20.642       35.669       30.073      426.111     1272.254      904.387        0.136        0.130        3.196       24.699       59.732      348.816       28.789      860.518
08/12/2013  15:14:00      -10.022       30.839        7.440       19.685       26.856       18.979      387.482      721.236      360.199        0.129        0.073       32.427       13.223        0.166      348.826       28.806      860.505
08/12/2013  15:15:00      -27.132       14.692       19.021       25.342       24.421       21.799      642.198      596.381      475.215        0.151        0.086       30.854       18.937        0.377      348.741       28.659      860.525
08/12/2013  15:16:00      -92.215      -28.780        5.903       66.369       58.200       28.368     4404.799     3387.251      804.748        0.898        0.430       96.602       23.792        0.061      348.849       28.845      860.538
08/12/2013  15:17:00       -6.518      -27.229       11.235       57.710       26.482       28.275     3330.442      701.313      799.492        0.287        0.242       27.998       23.851        0.726      348.754       28.681      860.531
08/12/2013  15:18:00      -58.535      -91.643       12.282       86.884      100.607       53.527     7548.835    10121.837     2865.162        1.625        1.027      108.742       40.948        0.142      348.796       28.752      860.504
08/12/2013  15:19:00     -277.309     -126.453       -4.187       96.666       87.754       55.987     9344.403     7700.786     3134.592        5.654        1.009      304.780       47.436        0.024      348.893       28.918      860.491
08/12/2013  15:20:00     -404.853     -105.298      -10.220      144.081      107.245       62.071    20759.285    11501.570     3852.825       10.560        1.806      418.322       54.617        0.017      348.952       29.020      860.469
08/12/2013  15:21:00     -239.147      -69.505      -13.082      108.469       67.875       54.888    11765.448     4607.071     3012.733        4.079        0.969      249.043       51.223        0.042      349.037       29.166      860.480
08/12/2013  15:22:00     -157.608      -33.492        2.546       89.420       64.844       44.385     7995.880     4204.738     1970.040        2.007        0.709      161.127       47.920        0.088      349.370       29.745      860.461
08/12/2013  15:23:00     -119.668       53.867       -7.832       54.824       69.725       31.822     3005.649     4861.514     1012.667        1.308        0.444      131.233       14.004        0.011      349.080       29.244      860.434
08/12/2013  15:24:00     -192.081       34.043       12.116      190.922       77.984       46.940    36451.290     6081.460     2203.351        4.146        2.237      195.075       61.127        0.098      349.327       29.671      860.428
08/12/2013  15:25:00     -141.164     -120.862       -6.743       91.214      117.289       57.209     8319.925    13756.622     3272.814        2.996        1.267      185.836       46.616        0.063      349.034       29.164      860.423
08/12/2013  15:26:00     -170.498     -159.584      -12.935       71.983       67.466       40.190     5181.521     4551.613     1615.221        3.302        0.567      233.531       36.240        0.024      349.109       29.292      860.393
08/12/2013  15:27:00     -138.509     -174.504      -14.140      102.490       90.448       38.950    10504.200     8180.870     1517.087        3.502        1.010      222.793       41.912        0.035      348.855       28.854      860.377
08/12/2013  15:28:00      -83.634      -71.534        6.214       61.723       47.688       29.658     3809.685     2274.143      879.598        0.956        0.348      110.053       14.085        0.016      348.942       29.006      860.348
08/12/2013  15:29:00       25.175     -101.979      -12.247       61.904       71.557       57.441     3832.069     5120.340     3299.417        1.172        0.613      105.041       44.706        0.181      349.242       29.526      860.301
08/12/2013  15:30:00       73.659     -175.809      -30.400       64.456       90.985       59.898     4154.528     8278.198     3587.767        2.664        0.801      190.616       63.034        0.109      349.023       29.145      860.275
08/12/2013  15:31:00       21.649     -160.477      -35.602       65.398       75.330       52.986     4276.835     5674.546     2807.552        2.012        0.638      161.930       36.902        0.052      348.994       29.096      860.272
08/12/2013  15:32:00       25.191      -78.557       -6.826       54.949       56.801       28.001     3019.352     3226.365      784.054        0.694        0.351       82.497       20.769        0.063      349.097       29.273      860.277
08/12/2013  15:33:00      -19.082      -47.635      -14.097       62.173       57.497       41.542     3865.508     3305.911     1725.731        0.586        0.445       51.315       24.924        0.236      349.264       29.565      860.269
08/12/2013  15:34:00      -45.846     -122.821        1.953       78.962      101.794       35.824     6235.009    10361.996     1283.374        1.753        0.894      131.099       33.166        0.064      349.290       29.608      860.279
08/12/2013  15:35:00     -302.467     -271.154       10.580      217.639      138.186       95.730    47366.728    19095.297     9164.159       12.036        3.781      406.215      103.354        0.065      349.318       29.656      860.249
08/12/2013  15:36:00     -434.703     -174.164      -15.402      212.323      146.673       75.215    45081.181    21513.046     5657.332       14.588        3.613      468.294       90.842        0.038      349.136       29.338      860.260
08/12/2013  15:37:00     -330.458     -158.548      -24.398      127.775      114.115       71.174    16326.326    13022.278     5065.689        8.467        1.721      366.524       68.037        0.034      349.298       29.618      860.264
08/12/2013  15:38:00     -261.302      -21.571       -9.813      117.036      104.759       57.447    13697.497    10974.491     3300.162        4.840        1.399      262.191       60.155        0.053      349.517       30.000      860.283
08/12/2013  15:39:00     -134.793        9.182       10.602      156.724       83.426       63.193    24562.385     6959.950     3993.352        2.693        1.776      135.106       77.277        0.327      349.678       30.282      860.282
08/12/2013  15:40:00     -150.622      -46.527       -5.731      133.383      116.480       59.194    17790.951    13567.642     3503.932        2.987        1.743      157.644       57.439        0.133      349.535       30.033      860.316
08/12/2013  15:41:00     -264.300     -187.704       -6.483      163.809      140.175       70.551    26833.235    19648.978     4977.414        7.829        2.573      324.172       79.934        0.061      349.342       29.696      860.296
08/12/2013  15:42:00     -273.585      -57.160       -8.421      154.397       91.466       66.288    23838.440     8366.013     4394.044        5.739        1.830      279.493       78.686        0.079      349.166       29.390      860.327
08/12/2013  15:43:00     -341.844     -283.901       -8.453      142.608      162.192       74.467    20337.094    26306.309     5545.358       12.485        2.609      444.362       69.458        0.024      349.004       29.112      860.332
08/12/2013  15:44:00     -345.523     -257.087        0.986      205.348      168.965      100.961    42167.763    28549.271    10193.201       13.318        4.046      430.674      117.439        0.074      349.179       29.414      860.273
08/12/2013  15:45:00     -286.561     -272.087      -24.601      164.724      135.258       77.814    27134.134    18294.767     6054.990       10.411        2.574      395.156       72.564        0.034      349.324       29.664      860.276
08/12/2013  15:46:00     -239.557     -218.512        5.347      181.706      153.060       80.699    33016.976    23427.423     6512.304        8.405        3.148      324.246       82.588        0.065      349.478       29.932      860.301
08/12/2013  15:47:00     -350.226     -219.840       -9.731      172.576      133.847       74.389    29782.517    17915.107     5533.738       11.215        2.662      413.507       86.184        0.043      349.316       29.653      860.311
08/12/2013  15:48:00     -298.452     -197.225       -0.113      174.575      136.771       70.435    30476.533    18706.190     4961.100        9.105        2.707      357.731       80.173        0.050      349.179       29.413      860.322
08/12/2013  15:49:00     -317.001     -194.134      -11.487      148.981      159.248       73.486    22195.406    25359.859     5400.200        9.562        2.648      371.723       67.776        0.033      349.039       29.172      860.327
08/12/2013  15:50:00     -381.818     -202.964       -6.300      287.596      168.873       95.272    82711.353    28517.949     9076.726       15.364        6.015      432.411      131.563        0.093      349.120       29.312      860.294
08/12/2013  15:51:00     -332.294     -249.999       -5.513      211.369      153.692       88.437    44676.966    23621.167     7821.173       12.452        3.806      415.835       93.494        0.051      349.056       29.200      860.272
08/12/2013  15:52:00     -423.833     -272.016      -25.053      184.617      131.670       75.688    34083.398    17337.020     5728.682       15.569        2.857      503.614       62.967        0.016      349.218       29.482      860.239
08/12/2013  15:53:00     -271.266     -220.977        6.188      184.670      117.057       89.691    34102.847    13702.378     8044.546        8.914        2.792      349.880       86.673        0.061      349.328       29.673      860.254
08/12/2013  15:54:00     -283.850     -172.006        5.653      176.957      128.317       79.991    31313.822    16465.245     6398.600        8.217        2.709      331.899       85.668        0.067      349.298       29.620      860.265
08/12/2013  15:55:00     -452.899     -292.141      -28.343      161.581      171.611       80.551    26108.565    29450.363     6488.456       17.665        3.102      538.947       72.330        0.018      349.247       29.532      860.245
08/12/2013  15:56:00     -342.572      -56.241      -12.737      243.991      171.562       96.137    59531.474    29433.677     9242.404       10.943        4.910      347.158      111.355        0.103      349.462       29.905      860.256
08/12/2013  15:57:00     -359.670     -204.672      -10.024      193.329      160.862       85.883    37376.227    25876.477     7375.917       12.098        3.531      413.828       97.495        0.056      349.247       29.530      860.287
08/12/2013  15:58:00     -348.010     -101.563      -12.905      172.672      143.222       83.181    29815.469    20512.482     6919.057        9.441        2.862      362.527       83.591        0.053      349.118       29.308      860.298
08/12/2013  15:59:00     -454.633      -92.378      -17.350      189.800      187.070       81.204    36023.853    34995.298     6594.047       14.656        3.881      463.924       90.768        0.038      349.127       29.325      860.297
08/12/2013  16:00:00     -339.992     -142.529      -11.512      176.162      142.984       84.291    31033.053    20444.287     7104.934        9.730        2.929      368.658       91.516        0.062      349.117       29.305      860.295
08/12/2013  16:01:00     -265.771     -101.797       -1.704      187.647      104.743       65.389    35211.494    10971.162     4275.771        6.572        2.523      284.599       81.209        0.081      349.131       29.330      860.272
08/12/2013  16:02:00     -227.984      -75.292      -14.438      166.588      109.445       75.687    27751.676    11978.154     5728.492        5.165        2.273      240.095       77.414        0.104      349.318       29.656      860.250
08/12/2013  16:03:00     -265.054     -213.139       -0.712      181.047      153.134       83.290    32778.105    23450.010     6937.299        8.941        3.158      340.120       87.535        0.066      349.174       29.405      860.263
08/12/2013  16:04:00     -230.775     -214.137        4.663      211.856      160.067       95.621    44883.148    25621.559     9143.305        8.938        3.982      314.820      109.871        0.122      349.068       29.222      860.253
08/12/2013  16:05:00     -147.238     -127.514       15.199      201.669      144.082       77.836    40670.342    20759.760     6058.504        5.282        3.374      194.779       81.052        0.173      349.229       29.502      860.215
08/12/2013  16:06:00     -260.649      -87.449       -8.375      230.974      112.155       84.841    53349.154    12578.801     7197.962        7.438        3.656      274.927      114.653        0.174      349.403       29.803      860.250
08/12/2013  16:07:00     -365.845      -83.528      -10.328      175.117      107.455       66.728    30665.931    11546.625     4452.646        9.379        2.333      375.260       78.866        0.044      349.254       29.543      860.254
08/12/2013  16:08:00     -377.642     -164.353      -28.728      145.072      134.914       60.136    21045.992    18201.742     3616.348       10.665        2.143      411.856       55.718        0.018      349.307       29.638      860.229
08/12/2013  16:09:00     -380.452      -68.417      -27.795      130.150      130.175       65.743    16939.095    16945.508     4322.178        9.420        1.910      386.555       64.327        0.028      349.261       29.557      860.223
08/12/2013  16:10:00     -311.962     -107.933       -3.533      204.733      139.428       78.583    41915.481    19440.222     6175.304        8.825        3.377      330.106       87.422        0.070      349.285       29.597      860.186
08/12/2013  16:11:00     -323.989     -255.572      -12.721      199.461      131.995       85.676    39784.803    17422.562     7340.440       11.749        3.227      412.657       75.365        0.033      349.045       29.182      860.219
08/12/2013  16:12:00     -399.746      -82.838      -32.075      135.399      105.459       55.617    18332.804    11121.548     3093.246       10.011        1.627      408.238       53.570        0.017      349.095       29.267      860.207
08/12/2013  16:13:00     -364.464      -74.136       -3.811      178.193      167.151       75.033    31752.833    27939.374     5629.899       10.182        3.266      371.928       80.209        0.047      349.258       29.552      860.205
08/12/2013  16:14:00     -303.858     -258.207        9.481      212.112      157.190       92.569    44991.453    24708.647     8568.948       11.867        3.913      398.749       96.062        0.058      349.254       29.543      860.210
08/12/2013  16:15:00     -432.507     -301.752       -1.493      228.689      185.866      105.054    52298.518    34546.217    11036.447       18.798        4.894      527.368      123.128        0.055      349.193       29.437      860.171
08/12/2013  16:16:00     -242.701     -223.395       18.459      247.488      176.848      124.172    61250.287    31275.241    15418.727       10.853        5.397      329.862      139.918        0.180      349.189       29.431      860.184
08/12/2013  16:17:00     -318.149      -66.120        7.258      186.264      141.132       81.089    34694.106    19918.321     6575.456        8.341        3.059      324.947       87.034        0.072      349.219       29.483      860.216
08/12/2013  16:18:00     -307.390     -158.145       10.710      169.485      179.728       96.821    28725.013    32302.252     9374.277        9.500        3.520      345.685       93.540        0.073      349.132       29.332      860.219
08/12/2013  16:19:00     -263.728     -155.587       -6.205      210.005      156.501       78.635    44102.295    24492.451     6183.458        8.428        3.739      306.202       98.575        0.104      349.126       29.320      860.215
08/12/2013  16:20:00     -360.568     -176.960      -18.371      248.642      141.884       78.214    61822.698    20131.143     6117.450       12.485        4.404      401.652       78.963        0.039      349.141       29.348      860.226
08/12/2013  16:21:00     -257.280      -47.346      -15.312      185.120      130.409       73.233    34269.439    17006.420     5363.043        6.264        2.832      261.600       85.512        0.107      349.197       29.447      860.208
08/12/2013  16:22:00     -338.810      -85.711        5.257      158.018      133.784       65.963    24969.808    17898.137     4351.102        8.468        2.361      349.483       73.446        0.044      349.259       29.552      860.187
08/12/2013  16:23:00     -262.259     -129.864       -1.378      169.536      125.198       61.222    28742.493    15674.602     3748.188        6.690        2.408      292.651       66.630        0.052      349.235       29.511      860.187
08/12/2013  16:24:00     -283.640     -155.403      -13.115      117.083       78.335       55.945    13708.447     6136.335     3129.823        6.387        1.149      323.421       47.413        0.021      349.073       29.229      860.170
08/12/2013  16:25:00     -231.571     -101.158       -1.938      165.733      120.417       59.965    27467.272    14500.326     3595.748        5.470        2.278      252.702       69.490        0.076      349.219       29.483      860.154
08/12/2013  16:26:00     -221.613     -190.378       10.194      150.736      162.441       67.859    22721.359    26387.167     4604.839        6.958        2.686      292.157       80.394        0.076      349.296       29.617      860.171
08/12/2013  16:27:00     -455.436     -347.016      -27.041      218.219      192.788       94.989    47619.315    37167.290     9022.848       21.118        4.690      572.575       93.335        0.027      349.007       29.115      860.155
08/12/2013  16:28:00     -456.426     -194.599      -24.343      175.196      171.137       91.505    30693.679    29287.824     8373.138       15.756        3.418      496.179       91.608        0.034      349.067       29.219      860.163
08/12/2013  16:29:00     -401.587     -239.528      -12.686      150.718      102.576       69.692    22715.907    10521.904     4856.921       12.844        1.905      467.596       63.567        0.018      349.251       29.538      860.208
08/12/2013  16:30:00     -246.166     -215.903       15.759      207.070      172.263      116.949    42877.987    29674.488    13677.145        9.683        4.311      327.432      129.867        0.157      349.185       29.425      860.191
08/12/2013  16:31:00     -220.596        3.256      -23.030      190.250      115.806       68.780    36194.909    13410.928     4730.744        5.176        2.717      220.620       83.919        0.145      349.417       29.828      860.189
08/12/2013  16:32:00     -410.599      -49.495      -19.702      204.752      173.783       88.674    41923.342    30200.460     7863.104       12.569        3.999      413.571      108.704        0.069      349.257       29.550      860.180
08/12/2013  16:33:00     -528.276     -103.361      -27.820      152.697      177.076       74.374    23316.526    31355.880     5531.504       17.536        3.010      538.292       64.257        0.014      348.898       28.926      860.180
08/12/2013  16:34:00     -440.875     -124.919      -25.906      139.007       90.051       68.661    19323.009     8109.198     4714.336       12.139        1.607      458.231       69.261        0.023      348.924       28.972      860.157
08/12/2013  16:35:00     -445.481     -136.515      -33.483      173.637      119.028       74.612    30149.725    14167.667     5566.917       13.404        2.494      465.929       59.956        0.017      349.059       29.205      860.127
08/12/2013  16:36:00     -345.156     -256.923       -8.223      158.055      125.883       71.825    24981.251    15846.581     5158.860       11.559        2.299      430.281       74.704        0.030      349.080       29.241      860.170
08/12/2013  16:37:00     -277.494     -252.051        7.010      160.702      140.884       85.504    25825.162    19848.425     7310.988        9.677        2.649      374.877       86.888        0.054      349.142       29.349      860.201
08/12/2013  16:38:00     -393.207     -220.890       -7.727      179.813      172.551       98.285    32332.606    29773.849     9660.021       13.760        3.588      451.003      102.443        0.052      349.202       29.453      860.186
08/12/2013  16:39:00     -243.055     -202.405       15.641      202.288      157.553       88.793    40920.360    24822.943     7884.177        8.695        3.681      316.297      116.797        0.136      349.296       29.616      860.225
08/12/2013  16:40:00     -178.166     -121.413       14.785      124.100      150.722       75.130    15400.716    22717.128     5644.476        4.523        2.188      215.602       69.507        0.104      349.268       29.568      860.244
08/12/2013  16:41:00     -204.817      -55.890       17.885      155.927      136.212       83.818    24313.312    18553.796     7025.483        4.763        2.495      212.306       93.345        0.193      349.353       29.716      860.240
08/12/2013  16:42:00     -282.154      -72.592        2.368      242.755      128.792       85.038    58929.905    16587.344     7231.479        8.380        4.137      291.342       99.599        0.117      349.217       29.479      860.233
08/12/2013  16:43:00     -463.980     -306.410       -4.888      219.091      191.197      102.695    48000.743    36556.254    10546.330       20.213        4.755      556.025      115.622        0.043      348.928       28.977      860.223
08/12/2013  16:44:00     -267.590     -114.227       17.536      171.452      123.002       72.372    29395.765    15129.412     5237.686        6.735        2.488      290.950       82.528        0.080      349.125       29.320      860.232
08/12/2013  16:45:00     -266.557     -174.979        1.668      162.736      128.892       74.758    26483.064    16613.079     5588.754        7.517        2.434      318.858       85.057        0.071      349.093       29.266      860.242
08/12/2013  16:46:00     -299.343     -114.102        3.253      171.789      113.569       75.331    29511.487    12897.806     5674.764        7.535        2.404      320.352       81.160        0.064      349.052       29.192      860.246
08/12/2013  16:47:00     -455.989     -312.407      -11.814      243.278      178.259      110.595    59184.188    31776.417    12231.248       20.441        5.160      552.743      112.869        0.042      348.962       29.037      860.214
08/12/2013  16:48:00     -352.048     -102.222      -10.088      204.933      133.797       80.648    41997.349    17901.573     6504.080       10.043        3.320      366.589       87.990        0.058      348.999       29.103      860.238
08/12/2013  16:49:00     -317.683      -32.931       -9.945      163.124      174.159       79.754    26609.347    30331.504     6360.707        8.269        3.165      319.386       67.817        0.045      348.955       29.026      860.254
08/12/2013  16:50:00      -85.741       52.272        9.761      105.921      128.532       54.247    11219.268    16520.484     2942.772        2.043        1.534      100.418       45.918        0.209      348.989       29.086      860.210
08/12/2013  16:51:00     -272.340      -43.314        1.143      158.994       79.342       60.759    25279.231     6295.169     3691.704        5.565        1.763      275.762       68.767        0.062      349.146       29.357      860.217
08/12/2013  16:52:00     -351.805     -139.461      -16.584      137.570      112.855       59.704    18925.512    12736.280     3564.623        8.935        1.761      378.439       57.558        0.023      349.122       29.315      860.235
08/12/2013  16:53:00     -400.967     -202.912      -10.061      179.616      151.582       77.588    32262.084    22977.186     6019.970       13.164        3.063      449.386       90.611        0.041      348.975       29.060      860.220
08/12/2013  16:54:00     -375.061     -250.511       16.869      242.643      218.619      114.741    58875.503    47794.380    13165.547       16.175        5.992      451.029      123.707        0.075      348.973       29.057      860.208
08/12/2013  16:55:00     -328.633     -231.517       -3.196      217.017      164.794       97.190    47096.208    27157.125     9445.845       12.264        4.185      401.995      113.856        0.080      349.005       29.112      860.231
08/12/2013  16:56:00     -382.886     -290.289       -4.846      220.738      181.188       94.529    48725.146    32828.949     8935.736       16.068        4.524      480.489       96.109        0.040      348.829       28.808      860.210
08/12/2013  16:57:00     -418.945     -281.178      -20.745      214.116      131.198       94.371    45845.578    17213.007     8905.864       16.347        3.598      504.555      102.747        0.041      348.957       29.030      860.188
08/12/2013  16:58:00     -425.988      -47.484      -27.429      156.995      134.982       71.752    24647.503    18220.232     5148.305       11.624        2.401      428.626       76.204        0.032      349.134       29.336      860.211
08/12/2013  16:59:00     -443.988      -84.996      -15.389      159.603      126.446       76.102    25473.131    15988.588     5791.575       12.591        2.363      452.050       86.969        0.037      348.980       29.069      860.239
08/12/2013  17:00:00     -238.964      -86.281       -3.124      140.719      102.852       61.965    19801.913    10578.587     3839.671        4.938        1.711      254.064       73.301        0.083      349.146       29.355      860.214
08/12/2013  17:01:00     -215.643      -26.174       -0.239      123.824      105.077       57.751    15332.376    11041.248     3335.154        3.844        1.485      217.225       65.914        0.092      349.313       29.647      860.189
08/12/2013  17:02:00     -322.479      105.076      -21.210      187.386      158.233       83.737    35113.437    25037.793     7011.935        9.131        3.358      339.166       93.370        0.076      349.134       29.335      860.205
08/12/2013  17:03:00     -454.754        9.039      -35.513      165.888      156.499       77.233    27518.986    24491.961     5965.005       13.305        2.899      454.844       70.243        0.024      348.864       28.867      860.190
08/12/2013  17:04:00     -369.280     -169.084      -19.790      134.929       96.915       67.001    18205.902     9392.560     4489.172        9.871        1.604      406.149       58.914        0.021      348.960       29.036      860.187
08/12/2013  17:05:00     -265.607     -160.599      -12.426      189.133      132.105       60.285    35771.145    17451.774     3634.311        7.667        2.843      310.385       72.383        0.054      349.080       29.242      860.203
08/12/2013  17:06:00     -240.250     -162.784        0.797      183.768      146.409       88.430    33770.499    21435.714     7819.809        7.361        3.151      290.205      104.158        0.129      349.053       29.196      860.213
08/12/2013  17:07:00     -314.539     -156.876      -27.108      217.033      174.705       72.447    47103.312    30521.921     5248.554       10.356        4.144      351.489       64.020        0.033      349.100       29.276      860.201
08/12/2013  17:08:00     -228.071      -96.282       27.344      242.314      135.348       96.230    58716.094    18318.978     9260.215        7.415        4.315      247.561      126.931        0.263      349.157       29.377      860.224
08/12/2013  17:09:00     -153.238     -104.821       17.331      149.297      105.917       71.835    22289.692    11218.328     5160.311        3.671        1.933      185.659       76.566        0.170      349.219       29.483      860.207
08/12/2013  17:10:00     -192.105      -46.989        3.088      159.785       86.614       54.635    25531.213     7501.983     2984.986        3.756        1.801      197.769       67.468        0.116      349.287       29.604      860.208
08/12/2013  17:11:00     -278.253     -153.336        8.507      198.651      222.181       91.908    39462.100    49364.400     8447.112        9.913        4.864      317.705      106.240        0.112      349.201       29.453      860.239
08/12/2013  17:12:00     -282.542      -92.729       -6.672      274.698      151.775      102.152    75459.261    23035.750    10435.045        9.868        5.447      297.369      117.191        0.155      349.094       29.268      860.256
08/12/2013  17:13:00     -392.821     -110.790      -24.162      194.062      157.959       82.610    37660.030    24951.105     6824.343       11.829        3.472      408.146       95.056        0.054      348.947       29.012      860.297
08/12/2013  17:14:00     -314.868      -96.102       -8.379      195.621      150.476       82.284    38267.631    22643.027     6770.612        8.805        3.384      329.207       98.573        0.090      348.893       28.919      860.283
08/12/2013  17:15:00     -364.811     -182.060        1.414      235.295      211.894      103.096    55363.796    44899.077    10628.809       13.854        5.545      407.716      111.326        0.075      348.844       28.832      860.279
08/12/2013  17:16:00     -205.644     -131.996       10.686      181.128      115.975       71.917    32807.456    13450.179     5172.068        5.562        2.571      244.361       69.317        0.080      348.971       29.054      860.286
08/12/2013  17:17:00     -547.136      -38.348      -24.568      221.347      168.282       95.913    48994.534    28318.901     9199.237       19.396        4.326      548.478      115.207        0.044      348.873       28.883      860.274
08/12/2013  17:18:00     -457.580      -55.125      -16.867      210.974      229.570       93.057    44510.031    52702.256     8659.543       15.927        5.294      460.889      105.612        0.053      348.755       28.679      860.287
08/12/2013  17:19:00     -221.307      -60.041        2.032      167.181      114.275       71.095    27949.631    13058.734     5054.431        4.932        2.303      229.307       87.112        0.144      348.910       28.949      860.273
08/12/2013  17:20:00     -291.146      -60.460      -17.205      165.762      135.523       64.087    27476.981    18366.592     4107.188        6.933        2.498      297.357       57.740        0.038      348.961       29.036      860.271
08/12/2013  17:21:00     -217.596      -70.831       -3.766      156.701      107.580       62.017    24555.192    11573.482     3846.145        4.617        1.999      228.834       68.767        0.090      348.861       28.863      860.276
08/12/2013  17:22:00     -153.988       -4.623        2.633      180.686       94.256       50.968    32647.353     8884.117     2597.772        3.393        2.206      154.058       72.142        0.219      349.014       29.130      860.264
08/12/2013  17:23:00     -455.090      -52.889      -13.852      251.825      184.941      100.546    63415.975    34203.282    10109.534       15.889        5.386      458.153      106.544        0.054      348.847       28.839      860.251
08/12/2013  17:24:00     -306.815      -92.193      -14.353      117.799      164.740       71.911    13876.555    27139.325     5171.234        7.451        2.309      320.367       63.542        0.039      348.883       28.900      860.230
08/12/2013  17:25:00     -185.829      -13.065      -11.028       94.329      101.677       61.421     8897.929    10338.279     3772.512        2.891        1.150      186.288       30.381        0.027      349.135       29.337      860.229
08/12/2013  17:26:00     -376.460      -41.686      -15.431      141.068      106.547       65.362    19900.116    11352.347     4272.202        8.961        1.776      378.761       63.090        0.028      349.000       29.102      860.223
08/12/2013  17:27:00     -300.086      -99.657       -4.295      145.915      160.401       83.583    21291.154    25728.465     6986.157        7.699        2.700      316.201       88.780        0.079      348.978       29.065      860.186
08/12/2013  17:28:00     -502.609     -157.109      -27.010      180.422      195.140       96.921    32552.054    38079.802     9393.586       17.901        4.001      526.592      103.685        0.039      348.833       28.814      860.228
08/12/2013  17:29:00     -485.989     -123.835      -27.504      233.272      168.834       84.228    54415.847    28504.826     7094.365       17.113        4.501      501.518       90.746        0.033      348.782       28.726      860.247
08/12/2013  17:30:00     -340.763     -152.309      -10.986      193.256      148.242       75.343    37347.976    21975.794     5676.634       10.221        3.250      373.253       91.451        0.060      348.791       28.741      860.258
08/12/2013  17:31:00     -282.686     -250.636       -5.315      229.320      214.172      103.385    52587.444    45869.663    10688.435       12.593        5.457      377.796      121.646        0.104      348.698       28.582      860.220
08/12/2013  17:32:00     -363.669     -270.686       -6.089      210.072      162.216       91.248    44130.045    26313.934     8326.147       14.215        3.939      453.350      113.197        0.062      348.647       28.492      860.203
08/12/2013  17:33:00     -300.310     -192.265      -31.340      183.812      137.364       73.650    33786.955    18868.999     5424.319        9.310        2.904      356.583       43.749        0.015      348.747       28.665      860.202
08/12/2013  17:34:00     -358.290      -28.577      -15.122      169.500      142.174       82.310    28730.341    20213.499     6774.999        9.256        2.786      359.428       84.229        0.055      348.889       28.911      860.246
08/12/2013  17:35:00     -295.425      -64.447       -1.903      150.742      113.055       68.126    22723.204    12781.485     4641.208        6.578        2.007      302.373       68.436        0.051      348.929       28.981      860.247
08/12/2013  17:36:00     -246.858      -66.903       -0.159      126.128      122.782       51.928    15908.343    15075.479     2696.537        4.954        1.684      255.763       49.231        0.037      348.996       29.098      860.257
08/12/2013  17:37:00     -164.436       -3.350       -1.097      153.734      107.242       58.423    23634.161    11500.914     3413.262        3.279        1.927      164.470       55.908        0.116      349.080       29.242      860.257
08/12/2013  17:38:00     -388.305       -4.463      -33.123      193.727      160.683       84.351    37530.241    25819.121     7115.129       11.117        3.523      388.330       98.603        0.064      348.771       28.708      860.257
08/12/2013  17:39:00     -489.463     -145.780      -20.648      186.791      182.937       90.297    34891.044    33466.070     8153.590       16.887        3.826      510.712       92.074        0.033      348.658       28.512      860.215
08/12/2013  17:40:00     -650.908     -125.467      -40.834      233.369      203.885      109.638    54461.139    41569.182    12020.589       27.455        5.403      662.890      109.362        0.027      348.516       28.264      860.187
08/12/2013  17:41:00     -476.251     -175.641       -3.887      183.181      151.477       83.296    33555.330    22945.152     6938.275       16.055        3.172      507.607       83.641        0.027      348.558       28.338      860.214
08/12/2013  17:42:00     -353.096      -70.747      -24.731      161.647      133.142       66.620    26129.908    17726.855     4438.225        8.929        2.415      360.113       63.958        0.032      348.704       28.590      860.201
08/12/2013  17:43:00     -253.557      -74.768      -25.853      118.994      124.518       66.709    14159.668    15504.685     4450.080        5.233        1.706      264.351       64.731        0.060      348.666       28.526      860.191
08/12/2013  17:44:00     -338.041      -80.443      -15.044      213.260      153.138       96.727    45479.838    23451.234     9356.067        9.962        3.914      347.481      108.355        0.097      348.657       28.511      860.184
08/12/2013  17:45:00     -337.097      -42.193      -15.914      219.778      119.049       96.623    48302.277    14172.728     9336.014        9.373        3.591      339.727      112.046        0.109      348.741       28.654      860.221
08/12/2013  17:46:00     -368.549     -114.541        0.536      317.607      131.180       98.653   100873.914    17208.272     9732.438       13.836        6.391      385.938      135.732        0.124      348.708       28.600      860.239
08/12/2013  17:47:00     -255.327      -89.159        0.934      153.228      163.853       67.611    23478.968    26847.944     4571.222        6.401        2.745      270.446       60.478        0.050      348.844       28.834      860.253
08/12/2013  17:48:00     -195.595      -38.766       -5.852      219.903      122.894       76.644    48357.470    15103.004     5874.254        5.455        3.467      199.400       87.117        0.191      348.875       28.889      860.237
08/12/2013  17:49:00     -416.925      -25.654      -14.207      212.043      138.142       96.631    44962.284    19083.188     9337.546       12.402        3.669      417.714      108.453        0.067      348.762       28.693      860.242
08/12/2013  17:50:00     -537.524      -81.779      -12.341      203.806      181.131       89.356    41536.950    32808.466     7984.428       18.904        4.116      543.709       90.168        0.028      348.669       28.531      860.268
08/12/2013  17:51:00     -410.481     -206.463      -19.219      182.575      163.291       89.535    33333.799    26664.012     8016.499       13.974        3.401      459.479       77.514        0.028      348.531       28.291      860.286
08/12/2013  17:52:00     -311.105      -15.519       -3.807      184.574       89.993       63.107    34067.392     8098.757     3982.524        7.159        2.307      311.492       80.011        0.066      348.624       28.454      860.318
08/12/2013  17:53:00     -470.841     -110.046       -0.102      242.870      165.816       93.419    58986.074    27495.087     8727.025       16.449        4.760      483.530      106.569        0.049      348.522       28.278      860.296
08/12/2013  17:54:00     -181.104     -102.593        6.807      130.719      109.881       61.086    17087.355    12073.755     3731.505        3.813        1.645      208.145       74.321        0.127      348.636       28.473      860.308
08/12/2013  17:55:00     -412.689     -229.727       -8.150      225.028      196.911       80.909    50637.649    38773.768     6546.261       15.954        4.798      472.320       80.194        0.029      348.534       28.297      860.316
08/12/2013  17:56:00     -426.772     -131.837       -8.655      233.095      199.365       96.261    54333.347    39746.452     9266.251       15.145        5.167      446.671      113.365        0.064      348.490       28.219      860.307
08/12/2013  17:57:00     -396.714       -2.772      -12.483      293.165      147.459       96.334    85945.834    21744.271     9280.242       13.724        5.849      396.724      115.025        0.084      348.557       28.336      860.351
08/12/2013  17:58:00     -598.788     -176.538      -33.691      241.044      178.807       91.341    58102.196    31972.078     8343.239       24.462        4.921      624.270      108.852        0.030      348.389       28.043      860.357
08/12/2013  17:59:00     -453.325      -81.747      -26.135      240.769      182.067      100.390    57969.730    33148.355    10078.215       15.702        5.060      460.637      122.205        0.070      348.366       28.006      860.346
08/12/2013  18:00:00     -443.395      -83.670      -32.734      197.604      121.125       72.201    39047.296    14671.252     5212.914       13.179        2.947      451.220       47.191        0.011      348.324       27.934      860.331
08/12/2013  18:01:00     -475.385      -58.763      -20.513      238.429      190.414       85.252    56848.455    36257.462     7267.945       16.510        5.019      479.003      103.533        0.047      348.363       28.001      860.334
08/12/2013  18:02:00     -490.263     -170.884      -10.872      224.399      194.344       95.815    50355.000    37769.508     9180.468       18.347        4.865      519.191       95.994        0.034      348.378       28.026      860.322
08/12/2013  18:03:00     -416.255      -79.174      -16.544      173.238      189.448       88.795    30011.430    35890.603     7884.517       12.679        3.689      423.718       86.553        0.042      348.351       27.980      860.326
08/12/2013  18:04:00     -523.898      -62.558      -42.786      167.353      168.780       80.399    28006.989    28486.622     6464.069       17.157        3.148      527.620       60.322        0.013      348.307       27.903      860.275
08/12/2013  18:05:00     -370.170     -175.607      -10.300      226.217      170.609       88.502    51174.150    29107.319     7832.662       12.803        4.406      409.711      102.418        0.062      348.360       27.995      860.288
08/12/2013  18:06:00     -305.626      -16.000       -1.759      170.491      116.137       73.148    29067.244    13487.860     5350.613        7.078        2.395      306.045       82.528        0.073      348.487       28.215      860.301
08/12/2013  18:07:00     -262.257      -65.646       -8.416      149.058       95.413       63.819    22218.431     9103.668     4072.884        5.427        1.770      270.348       69.811        0.067      348.461       28.172      860.305
08/12/2013  18:08:00     -193.793     -110.492       12.748      157.273      118.991       78.170    24734.864    14158.861     6110.536        4.746        2.250      223.079       86.656        0.151      348.361       27.998      860.276
08/12/2013  18:09:00     -255.746     -126.820       -9.532      119.180      129.542       65.509    14203.807    16781.152     4291.490        5.842        1.764      285.464       59.617        0.044      348.353       27.983      860.280
08/12/2013  18:10:00     -394.891      -68.594       -9.691      234.193      168.384       87.980    54846.204    28353.107     7740.464       12.582        4.547      400.804       95.501        0.057      348.348       27.975      860.262
08/12/2013  18:11:00     -348.794     -130.994      -21.206      153.766      144.794       65.368    23644.019    20965.435     4272.989        9.407        2.444      372.581       58.176        0.024      348.359       27.994      860.266
08/12/2013  18:12:00     -512.641     -149.769      -17.906      223.045      195.886      100.071    49749.103    38371.298    10014.221       19.183        4.907      534.071      112.820        0.045      348.202       27.722      860.261
08/12/2013  18:13:00     -568.732     -172.956      -28.574      173.706      151.853       79.695    30173.785    23059.226     6351.296       20.688        2.979      594.449       89.870        0.023      348.157       27.646      860.274
08/12/2013  18:14:00     -360.057     -117.237       -0.021      222.961      146.904       85.088    49711.586    21580.794     7239.966       11.095        3.927      378.663      105.148        0.077      348.191       27.703      860.272
08/12/2013  18:15:00     -299.418      -79.026      -16.354      192.427      113.740       68.439    37028.275    12936.767     4683.923        7.540        2.732      309.671       91.291        0.087      348.306       27.902      860.289
08/12/2013  18:16:00     -321.104      -44.145        5.843      220.109      140.758       78.624    48447.971    19812.827     6181.810        8.975        3.722      324.125       90.743        0.078      348.368       28.010      860.293
08/12/2013  18:17:00     -289.068      -70.112       -5.301      179.595      191.483       84.780    32254.193    36665.657     7187.611        8.229        3.805      297.449       73.079        0.060      348.322       27.930      860.301
08/12/2013  18:18:00     -390.276     -264.027      -42.390      203.495      126.695       88.988    41410.380    16051.516     7918.783       14.459        3.269      471.196      107.987        0.053      348.209       27.734      860.268
08/12/2013  18:19:00     -111.636      -79.990       14.316      111.752      104.710       60.098    12488.598    10964.106     3611.717        2.306        1.353      137.335       60.663        0.195      348.357       27.992      860.287
08/12/2013  18:20:00     -182.134      -26.109       20.290      182.653      111.313       74.853    33362.066    12390.641     5602.922        4.280        2.568      183.996       84.006        0.208      348.379       28.029      860.307
08/12/2013  18:21:00     -278.282      -61.256       14.416      167.767      162.424       79.045    28145.795    26381.454     6248.056        7.108        3.039      284.944       85.643        0.090      348.253       27.811      860.294
08/12/2013  18:22:00     -440.796     -289.587       -9.141      224.795      194.897      105.784    50532.983    37984.822    11190.355       18.896        4.985      527.411      101.207        0.037      348.079       27.509      860.263
08/12/2013  18:23:00     -261.731     -144.281        0.598      146.584      139.422       76.246    21486.758    19438.518     5813.477        6.802        2.337      298.865       82.409        0.076      348.129       27.596      860.272
08/12/2013  18:24:00     -304.307       10.860      -24.292      130.645      118.870       64.328    17068.187    14130.005     4138.146        6.432        1.767      304.501       64.541        0.045      348.219       27.752      860.301
08/12/2013  18:25:00     -336.035       36.962      -28.026      121.347      102.398       58.071    14725.185    10485.317     3372.254        7.182        1.429      338.062       49.069        0.021      348.255       27.814      860.304
08/12/2013  18:26:00     -392.766      -39.191      -26.293      145.184      126.908       66.946    21078.457    16105.601     4481.770        9.907        2.083      394.716       68.287        0.030      348.211       27.739      860.303
08/12/2013  18:27:00     -302.749      -42.625       -9.602      150.112      108.118       76.682    22533.669    11689.411     5880.195        6.683        2.005      305.735       67.245        0.048      348.273       27.843      860.352
08/12/2013  18:28:00     -371.620      -75.291      -11.048      140.046      134.927       65.827    19612.961    18205.368     4333.224        9.301        2.108      379.171       69.223        0.033      348.158       27.647      860.364
08/12/2013  18:29:00     -546.433     -161.167      -16.740      229.205      196.311       93.687    52535.128    38537.965     8777.342       21.233        4.993      569.705      108.824        0.036      348.069       27.491      860.357
08/12/2013  18:30:00     -346.978      -95.331      -12.297      202.021      166.482       97.169    40812.684    27716.368     9441.889       10.379        3.899      359.836      113.722        0.100      348.141       27.616      860.380
08/12/2013  18:31:00     -189.604     -169.957       25.622      188.494      154.100       99.454    35529.996    23746.705     9891.183        6.732        3.458      254.627      115.524        0.206      348.104       27.555      860.362
08/12/2013  18:32:00     -151.755      -44.320       11.367      207.436      113.075       91.410    43029.634    12785.976     8355.807        4.464        3.209      158.095       93.914        0.353      348.134       27.606      860.380
08/12/2013  18:33:00     -310.305      -81.553      -31.789      163.340      109.395       57.608    26679.959    11967.291     3318.667        7.295        2.098      320.843       72.343        0.051      348.157       27.644      860.414
08/12/2013  18:34:00     -217.053     -102.672      -11.546      131.480      102.020       64.070    17286.971    10408.029     4105.023        4.479        1.590      240.112       57.361        0.057      348.217       27.749      860.440
08/12/2013  18:35:00     -316.450      -97.992       -6.375      149.143      136.875       81.155    22243.678    18734.710     6586.137        7.867        2.378      331.275       75.876        0.052      348.181       27.686      860.436
08/12/2013  18:36:00     -450.689      -91.061      -28.528      159.996      153.410       80.269    25598.790    23534.642     6443.055       13.389        2.779      459.797       82.135        0.032      348.071       27.497      860.454
08/12/2013  18:37:00     -409.146     -103.195       -8.555      183.225      117.666       86.795    33571.447    13845.192     7533.434       11.653        2.748      421.959       93.087        0.049      348.018       27.404      860.434
08/12/2013  18:38:00     -255.330     -112.242       -2.151      232.815      144.033      100.476    54202.784    20745.381    10095.461        8.141        4.252      278.912      117.149        0.176      348.015       27.400      860.451
08/12/2013  18:39:00     -305.353      -92.683       -9.051      182.871      176.308       86.271    33441.824    31084.481     7442.613        8.693        3.598      319.109       93.402        0.086      348.040       27.442      860.463
08/12/2013  18:40:00     -415.984     -163.805       -6.544      223.144      196.262      109.388    49793.394    38518.808    11965.667       15.008        5.014      447.073      110.752        0.061      347.961       27.306      860.446
08/12/2013  18:41:00     -335.130      -98.868      -11.756      194.208      132.422       81.842    37716.663    17535.700     6698.103        9.208        3.098      349.410       89.709        0.066      347.981       27.342      860.471
08/12/2013  18:42:00     -366.840     -233.263       -0.914      204.984      173.810      101.382    42018.249    30209.865    10278.368       13.573        4.125      434.722      111.179        0.065      347.931       27.255      860.470
08/12/2013  18:43:00     -140.313      -38.762        6.355      123.093       79.639       56.641    15152.000     6342.406     3208.147        2.296        1.235      145.569       48.603        0.111      348.044       27.449      860.499
08/12/2013  18:44:00     -320.379      -91.995      -15.389      133.460      105.368       57.285    17811.447    11102.509     3281.575        7.176        1.610      333.326       57.276        0.030      348.005       27.383      860.494
08/12/2013  18:45:00     -325.102      -24.040       -5.234      266.133      158.799       90.509    70826.686    25217.257     8191.790       10.525        5.212      325.989      107.815        0.109      348.021       27.409      860.480
08/12/2013  18:46:00     -506.119       61.339      -31.055      297.415      177.610       93.978    88455.637    31545.135     8831.874       19.484        6.442      509.822      120.524        0.056      347.960       27.303      860.442
08/12/2013  18:47:00     -257.486     -124.437       13.061      192.899      133.367       76.479    37209.963    17786.716     5849.043        7.139        3.042      285.978       86.952        0.092      347.945       27.279      860.457
08/12/2013  18:48:00     -393.658     -179.979      -20.070      132.641      131.560       68.619    17593.529    17307.990     4708.584       11.368        1.981      432.850       66.403        0.024      347.921       27.237      860.494
08/12/2013  18:49:00     -432.963      -85.995       -8.015      228.601      175.757       84.137    52258.328    30890.556     7079.099       14.256        4.511      441.421       90.825        0.042      347.936       27.263      860.496
08/12/2013  18:50:00     -399.105     -108.138      -19.812      188.511      148.953       73.114    35536.525    22187.010     5345.722       11.721        3.153      413.495       83.199        0.040      347.904       27.206      860.496
08/12/2013  18:51:00     -303.602      -58.438       -0.271      154.148       99.727       61.886    23761.574     9945.460     3829.907        6.656        1.877      309.175       71.076        0.053      347.903       27.205      860.507
08/12/2013  18:52:00     -269.918     -118.898        3.234      109.351      145.706       65.862    11957.660    21230.373     4337.772        6.226        1.876      294.945       49.333        0.028      347.885       27.175      860.508
08/12/2013  18:53:00     -345.481     -176.149       -3.831      185.327      140.420       82.809    34346.198    19717.908     6857.283       10.565        3.046      387.796       78.667        0.041      347.841       27.099      860.510
08/12/2013  18:54:00     -363.711     -213.671        2.787      217.064      186.400       89.498    47116.808    34744.870     8009.904       13.390        4.494      421.831      104.155        0.061      347.829       27.077      860.501
08/12/2013  18:55:00     -386.480     -201.897      -20.161      174.151      129.985       76.402    30328.537    16896.018     5837.326       12.179        2.653      436.038       88.432        0.041      347.803       27.033      860.539
08/12/2013  18:56:00     -318.313     -151.374      -21.300      159.993      113.865       65.814    25597.887    12965.266     4331.538        8.379        2.145      352.473       72.410        0.042      347.826       27.073      860.540
08/12/2013  18:57:00     -334.401     -117.481        3.738      171.145      146.948       76.485    29290.461    21593.852     5849.957        9.118        2.837      354.437       86.146        0.059      347.808       27.042      860.559
08/12/2013  18:58:00     -284.365     -110.564      -17.108      166.409      149.493       68.433    27691.947    22348.294     4683.045        7.404        2.736      305.103       82.407        0.073      347.793       27.015      860.549
08/12/2013  18:59:00     -255.146     -197.353        0.510      231.832      194.065      105.572    53746.070    37661.033    11145.484       10.328        5.128      322.564      124.726        0.150      347.746       26.936      860.563
08/12/2013  19:00:00     -275.716     -132.336        9.848      231.887      131.666       87.508    53771.382    17335.882     7657.727        8.618        3.938      305.830      105.535        0.119      347.765       26.969      860.567
08/12/2013  19:01:00     -307.739     -236.742       -9.033      204.277      168.653       94.506    41729.079    28443.902     8931.397       11.495        3.955      388.266      110.215        0.081      347.713       26.879      860.580
08/12/2013  19:02:00     -511.303      -61.676      -40.585      253.169      157.122       84.938    64094.419    24687.328     7214.528       18.142        4.800      515.010      108.278        0.044      347.704       26.863      860.608
08/12/2013  19:03:00     -388.360     -138.390       -8.568      236.852      151.891       91.816    56098.682    23070.913     8430.233       12.881        4.380      412.281      108.309        0.069      347.706       26.867      860.601
08/12/2013  19:04:00     -390.425      -88.903      -14.012      182.567      161.329       93.088    33330.678    26027.163     8665.290       11.427        3.401      400.419      113.243        0.080      347.669       26.802      860.603
08/12/2013  19:05:00     -409.694     -195.906      -21.233      193.929      189.570       84.978    37608.631    35936.599     7221.318       14.371        4.038      454.123       90.623        0.040      347.636       26.746      860.596
08/12/2013  19:06:00     -338.739     -148.046       -7.443      185.634      163.378       63.024    34459.832    26692.343     3971.988       10.091        3.256      369.678       77.393        0.044      347.655       26.780      860.599
08/12/2013  19:07:00     -281.827     -170.753       -9.950      190.596      128.671       71.298    36326.753    16556.217     5083.434        8.331        2.898      329.519       86.060        0.068      347.681       26.824      860.597
08/12/2013  19:08:00     -366.808      -59.995       -2.594      236.157      134.836      104.611    55770.205    18180.720    10943.461       11.151        4.245      371.682      119.696        0.104      347.634       26.742      860.573
08/12/2013  19:09:00     -558.526     -110.194      -45.705      179.229      189.839       93.284    32122.983    36038.943     8701.944       20.151        3.843      569.293       94.318        0.027      347.599       26.683      860.584
08/12/2013  19:10:00     -370.734      -54.085       11.744      217.797      162.877       90.725    47435.573    26528.820     8230.971       11.134        4.110      374.659       86.599        0.053      347.631       26.737      860.587
08/12/2013  19:11:00     -330.777      -44.086      -11.004      179.040      159.019       75.075    32055.341    25287.135     5636.182        8.722        3.149      333.702       82.780        0.062      347.618       26.715      860.623
08/12/2013  19:12:00     -355.498      -49.685       -1.595      197.871      146.339       83.414    39153.122    21415.032     6957.965        9.818        3.376      358.953      100.970        0.079      347.609       26.699      860.664
08/12/2013  19:13:00     -392.037     -186.272      -12.413      215.827      158.493       92.046    46581.267    25119.899     8472.398       13.435        4.009      434.040      106.803        0.061      347.545       26.588      860.639
08/12/2013  19:14:00     -674.453     -154.562      -34.215      226.104      220.496       99.070    51123.064    48618.604     9814.899       29.473        5.478      691.937       96.588        0.019      347.500       26.511      860.616
08/12/2013  19:15:00     -442.333     -144.443       -0.106      265.570      190.132      101.989    70527.372    36150.252    10401.677       16.678        5.854      465.319      125.502        0.073      347.482       26.480      860.632
08/12/2013  19:16:00     -330.745     -133.942      -19.238      150.934      147.739       66.072    22781.127    21826.867     4365.556        8.833        2.449      356.837       59.489        0.028      347.522       26.549      860.664
08/12/2013  19:17:00     -285.601      -55.870       -8.693      165.105      123.732       74.545    27259.511    15309.666     5556.945        6.644        2.406      291.014       68.782        0.056      347.508       26.524      860.666
08/12/2013  19:18:00     -350.298      -27.329       -1.922      234.501      130.576       80.310    54990.899    17050.135     6449.734       10.096        3.925      351.362      108.592        0.096      347.437       26.400      860.696
08/12/2013  19:19:00     -562.118     -112.742      -15.072      240.444      226.645       94.520    57813.328    51368.167     8933.952       22.350        5.906      573.313       99.431        0.030      347.408       26.352      860.671
08/12/2013  19:20:00     -542.510     -137.287      -19.969      236.460      211.272       93.091    55913.276    44635.933     8666.013       21.137        5.461      559.611      100.490        0.032      347.368       26.283      860.663
08/12/2013  19:21:00     -479.181      -19.196      -18.469      186.469      152.734       75.723    34770.664    23327.700     5733.905       14.707        3.192      479.565       73.676        0.024      347.355       26.261      860.668
08/12/2013  19:22:00     -283.886      -44.585      -16.578      267.781      133.681       89.116    71706.536    17870.639     7941.731        9.017        4.876      287.365      123.331        0.184      347.366       26.281      860.676
08/12/2013  19:23:00     -499.271     -104.973       -9.849      213.541      149.558       87.914    45599.755    22367.584     7728.924       16.803        3.785      510.187       96.841        0.036      347.327       26.214      860.696
08/12/2013  19:24:00     -469.283      -96.962      -32.879      169.968      148.819       73.434    28889.255    22147.170     5392.594       14.356        2.821      479.195       53.189        0.012      347.300       26.164      860.681
08/12/2013  19:25:00     -254.355     -131.710      -10.590      183.256      160.170       92.213    33582.918    25654.474     8503.246        7.494        3.387      286.433       98.098        0.117      347.319       26.199      860.684
08/12/2013  19:26:00     -463.335     -153.331      -14.161      218.322      192.677       95.078    47664.658    37124.600     9039.767       16.609        4.691      488.046      102.798        0.044      347.289       26.146      860.702
08/12/2013  19:27:00     -454.894      -13.125      -24.504      193.954      164.130       80.153    37618.094    26938.635     6424.439       13.933        3.549      455.084       86.569        0.036      347.284       26.138      860.734
08/12/2013  19:28:00     -441.162     -178.229      -16.579      240.093      140.510       84.093    57644.821    19743.149     7071.581       15.555        4.223      475.803       97.189        0.042      347.268       26.109      860.738
08/12/2013  19:29:00     -445.604     -136.252      -18.937      194.470      143.588       77.516    37818.733    20617.533     6008.743       14.095        3.222      465.970       87.637        0.035      347.234       26.051      860.748
08/12/2013  19:30:00     -197.136      -59.356       12.437      118.346      106.453       53.142    14005.827    11332.205     2824.060        3.535        1.408      205.878       36.877        0.032      347.217       26.024      860.744
08/12/2013  19:31:00     -245.598      -80.992       -3.758      196.433      134.226       53.542    38586.075    18016.549     2866.791        6.317        2.973      258.607       67.369        0.068      347.226       26.039      860.744
08/12/2013  19:32:00     -646.272      -87.931      -49.079      173.345      204.635       98.924    30048.603    41875.407     9786.050       25.475        4.086      652.226       93.062        0.020      347.177       25.954      860.735
08/12/2013  19:33:00     -471.681       -4.188      -28.370      228.331      141.557       94.500    52134.979    20038.304     8930.187       15.219        4.055      471.700      103.941        0.049      347.157       25.922      860.767
08/12/2013  19:34:00     -408.801      -46.865      -23.141      185.647      161.511       74.152    34464.935    26085.898     5498.544       11.794        3.302      411.478       76.798        0.035      347.160       25.925      860.796
08/12/2013  19:35:00     -476.551      -50.655      -11.828      257.211      191.763      116.204    66157.715    36773.149    13503.451       17.310        5.822      479.236      128.659        0.072      347.166       25.934      860.826
08/12/2013  19:36:00     -534.861     -239.870      -26.507      239.836      171.142      113.451    57521.524    29289.505    12871.060       22.198        4.984      586.186      132.119        0.051      347.170       25.941      860.824
08/12/2013  19:37:00     -454.152      -38.561      -40.856      187.093      122.039       76.083    35003.647    14893.625     5788.664       13.254        2.784      455.786       87.560        0.037      347.150       25.909      860.900
08/12/2013  19:38:00     -439.876       31.497      -25.980      203.388      143.113       75.681    41366.745    20481.270     5727.685       13.136        3.379      441.003       82.069        0.035      347.128       25.868      860.926
08/12/2013  19:39:00     -354.024      -87.202       -9.093      232.848      166.136       84.194    54218.397    27601.128     7088.602       11.095        4.445      364.606       93.947        0.066      347.105       25.831      860.938
08/12/2013  19:40:00     -356.511      -79.771      -14.538      231.404      115.546       68.001    53547.843    13350.871     4624.124       10.259        3.576      365.326       80.462        0.049      347.105       25.831      860.968
08/12/2013  19:41:00     -296.249     -155.477       -2.597      163.679      126.866       81.636    26790.799    16094.859     6664.374        8.074        2.478      334.569       74.700        0.050      347.068       25.765      860.980
08/12/2013  19:42:00     -445.832     -117.088      -26.590      239.102      132.892       69.713    57169.973    17660.158     4859.913       14.642        3.985      460.951       72.628        0.025      347.063       25.756      860.975
08/12/2013  19:43:00     -505.478      -72.595      -21.953      274.377      176.798       94.222    75282.744    31257.460     8877.694       18.832        5.771      510.664      117.070        0.053      347.024       25.690      860.948
08/12/2013  19:44:00     -406.284      -74.406      -28.559      200.198      138.500       86.267    40079.156    19182.184     7442.020       11.905        3.335      413.041       97.229        0.055      347.022       25.687      860.956
08/12/2013  19:45:00     -363.859      -82.610       -6.062      177.352      166.181       78.517    31453.908    27616.253     6164.943       10.223        3.262      373.119       75.967        0.041      346.980       25.614      861.030
08/12/2013  19:46:00     -376.331     -190.795      -13.575      182.954      172.385       97.822    33472.145    29716.450     9569.235       12.547        3.638      421.934       98.757        0.055      346.978       25.610      861.034
08/12/2013  19:47:00     -178.008      -95.814        6.936      153.305      104.102       63.988    23502.406    10837.321     4094.406        3.967        1.922      202.156       79.151        0.153      346.989       25.632      861.052
08/12/2013  19:48:00       -1.126       -5.307       52.996       89.274       82.997       55.286     7969.838     6888.425     3056.510        1.037        0.896        5.425       49.233       82.369      346.887       25.458      861.037
08/12/2013  19:49:00     -271.399      -86.861       -2.246      179.320      133.447       77.287    32155.737    17808.090     5973.251        6.856        2.797      284.960       89.311        0.098      346.910       25.495      861.021
08/12/2013  19:50:00     -377.173      -59.265      -17.387      176.634      160.658       75.652    31199.680    25810.836     5723.161       10.439        3.137      381.801       77.372        0.041      346.909       25.492      861.019
08/12/2013  19:51:00     -322.716      -99.450       -3.623      178.077      154.537       83.471    31711.456    23881.599     6967.352        8.829        3.128      337.692       83.903        0.062      346.862       25.411      861.045
08/12/2013  19:52:00     -311.589     -102.231      -15.047      233.321      206.591      100.586    54438.540    42680.022    10117.573       10.748        5.362      327.931      110.035        0.113      346.896       25.470      861.033
08/12/2013  19:53:00     -294.540      -36.572      -11.867      178.255      131.146       75.844    31774.797    17199.149     5752.244        7.147        2.736      296.802       77.648        0.068      346.874       25.432      861.051
08/12/2013  19:54:00     -315.959      -70.070       -8.077      179.227      112.692       79.112    32122.255    12699.453     6258.663        7.793        2.554      323.636       88.470        0.075      346.846       25.385      861.066
08/12/2013  19:55:00     -371.622     -104.361       -2.847      216.076      143.625       73.496    46688.670    20628.047     5401.716       11.085        3.636      385.998       88.715        0.053      346.841       25.375      861.070
08/12/2013  19:56:00     -402.966      -41.050       -8.960      171.641      115.848       77.144    29460.591    13420.724     5951.236       10.648        2.442      405.052       80.040        0.039      346.816       25.333      861.105
08/12/2013  19:57:00     -259.508     -124.464       -0.899      165.318      149.286       82.328    27330.115    22286.319     6777.951        6.961        2.820      287.811       87.345        0.092      346.797       25.299      861.113
08/12/2013  19:58:00     -146.150      -45.596       20.082      118.599      108.031       64.334    14065.666    11670.778     4138.858        2.685        1.494      153.097       57.396        0.141      346.802       25.309      861.134
08/12/2013  19:59:00     -351.040     -108.923       -5.530      183.768      122.501       77.981    33770.856    15006.473     6081.089        9.498        2.743      367.550       76.970        0.044      346.765       25.245      861.179
08/12/2013  20:00:00     -348.149      -26.629      -13.996      230.875      132.614       85.946    53303.325    17586.386     7386.715       10.018        3.914      349.166      115.703        0.110      346.746       25.211      861.189
08/12/2013  20:01:00     -219.289      -18.673        6.509      132.591       94.220       67.544    17580.403     8877.408     4562.181        3.974        1.551      220.083       68.150        0.096      346.688       25.111      861.190
08/12/2013  20:02:00     -263.975     -167.749      -15.690      194.072      189.234       67.855    37663.887    35809.327     4604.314        8.806        3.904      312.766       92.675        0.088      346.732       25.187      861.197
08/12/2013  20:03:00     -228.634      -88.897        6.733      203.365      174.535       67.702    41357.290    30462.388     4583.540        6.830        3.820      245.308      104.713        0.182      346.699       25.133      861.202
08/12/2013  20:04:00     -254.968     -101.499        3.896      166.613       98.685       56.986    27760.026     9738.811     3247.401        5.803        2.037      274.428       72.925        0.071      346.678       25.095      861.235
08/12/2013  20:05:00     -204.608      -38.520        3.821      141.442      111.786       63.180    20005.920    12496.188     3991.729        3.992        1.825      208.202       69.386        0.111      346.652       25.050      861.260
08/12/2013  20:06:00     -342.646      -24.392      -10.595      195.570      103.674       74.681    38247.554    10748.202     5577.212        8.633        2.729      343.513       89.639        0.068      346.687       25.110      861.262
08/12/2013  20:07:00     -493.784     -241.400      -11.911      203.244      175.927       88.725    41308.255    30950.391     7872.058       19.117        4.007      549.634       93.363        0.029      346.682       25.103      861.248
08/12/2013  20:08:00     -415.392     -140.270      -16.418      198.310      176.366       72.701    39326.812    31105.078     5285.458       13.409        3.786      438.437       83.781        0.037      346.656       25.058      861.292
08/12/2013  20:09:00     -253.127     -116.189       10.991      225.988      172.764       92.941    51070.369    29847.557     8638.114        8.361        4.478      278.519      108.003        0.150      346.640       25.029      861.307
08/12/2013  20:10:00     -427.071     -198.208      -12.851      180.607      150.441       83.574    32618.993    22632.393     6984.638       14.203        3.112      470.825       72.942        0.024      346.672       25.082      861.354
08/12/2013  20:11:00     -299.914      -20.454       -5.363      178.945       94.684       78.704    32021.148     8965.118     6194.315        6.878        2.359      300.611       81.820        0.074      346.613       24.982      861.413
08/12/2013  20:12:00     -332.206      -38.081       -4.072      153.024      167.637       79.604    23416.300    28102.029     6336.774        8.483        2.893      334.382       82.338        0.061      346.634       25.018      861.420
08/12/2013  20:13:00     -471.625     -122.138       -5.561      207.171      170.423       88.850    42919.857    29043.948     7894.322       15.861        3.993      487.184      103.793        0.045      346.630       25.013      861.427
08/12/2013  20:14:00     -377.134      -68.250      -25.104      162.999       94.024       63.566    26568.832     8840.512     4040.669        9.348        1.973      383.260       70.577        0.034      346.614       24.984      861.425
08/12/2013  20:15:00     -350.276      -84.000      -25.006      204.936      114.740       62.668    41998.569    13165.173     3927.327        9.472        2.955      360.207       76.595        0.045      346.594       24.950      861.424
08/12/2013  20:16:00     -436.283     -177.673      -15.369      212.964      164.782       88.471    45353.708    27153.062     7827.136       15.123        4.017      471.074       94.729        0.040      346.543       24.864      861.429
08/12/2013  20:17:00     -312.245     -112.641       -3.555      163.837      156.511       77.977    26842.573    24495.649     6080.471        8.380        2.871      331.942       83.515        0.063      346.538       24.855      861.449
08/12/2013  20:18:00     -474.775      -48.277      -30.266      140.482      135.527       83.775    19735.241    18367.435     7018.308       13.688        2.256      477.223       80.084        0.028      346.551       24.879      861.452
08/12/2013  20:19:00     -292.433       -6.386      -16.006      125.688      107.446       62.041    15797.378    11544.643     3849.064        5.850        1.560      292.503       62.445        0.046      346.515       24.815      861.486
08/12/2013  20:20:00     -387.464      -33.947      -17.764      200.857      131.507       81.011    40343.377    17294.210     6562.758       10.789        3.210      388.948       94.677        0.059      346.502       24.792      861.508
08/12/2013  20:21:00     -329.358      -72.327       -0.894      193.973      106.508       65.562    37625.351    11343.873     4298.328        8.348        2.663      337.206       73.136        0.047      346.479       24.753      861.511
08/12/2013  20:22:00     -185.476      -71.747        4.318      144.627      112.261       53.442    20916.871    12602.542     2856.023        3.797        1.819      198.869       64.379        0.105      346.426       24.663      861.539
08/12/2013  20:23:00     -277.472      -14.195       -7.063      246.116      120.192       63.666    60573.021    14446.195     4053.317        7.814        3.954      277.835       84.007        0.091      346.420       24.652      861.553
08/12/2013  20:24:00     -462.365      -37.557      -32.577      181.454      146.706       78.013    32925.543    21522.651     6086.039       13.838        3.027      463.888       78.511        0.029      346.449       24.701      861.527
08/12/2013  20:25:00     -329.272      -50.090       -9.195      167.863      118.305       69.628    28177.871    13996.060     4848.019        7.901        2.351      333.060       81.934        0.061      346.405       24.625      861.553
08/12/2013  20:26:00     -238.874       -1.407        5.203      122.667      105.471       65.625    15047.095    11124.208     4306.680        4.378        1.524      238.878       65.736        0.076      346.386       24.593      861.572
08/12/2013  20:27:00     -352.047     -114.869       -5.632      220.650      192.016       96.225    48686.467    36870.318     9259.189       11.597        4.741      370.314       98.655        0.071      346.386       24.593      861.568
08/12/2013  20:28:00     -279.389      -45.662      -18.692      178.955      103.470       66.181    32024.934    10705.950     4379.892        6.379        2.356      283.095       82.331        0.085      346.388       24.596      861.621
08/12/2013  20:29:00     -367.481      -99.873      -17.334      183.929      151.605       84.376    33829.828    22984.015     7119.367       10.461        3.197      380.811       83.936        0.049      346.375       24.573      861.649
08/12/2013  20:30:00     -332.127      -55.246      -24.390      145.041      114.926       76.221    21037.001    13208.042     5809.654        7.700        2.003      336.691       67.923        0.041      346.377       24.576      861.689
08/12/2013  20:31:00     -416.305      -41.703      -17.367      169.744      108.972       83.336    28813.097    11874.948     6944.883       11.148        2.382      418.388       92.166        0.049      346.386       24.591      861.701
08/12/2013  20:32:00     -353.889      -55.674      -20.361      167.665      119.596       74.914    28111.643    14303.247     5612.084        8.838        2.401      358.241       87.803        0.060      346.373       24.571      861.726
08/12/2013  20:33:00     -292.170      -30.571       -6.155      159.797      121.056       72.372    25534.994    14654.601     5237.705        6.587        2.271      293.765       80.560        0.075      346.344       24.521      861.746
08/12/2013  20:34:00     -296.491      -69.905       -4.074      211.151      141.803       73.440    44584.757    20107.987     5393.441        8.144        3.504      304.620       96.006        0.099      346.360       24.548      861.748
08/12/2013  20:35:00     -316.776      -41.813      -19.989      219.411      100.606       62.999    48141.066    10121.560     3968.934        8.235        3.112      319.524       88.933        0.077      346.313       24.468      861.746
08/12/2013  20:36:00     -330.509      -92.810       -3.259      160.927      129.027       73.123    25897.379    16648.051     5346.970        8.287        2.395      343.292       82.763        0.058      346.302       24.449      861.806
08/12/2013  20:37:00     -169.252       -4.829       10.946      150.111       85.720       62.336    22533.228     7347.895     3885.807        3.127        1.688      169.321       72.739        0.185      346.234       24.332      861.859
08/12/2013  20:38:00     -232.019      -76.461       -6.650      111.702      100.161       57.828    12477.415    10032.138     3344.065        4.278        1.293      244.293       57.939        0.056      346.241       24.343      861.892
08/12/2013  20:39:00     -283.065     -106.673      -13.721      125.294      110.823       58.355    15698.529    12281.761     3405.306        6.153        1.569      302.498       45.654        0.023      346.246       24.350      861.914
08/12/2013  20:40:00     -343.410       -6.643      -18.159      158.182      138.415       67.079    25021.591    19158.684     4499.582        8.348        2.434      343.474       73.075        0.045      346.228       24.320      861.929
08/12/2013  20:41:00     -423.579      -26.489      -43.373      134.300       99.086       58.994    18036.460     9817.998     3480.305       10.666        1.567      424.407       49.298        0.013      346.267       24.388      861.951
08/12/2013  20:42:00     -257.495      -38.388      -19.255       94.075       94.716       48.759     8850.058     8971.080     2377.428        4.417        1.010      260.341       41.547        0.025      346.215       24.298      861.971
08/12/2013  20:43:00     -359.387     -116.992      -10.985      199.432      104.643       69.041    39772.981    10950.250     4766.684        9.922        2.774      377.950       76.995        0.042      346.195       24.265      861.969
08/12/2013  20:44:00     -508.292       14.857      -49.375      140.754      154.046       67.511    19811.583    23730.081     4557.752       15.455        2.405      508.509       57.292        0.013      346.212       24.292      862.026
08/12/2013  20:45:00     -467.419      -83.474      -28.308      185.747      139.921       69.492    34501.969    19577.950     4829.108       14.257        2.945      474.814       77.948        0.027      346.200       24.272      862.052
08/12/2013  20:46:00     -339.247     -108.416      -18.386      121.132       97.461       63.373    14673.032     9498.587     4016.122        7.768        1.409      356.150       61.923        0.030      346.208       24.286      862.068
08/12/2013  20:47:00     -253.865     -126.501       -1.516      180.318      106.390       74.188    32514.706    11318.813     5503.826        6.489        2.467      283.636       87.555        0.095      346.162       24.208      862.098
08/12/2013  20:48:00     -214.402      -40.543       -9.785      133.788      106.166       69.755    17899.107    11271.298     4865.772        4.087        1.702      218.202       74.007        0.115      346.179       24.238      862.138
08/12/2013  20:49:00     -113.283      -27.084      -10.371       92.805       53.941       40.383     8612.742     2909.621     1630.800        1.341        0.658      116.476       40.021        0.118      346.126       24.149      862.174
08/12/2013  20:50:00     -281.604       -7.088      -30.845      141.571      121.758       55.130    20042.408    14824.932     3039.278        5.910        1.895      281.693       47.928        0.029      346.110       24.118      862.205
08/12/2013  20:51:00     -312.401      -38.606      -17.913      178.925      132.215       52.602    32014.271    17480.746     2767.003        7.583        2.613      314.778       49.889        0.025      346.084       24.073      862.231
08/12/2013  20:52:00     -322.853      -44.492      -31.633      130.293      101.342       67.033    16976.375    10270.109     4493.411        6.947        1.587      325.904       69.408        0.045      346.082       24.071      862.259
08/12/2013  20:53:00     -285.255      -17.588      -23.897       90.751       98.349       45.823     8235.754     9672.563     2099.720        5.113        1.000      285.797       33.992        0.014      346.087       24.078      862.280
08/12/2013  20:54:00     -330.520       29.544      -25.051      138.775      112.063       56.262    19258.475    12558.128     3165.401        7.286        1.749      331.838       56.488        0.029      346.071       24.051      862.296
08/12/2013  20:55:00     -202.107      -34.119      -13.796      118.186       82.061       47.881    13967.927     6733.979     2292.588        3.259        1.150      204.967       58.468        0.081      346.030       23.981      862.324
08/12/2013  20:56:00      -82.835       28.424        2.762       79.358       52.616       42.121     6297.667     2768.458     1774.207        0.926        0.542       87.576       40.909        0.218      345.977       23.894      862.336
08/12/2013  20:57:00      -41.966       83.987       22.306       71.863       86.632       59.525     5164.350     7505.143     3543.267        1.276        0.811       93.888       32.714        0.121      345.885       23.734      862.344
08/12/2013  20:58:00     -125.274      175.722      -16.838       68.487       71.374       44.742     4690.435     5094.275     2001.842        2.932        0.589      215.805       44.745        0.043      345.896       23.752      862.316
08/12/2013  20:59:00     -135.315      126.607      -24.697       47.773       51.506       29.515     2282.247     2652.914      871.131        2.038        0.290      185.309       24.843        0.018      345.961       23.865      862.289
08/12/2013  21:00:00     -165.105      162.420      -30.930       75.447       93.394       32.265     5692.261     8722.395     1041.016        3.502        0.773      231.603       33.146        0.020      345.989       23.909      862.298
08/12/2013  21:01:00     -205.682        7.125      -25.557       86.823       49.827       34.935     7538.214     2482.735     1220.443        2.712        0.562      205.805       28.919        0.020      345.955       23.852      862.327
08/12/2013  21:02:00     -344.197       16.653      -38.308       86.180       64.956       40.824     7427.039     4219.254     1666.580        6.676        0.666      344.600       34.695        0.010      345.952       23.846      862.356
08/12/2013  21:03:00     -366.271       18.042      -33.354      163.305       84.966       64.659    26668.597     7219.261     4180.791        8.682        1.903      366.715       83.312        0.052      345.959       23.858      862.350
08/12/2013  21:04:00     -255.024      -69.154      -20.425      117.238       76.963       45.820    13744.758     5923.358     2099.477        4.600        1.088      264.234       42.388        0.026      345.945       23.835      862.337
08/12/2013  21:05:00     -229.138      -44.853      -10.620      103.937       97.057       50.772    10802.864     9419.970     2577.798        3.871        1.140      233.486       41.501        0.032      345.920       23.792      862.336
08/12/2013  21:06:00     -258.703      -42.704      -12.267      112.518      124.586       44.649    12660.198    15521.785     1993.565        4.953        1.509      262.204       45.052        0.030      345.910       23.775      862.358
08/12/2013  21:07:00     -104.854      -25.362       27.361      150.966       91.129       67.628    22790.679     8304.500     4573.521        2.402        1.783      107.877       79.943        0.549      345.877       23.719      862.354
08/12/2013  21:08:00     -387.518       29.243      -38.522      106.893      116.720       61.010    11426.037    13623.464     3722.242        9.064        1.439      388.619       50.664        0.017      345.955       23.853      862.377
08/12/2013  21:09:00     -428.688      -71.063      -17.461      191.040      170.917       78.330    36496.173    29212.704     6135.654       13.047        3.592      434.538       93.945        0.047      345.927       23.805      862.348
08/12/2013  21:10:00     -340.248     -134.210       -8.942      147.751      124.411       80.835    21830.265    15478.115     6534.300        8.884        2.192      365.761       76.454        0.044      345.925       23.800      862.357
08/12/2013  21:11:00     -319.420     -109.230       -8.100      157.675      107.532       59.442    24861.264    11563.027     3533.372        7.699        1.998      337.580       50.012        0.022      345.891       23.743      862.389
08/12/2013  21:12:00     -420.544      -70.356      -41.093      138.773      131.475       73.796    19258.080    17285.639     5445.834       11.274        2.099      426.389       77.452        0.033      345.934       23.815      862.382
08/12/2013  21:13:00     -317.764      -74.353      -21.842      100.173      115.308       57.765    10034.596    13295.870     3336.750        6.682        1.333      326.347       41.461        0.016      345.907       23.770      862.379
08/12/2013  21:14:00     -187.551      -33.467       -5.905      115.041       83.408       50.547    13234.457     6956.939     2555.012        2.953        1.137      190.514       47.829        0.063      345.860       23.691      862.350
08/12/2013  21:15:00     -292.342      -82.344      -21.477      126.535      112.682       58.728    16011.166    12697.189     3448.962        6.243        1.608      303.718       69.044        0.052      345.834       23.644      862.362
08/12/2013  21:16:00     -274.371      -50.463      -13.549       98.155      105.485       56.414     9634.410    11127.108     3182.510        5.097        1.197      278.973       50.246        0.032      345.787       23.563      862.392
08/12/2013  21:17:00     -233.372       -9.768       -9.861      159.487      112.888       73.642    25436.015    12743.705     5423.109        4.912        2.180      233.576       76.129        0.106      345.837       23.651      862.424
08/12/2013  21:18:00     -141.497      -33.891        3.861      152.428      100.987       58.934    23234.236    10198.331     3473.227        2.904        1.845      145.500       62.698        0.186      345.866       23.702      862.407
08/12/2013  21:19:00     -262.050      -99.082       -6.484      143.542      153.450       61.243    20604.384    23546.944     3750.727        6.321        2.395      280.156       63.609        0.052      345.856       23.683      862.399
08/12/2013  21:20:00     -353.641     -107.575       -8.813      140.467      126.448       71.818    19730.963    15989.001     5157.883        8.879        2.044      369.640       74.310        0.040      345.793       23.574      862.398
08/12/2013  21:21:00     -310.007     -195.189      -19.474      201.454      213.004      102.728    40583.710    45370.586    10553.053       11.553        4.825      366.338      100.140        0.075      345.784       23.558      862.392
08/12/2013  21:22:00     -372.503      -84.163      -17.429      241.399      188.239      102.353    58273.346    35434.052    10476.084       12.515        5.209      381.892      104.566        0.075      345.808       23.601      862.455
08/12/2013  21:23:00     -269.763      -36.071        0.538      191.090      142.043       74.354    36515.373    20176.194     5528.483        6.814        3.111      272.164       79.271        0.085      345.796       23.580      862.528
08/12/2013  21:24:00     -394.118     -121.675      -24.033      126.998      110.807       62.471    16128.422    12278.216     3902.579       10.150        1.615      412.473       59.667        0.021      345.818       23.618      862.479
08/12/2013  21:25:00     -253.254      -26.997      -16.235       78.591      105.185       42.792     6176.618    11063.966     1831.124        4.210        0.954      254.689       35.394        0.019      345.754       23.509      862.471
08/12/2013  21:26:00     -382.432      -26.789      -21.304      173.399      119.523       59.389    30067.190    14285.744     3527.053        9.764        2.394      383.369       69.927        0.033      345.686       23.391      862.509
08/12/2013  21:27:00     -385.503      -46.411      -22.904      156.869      122.380       73.658    24607.873    14976.897     5425.442        9.814        2.251      388.287       71.821        0.034      345.673       23.369      862.518
08/12/2013  21:28:00     -386.723      -70.964      -17.202      214.257      138.134       77.371    45906.241    19080.987     5986.288       11.292        3.549      393.180       80.861        0.042      345.646       23.321      862.529
08/12/2013  21:29:00     -314.741      -69.261       -2.625      211.092      129.270      103.380    44559.839    16710.801    10687.347        8.790        3.598      322.271      126.065        0.153      345.657       23.342      862.580
08/12/2013  21:30:00     -380.746      -77.798      -22.471      190.923      159.203       83.513    36451.577    25345.730     6974.432       11.014        3.439      388.613       80.387        0.043      345.657       23.340      862.616
08/12/2013  21:31:00     -377.612      -64.352      -26.923      148.669      127.431       58.892    22102.578    16238.571     3468.265        9.463        2.090      383.057       64.301        0.028      345.657       23.340      862.649
08/12/2013  21:32:00     -233.974       -2.622       -3.126       95.512       89.234       49.496     9122.613     7962.681     2449.813        3.714        0.977      233.988       47.588        0.041      345.628       23.292      862.658
08/12/2013  21:33:00     -315.148      -66.745      -40.019       69.412       64.757       43.714     4818.061     4193.512     1910.951        5.815        0.546      322.139       20.238        0.004      345.672       23.366      862.627
08/12/2013  21:34:00     -333.004      -29.867      -24.888      134.629       85.685       53.173    18125.049     7341.919     2827.343        7.034        1.415      334.341       52.396        0.025      345.616       23.270      862.642
08/12/2013  21:35:00     -237.051      -47.618      -16.897      102.935       76.312       52.190    10595.658     5823.541     2723.827        3.894        0.957      241.786       47.026        0.038      345.560       23.174      862.703
08/12/2013  21:36:00     -204.018      -60.260      -23.287      106.331       67.200       53.819    11306.341     4515.877     2896.450        3.225        0.936      212.731       57.197        0.072      345.528       23.120      862.732
08/12/2013  21:37:00     -164.935       -4.749        1.467      145.191       85.020       55.206    21080.301     7228.462     3047.678        2.929        1.568      165.003       68.583        0.173      345.491       23.058      862.756
08/12/2013  21:38:00     -157.326      -31.259      -18.238      103.894       51.549       39.403    10793.962     2657.254     1552.587        2.053        0.750      160.402       38.253        0.057      345.517       23.103      862.777
08/12/2013  21:39:00       -3.642        8.576       -4.138       30.983       71.845       28.079      959.943     5161.687      788.455        0.351        0.346        9.318       18.919        4.123      345.433       22.960      862.794
08/12/2013  21:40:00       -7.834       79.898       -0.584       47.346       49.285       38.057     2241.642     2428.969     1448.365        0.628        0.306       80.281       28.830        0.129      345.434       22.959      862.798
08/12/2013  21:41:00      -87.229      206.191      -29.278      101.410       76.605       43.656    10284.027     5868.301     1905.840        3.452        0.903      223.883       45.594        0.041      345.475       23.030      862.788
08/12/2013  21:42:00      -32.123      167.900      -19.809       40.642       57.834       32.853     1651.733     3344.740     1079.300        1.784        0.304      170.945       27.791        0.026      345.346       22.809      862.820
08/12/2013  21:43:00      -74.753      144.963      -25.823       66.586       62.635       37.989     4433.720     3923.127     1443.140        1.853        0.490      163.102       35.041        0.046      345.299       22.728      862.841
08/12/2013  21:44:00      -71.737        9.300      -14.652       68.792       57.302       24.105     4732.385     3283.463      581.068        0.702        0.430       72.338       19.360        0.072      345.408       22.918      862.873
08/12/2013  21:45:00      -87.488      125.070      -26.527       50.360       61.388       33.213     2536.094     3768.468     1103.097        1.570        0.370      152.632       30.169        0.039      345.464       23.011      862.853
08/12/2013  21:46:00      -22.060       36.063       -4.903       44.322       24.939       21.667     1964.472      621.951      469.480        0.243        0.153       42.275       17.791        0.177      345.371       22.852      862.857
08/12/2013  21:47:00     -115.810      118.404      -26.990       60.080       78.456       34.265     3609.579     6155.290     1174.073        1.955        0.547      165.624       35.944        0.047      345.400       22.902      862.869
08/12/2013  21:48:00     -168.598       57.716      -23.156       65.090       47.832       30.648     4236.646     2287.887      939.295        1.988        0.373      178.203       24.201        0.018      345.432       22.956      862.912
08/12/2013  21:49:00     -100.427       71.116       -4.109       39.418       34.675       31.693     1553.799     1202.377     1004.467        0.946        0.188      123.057       21.457        0.030      345.398       22.899      862.910
08/12/2013  21:50:00      -86.677      123.435       -9.540       41.258       69.454       35.017     1702.199     4823.882     1226.163        1.529        0.388      150.828       32.574        0.047      345.310       22.748      862.935
08/12/2013  21:51:00     -108.867      110.508      -23.666       49.088       35.329       26.280     2409.601     1248.169      690.660        1.449        0.217      155.126       16.075        0.011      345.305       22.738      862.914
08/12/2013  21:52:00     -176.933      151.916      -40.549       52.539       70.492       34.898     2760.322     4969.096     1217.854        3.249        0.447      233.204       33.194        0.020      345.307       22.741      862.935
08/12/2013  21:53:00     -120.142      184.575      -28.821       57.919       64.565       39.179     3354.570     4168.696     1534.970        2.919        0.453      220.232       30.838        0.020      345.252       22.647      862.947
08/12/2013  21:54:00     -130.898      119.278      -18.905       57.926       54.172       31.970     3355.470     2934.606     1022.060        1.951        0.366      177.092       31.894        0.032      345.235       22.619      862.966
08/12/2013  21:55:00      -91.725      174.523      -27.600       64.657       63.622       41.330     4180.525     4047.780     1708.202        2.478        0.497      197.159       36.407        0.034      345.272       22.681      862.966
08/12/2013  21:56:00      -96.666      129.881      -10.558       53.681       78.498       40.468     2881.625     6161.914     1637.670        1.850        0.534      161.905       41.235        0.065      345.272       22.681      862.946
08/12/2013  21:57:00      -91.563      119.944      -24.319       42.714       50.969       20.974     1824.465     2597.826      439.916        1.411        0.243      150.898       22.539        0.022      345.376       22.859      862.930
08/12/2013  21:58:00      -70.850      154.586      -10.531       73.033       65.659       51.712     5333.829     4311.157     2674.106        2.067        0.616      170.049       40.971        0.058      345.275       22.687      862.922
08/12/2013  21:59:00     -111.031      150.732      -19.693       65.717       68.667       36.995     4318.773     4715.206     1368.636        2.292        0.520      187.211       35.105        0.035      345.300       22.728      862.904
08/12/2013  22:00:00     -104.130      152.232      -20.683       59.321       86.396       37.907     3519.031     7464.290     1436.932        2.343        0.621      184.439       24.963        0.018      345.291       22.713      862.901
08/12/2013  22:01:00      -94.290      162.437      -24.183       60.630       70.752       48.980     3676.017     5005.851     2399.082        2.347        0.554      187.820       44.936        0.057      345.269       22.676      862.893
08/12/2013  22:02:00     -105.334      284.661      -41.095       92.191      113.869       42.744     8499.136    12966.252     1827.080        5.855        1.165      303.525       23.932        0.006      345.323       22.765      862.873
08/12/2013  22:03:00     -114.693      257.672      -26.581       69.201      117.173       58.292     4788.738    13729.515     3397.965        5.108        1.096      282.045       44.761        0.025      345.325       22.772      862.884
08/12/2013  22:04:00     -148.092       69.912      -13.032       73.459       50.036       41.006     5396.158     2503.566     1681.484        1.828        0.479      163.765       19.955        0.015      345.323       22.771      862.890
08/12/2013  22:05:00     -176.832      169.620      -40.961       62.768       91.693       43.830     3939.791     8407.655     1921.088        3.799        0.713      245.032       48.686        0.039      345.349       22.812      862.890
08/12/2013  22:06:00     -119.920       55.720      -19.516       59.678       51.251       30.187     3561.479     2626.704      911.244        1.248        0.355      132.232       12.001        0.008      345.246       22.638      862.896
08/12/2013  22:07:00     -177.568      -33.613      -10.747       74.771       46.875       33.899     5590.653     2197.277     1149.133        2.085        0.447      180.721       31.364        0.030      345.246       22.637      862.897
08/12/2013  22:08:00     -237.418        1.133      -21.009       72.798       62.111       41.819     5299.542     3857.753     1748.865        3.386        0.545      237.420       43.188        0.033      345.198       22.553      862.895
08/12/2013  22:09:00     -165.089        0.661       -6.118       55.000       51.109       34.733     3024.970     2612.153     1206.370        1.707        0.342      165.091       24.152        0.021      345.189       22.539      862.875
08/12/2013  22:10:00     -147.943      -43.054       -7.660       77.057       49.668       33.386     5937.836     2466.865     1114.610        1.666        0.476      154.081       31.027        0.041      345.092       22.375      862.863
08/12/2013  22:11:00     -190.206      -43.582       -4.896       91.083       56.582       40.702     8296.048     3201.466     1656.631        2.563        0.658      195.135       46.019        0.056      345.105       22.395      862.852
08/12/2013  22:12:00     -267.847       19.961      -17.662      116.689       86.039       42.691    13616.214     7402.776     1822.558        4.764        1.142      268.589       48.865        0.033      345.129       22.437      862.855
08/12/2013  22:13:00     -215.898      -43.936       -2.064      124.632       77.752       51.552    15533.055     6045.365     2657.562        3.639        1.212      220.323       60.407        0.075      345.136       22.447      862.855
08/12/2013  22:14:00     -245.753      -46.231       -2.262      132.801      112.828       49.317    17635.987    12730.208     2432.169        4.766        1.640      250.064       63.442        0.064      345.160       22.488      862.858
08/12/2013  22:15:00     -202.145      -82.099       -4.918      123.350       93.595       55.283    15215.288     8759.976     3056.260        3.732        1.352      218.181       60.764        0.078      345.137       22.450      862.881
08/12/2013  22:16:00     -204.261      -81.664       -3.790      117.137       71.907       46.818    13721.178     5170.565     2191.965        3.474        1.054      219.981       48.168        0.048      345.188       22.537      862.884
08/12/2013  22:17:00     -230.331      -79.425        1.394       90.451       86.414       50.743     8181.334     7467.432     2574.859        3.879        0.911      243.641       44.957        0.034      345.212       22.578      862.894
08/12/2013  22:18:00     -221.413       -2.714      -10.604      125.114       97.544       58.339    15653.602     9514.889     3403.489        3.885        1.429      221.430       53.811        0.059      345.201       22.559      862.905
08/12/2013  22:19:00     -105.267      -41.494       13.613       99.754       52.571       36.002     9950.770     2763.714     1296.118        1.350        0.701      113.150       42.166        0.139      345.174       22.515      862.917
08/12/2013  22:20:00     -143.289      -34.182      -10.152       82.175       49.046       30.234     6752.789     2405.466      914.080        1.594        0.504      147.309       32.519        0.049      345.169       22.506      862.919
08/12/2013  22:21:00     -207.005      -64.574       -7.505       98.762       59.529       42.632     9753.835     3543.657     1817.523        3.109        0.756      216.843       36.098        0.028      345.151       22.474      862.916
08/12/2013  22:22:00     -192.391      -27.244       -5.615      127.631       76.911       48.161    16289.629     5915.375     2319.506        3.115        1.226      194.311       52.321        0.073      345.119       22.419      862.930
08/12/2013  22:23:00     -135.021      -12.529        6.647       83.240       95.077       47.514     6928.925     9039.572     2257.559        1.833        0.911      135.601       48.963        0.130      345.068       22.334      862.936
08/12/2013  22:24:00     -144.149      -40.686       -3.480       99.881       63.252       49.901     9976.202     4000.837     2490.089        1.945        0.823      149.781       51.619        0.119      345.057       22.316      862.943
08/12/2013  22:25:00     -349.135      -45.834      -33.469      119.210       90.342       55.609    14211.134     8161.667     3092.329        7.529        1.273      352.130       62.332        0.031      345.115       22.412      862.932
08/12/2013  22:26:00     -202.892      -32.128       -1.379       85.333       82.916       45.553     7281.797     6875.086     2075.096        2.921        0.812      205.420       41.702        0.041      345.052       22.304      862.926
08/12/2013  22:27:00     -194.161      -80.559      -10.510      108.157       91.807       45.302    11697.956     8428.509     2052.268        3.324        1.109      210.210       57.041        0.074      345.021       22.251      862.922
08/12/2013  22:28:00     -272.372      -59.028       -2.901      155.229       76.540       60.618    24095.989     5858.320     3674.545        5.565        1.681      278.694       79.472        0.081      345.033       22.272      862.922
08/12/2013  22:29:00     -187.825      -30.031       -6.546       77.894       57.959       38.547     6067.449     3359.246     1485.895        2.357        0.546      190.211       39.915        0.044      345.000       22.215      862.923
08/12/2013  22:30:00     -287.343       32.079      -24.916      104.975       87.033       42.625    11019.655     7574.670     1816.851        5.231        1.021      289.128       45.069        0.024      345.011       22.233      862.948
08/12/2013  22:31:00     -321.048        4.290      -21.979      110.585       90.403       50.284    12229.082     8172.786     2528.478        6.325        1.147      321.077       51.185        0.025      344.991       22.199      862.949
08/12/2013  22:32:00     -239.392       10.956      -17.557      159.915       82.777       56.694    25572.867     6852.043     3214.193        4.668        1.782      239.643       77.392        0.104      344.956       22.140      862.965
08/12/2013  22:33:00     -218.858      -15.434      -19.109      148.585      109.239       52.209    22077.368    11933.159     2725.753        4.261        1.837      219.402       68.796        0.098      344.977       22.178      862.963
08/12/2013  22:34:00      -39.563       45.258       28.847      115.661       54.592       47.123    13377.490     2980.301     2220.602        1.151        0.929       60.113       58.279        0.940      344.857       21.974      863.001
08/12/2013  22:35:00     -112.458       59.553        0.725       75.713       33.924       27.601     5732.483     1150.835      761.817        1.192        0.382      127.253       34.532        0.074      344.866       21.989      863.011
08/12/2013  22:36:00      -82.708       69.690      -15.308       28.794       56.260       26.200      829.077     3165.170      686.444        0.831        0.234      108.154       25.909        0.057      344.881       22.014      863.034
08/12/2013  22:37:00      -27.209       49.840       -5.181       40.471       61.544       23.616     1637.871     3787.638      557.702        0.462        0.299       56.783       15.901        0.078      344.851       21.962      863.046
08/12/2013  22:38:00        9.342       60.072       -7.915       34.771       33.893       18.858     1209.042     1148.755      355.635        0.324        0.136       60.794        9.977        0.027      344.804       21.883      863.060
08/12/2013  22:39:00       23.319      111.388      -23.692       29.324       29.626       12.708      859.925      877.673      161.495        0.771        0.095      113.803       14.005        0.015      344.804       21.882      863.077
08/12/2013  22:40:00      -19.379      120.718      -16.705       39.185       30.906       15.910     1535.428      955.185      253.142        0.899        0.137      122.264       10.194        0.007      344.809       21.891      863.105
08/12/2013  22:41:00      -30.555       40.107      -18.483       35.446       29.885       14.125     1256.430      893.110      199.506        0.262        0.117       50.420       16.345        0.105      344.670       21.654      863.103
08/12/2013  22:42:00      -26.312       29.253      -22.597       69.023       24.280       12.526     4764.182      589.506      156.901        0.378        0.276       39.345        8.003        0.041      344.612       21.555      863.110
08/12/2013  22:43:00      -76.623       72.021       -8.308       65.360       67.657       23.422     4271.960     4577.442      548.590        1.026        0.470      105.158       27.874        0.070      344.886       22.024      863.144
08/12/2013  22:44:00      -34.949      116.418       -0.341       41.497       47.883       34.121     1722.007     2292.820     1164.237        0.998        0.259      121.550       28.864        0.056      344.809       21.892      863.164
08/12/2013  22:45:00      -75.280      122.981      -22.398       54.023       42.015       25.776     2918.446     1765.280      664.407        1.332        0.267      144.192       19.640        0.019      344.876       22.005      863.189
08/12/2013  22:46:00      -25.784       62.548       -4.284       44.909       24.528       21.688     2016.808      601.609      470.367        0.384        0.154       67.654       14.700        0.047      344.805       21.884      863.198
08/12/2013  22:47:00      -35.891       80.669       -8.740       26.459       31.081       18.943      700.082      966.039      358.823        0.495        0.101       88.293       10.949        0.015      344.862       21.982      863.226
08/12/2013  22:48:00       43.529       55.697        1.294       54.508       36.602       25.464     2971.100     1339.678      648.413        0.498        0.248       70.689       27.772        0.154      344.873       22.001      863.231
08/12/2013  22:49:00      129.222       67.563        9.620       39.814       28.342       25.718     1585.158      803.245      661.401        1.220        0.152      145.818        9.731        0.004      344.750       21.790      863.223
08/12/2013  22:50:00       95.448       50.105        5.722       39.586       42.338       40.175     1567.082     1792.491     1614.008        0.831        0.249      107.801       27.772        0.066      344.639       21.600      863.230
08/12/2013  22:51:00       71.737       48.331       -6.177       36.956       25.085       26.880     1365.770      629.274      722.541        0.512        0.136       86.499       11.204        0.017      344.609       21.549      863.250
08/12/2013  22:52:00       46.125       40.988       31.973       25.706       21.746       21.442      660.793      472.884      459.780        0.321        0.080       61.705        7.979        0.017      344.667       21.649      863.245
08/12/2013  22:53:00       52.164       27.901        6.645       28.995       22.102       21.260      840.703      488.488      451.988        0.266        0.089       59.157       12.941        0.048      344.620       21.569      863.254
08/12/2013  22:54:00       -2.602       40.793      -10.407       24.714       26.098       21.974      610.780      681.129      482.865        0.178        0.089       40.876       16.163        0.156      344.733       21.761      863.257
08/12/2013  22:55:00      -10.625       19.317        4.628       26.990       56.216       22.239      728.478     3160.260      494.572        0.244        0.219       22.046       25.586        1.347      344.731       21.757      863.241
08/12/2013  22:56:00       15.567       30.576        2.228       14.488       28.163       18.807      209.911      793.139      353.687        0.127        0.068       34.311       17.669        0.265      344.698       21.700      863.233
08/12/2013  22:57:00      -38.209      122.593      -16.945       45.666       36.219       25.571     2085.385     1311.843      653.882        1.041        0.203      128.409       21.432        0.028      344.709       21.718      863.247
08/12/2013  22:58:00      -43.652       90.131       -8.916       43.670       47.656       25.696     1907.077     2271.073      660.259        0.747        0.242      100.145       18.856        0.035      344.643       21.608      863.246
08/12/2013  22:59:00      -19.811      112.756      -18.466       42.554       52.462       28.098     1810.819     2752.221      789.490        0.940        0.268      114.483       26.531        0.054      344.592       21.521      863.251
08/12/2013  23:00:00       23.861      120.100      -17.974       46.867       47.234       39.360     2196.547     2231.082     1549.196        1.065        0.299      122.447       23.686        0.037      344.499       21.362      863.261
08/12/2013  23:01:00      -43.097      226.642      -25.955       52.978       83.960       38.849     2806.714     7049.234     1509.229        3.263        0.568      230.703       38.644        0.028      344.560       21.462      863.277
08/12/2013  23:02:00      -39.534      169.865       -1.352       62.833       94.319       42.193     3948.037     8896.107     1780.260        2.252        0.731      174.405       43.050        0.061      344.446       21.269      863.276
08/12/2013  23:03:00       -9.867      118.938       -1.664       57.569       55.523       37.803     3314.238     3082.805     1429.030        1.103        0.391      119.346       32.120        0.072      344.482       21.332      863.285
08/12/2013  23:04:00      -92.082      128.506      -24.151       89.196       79.284       42.875     7955.885     6286.006     1838.291        2.083        0.804      158.091       46.833        0.088      344.535       21.420      863.309
08/12/2013  23:05:00      -39.410      179.668      -10.101       88.368      120.755       46.273     7808.977    14581.730     2141.165        2.923        1.227      183.939       63.264        0.118      344.436       21.251      863.315
08/12/2013  23:06:00      -66.508      149.235      -21.582       65.841       74.737       35.012     4335.050     5585.627     1225.826        1.915        0.557      163.384       42.970        0.069      344.461       21.295      863.300
08/12/2013  23:07:00      -28.091      236.249      -18.176       97.098      139.207       55.938     9427.948    19378.592     3129.011        4.443        1.597      237.913       68.255        0.082      344.433       21.246      863.285
08/12/2013  23:08:00      -83.840      297.692      -26.217       73.756       98.172       44.831     5439.920     9637.777     2009.785        5.671        0.854      309.272       39.196        0.016      344.440       21.256      863.304
08/12/2013  23:09:00      -44.857      220.845      -21.345       57.033      128.859       38.320     3252.795    16604.530     1468.449        3.628        1.066      225.354       47.909        0.045      344.421       21.226      863.291
08/12/2013  23:10:00     -118.424      236.357      -34.826       87.387      106.506       45.422     7636.559    11343.436     2063.150        4.607        1.052      264.365       47.727        0.033      344.434       21.246      863.329
08/12/2013  23:11:00      -39.655       96.998        3.044       67.915       85.122       45.595     4612.412     7245.814     2078.887        1.246        0.697      104.791       52.309        0.249      344.327       21.066      863.324
08/12/2013  23:12:00      -73.668      360.095      -41.255       73.487      102.741       44.230     5400.291    10555.780     1956.324        7.735        0.896      367.554       41.622        0.013      344.432       21.245      863.288
08/12/2013  23:13:00     -173.099      330.281      -46.006      109.632       86.844       53.838    12019.151     7541.795     2898.557        8.181        1.123      372.893       56.436        0.023      344.423       21.227      863.287
08/12/2013  23:14:00     -150.802      193.945      -39.720       85.537       89.043       40.591     7316.609     7928.633     1647.660        3.941        0.845      245.675       41.919        0.029      344.437       21.250      863.305
08/12/2013  23:15:00      -87.293      115.011      -14.746       59.723      109.441       42.247     3566.817    11977.252     1784.787        1.919        0.866      144.387       40.072        0.077      344.429       21.239      863.308
08/12/2013  23:16:00     -147.266      103.697      -19.013       98.305       54.382       49.120     9663.877     2957.362     2412.809        2.392        0.752      180.112       29.692        0.027      344.421       21.227      863.309
08/12/2013  23:17:00     -153.064       47.954      -22.261       45.356       71.639       38.220     2057.164     5132.183     1460.745        1.744        0.433      160.400       31.439        0.038      344.478       21.324      863.330
08/12/2013  23:18:00     -143.062       63.966      -27.245       45.872       55.234       32.531     2104.196     3050.782     1058.291        1.576        0.311      156.711       27.712        0.031      344.483       21.332      863.331
08/12/2013  23:19:00     -168.488      148.622      -28.365       80.319       98.355       44.533     6451.147     9673.675     1983.223        3.469        0.905      224.670       42.504        0.036      344.477       21.322      863.338
08/12/2013  23:20:00      -99.046       30.160       -8.774       61.734       63.086       38.228     3811.039     3979.803     1461.405        1.002        0.463      103.536       32.324        0.097      344.430       21.244      863.345
08/12/2013  23:21:00      -88.195       -1.965       -7.877       59.077       48.694       24.056     3490.051     2371.093      578.713        0.714        0.322       88.216       24.398        0.076      344.496       21.355      863.343
08/12/2013  23:22:00      -80.717       57.016       -8.962       45.947       59.521       36.803     2111.158     3542.704     1354.467        0.843        0.350       98.823       24.421        0.061      344.445       21.269      863.353
08/12/2013  23:23:00      -99.788      -19.944       -0.974       74.447       59.703       38.944     5542.412     3564.468     1516.637        1.049        0.531      101.762       36.056        0.126      344.577       21.495      863.368
08/12/2013  23:24:00      -91.235      -24.068        4.186       78.364       55.529       34.129     6140.920     3083.524     1164.797        0.965        0.519       94.356       40.549        0.185      344.482       21.331      863.364
08/12/2013  23:25:00     -127.392       50.820      -12.520       78.973       76.397       38.759     6236.795     5836.477     1502.235        1.627        0.679      137.154       31.413        0.052      344.568       21.477      863.378
08/12/2013  23:26:00     -158.974        6.777      -13.250       57.297       72.023       36.325     3282.923     5187.274     1319.476        1.764        0.489      159.119       35.925        0.051      344.629       21.580      863.379
08/12/2013  23:27:00      -95.944       -5.562        0.074       42.649       55.616       29.880     1818.897     3093.107      892.821        0.752        0.290       96.105       17.418        0.033      344.508       21.376      863.393
08/12/2013  23:28:00      -75.843      -18.837       -5.807       55.717       63.381       24.349     3104.418     4017.143      592.886        0.693        0.386       78.147       20.397        0.068      344.478       21.325      863.397
08/12/2013  23:29:00     -133.901      -28.920      -11.881       91.639       58.253       32.328     8397.788     3393.414     1045.109        1.587        0.642      136.989       35.225        0.066      344.458       21.289      863.386
08/12/2013  23:30:00     -215.859      -49.138      -17.815       66.438       59.207       34.480     4414.073     3505.414     1188.875        2.922        0.455      221.381       34.679        0.025      344.619       21.562      863.371
08/12/2013  23:31:00     -148.913      -62.600       -9.098       67.237       44.981       37.306     4520.763     2023.332     1391.756        1.705        0.397      161.536       34.952        0.047      344.755       21.797      863.362
08/12/2013  23:32:00     -123.194      -27.630        2.995       56.659       53.315       26.172     3210.294     2842.517      684.968        1.134        0.337      126.254       27.864        0.049      344.747       21.785      863.348
08/12/2013  23:33:00      -85.379      -22.304       -3.523       39.726       23.796       17.317     1578.148      566.271      299.892        0.512        0.122       88.245       17.407        0.039      344.630       21.585      863.355
08/12/2013  23:34:00      -36.222      -35.402        6.243       39.250       29.542       19.639     1540.560      872.730      385.678        0.270        0.140       50.649       19.171        0.143      344.633       21.591      863.369
08/12/2013  23:35:00      -86.731      -49.250       -3.678       35.209       35.719       25.737     1239.654     1275.839      662.386        0.657        0.159       99.739       19.094        0.037      344.632       21.588      863.374
08/12/2013  23:36:00      -88.425      -43.183       -2.189       53.865       27.964       16.526     2901.398      781.959      273.123        0.682        0.198       98.406       12.670        0.017      344.649       21.619      863.368
08/12/2013  23:37:00     -123.145      -55.915        4.498       46.454       39.400       25.144     2158.016     1552.379      632.244        1.133        0.217      135.245       25.645        0.036      344.571       21.483      863.378
08/12/2013  23:38:00      -44.730      -33.167       14.393       43.264       35.240       23.577     1871.798     1241.872      555.863        0.349        0.183       55.685       30.046        0.291      344.531       21.415      863.407
08/12/2013  23:39:00      -49.700      -31.763        8.990       32.434       28.213       16.641     1051.969      795.959      276.938        0.284        0.106       58.983       18.442        0.098      344.572       21.487      863.416
08/12/2013  23:40:00      -85.461      -18.189        4.853       57.010       31.384       25.572     3250.130      984.948      653.938        0.627        0.244       87.375       32.184        0.136      344.545       21.441      863.426
08/12/2013  23:41:00     -126.547      -44.445       -7.908       53.173       33.117       21.002     2827.331     1096.716      441.071        1.121        0.218      134.125       21.657        0.026      344.443       21.266      863.452
08/12/2013  23:42:00     -138.018      -60.032        2.750       53.925       42.396       26.145     2907.954     1797.407      683.537        1.402        0.269      150.508       27.485        0.033      344.406       21.201      863.478
08/12/2013  23:43:00     -162.246      -34.196       -2.989       50.051       43.004       25.742     2505.108     1849.364      662.653        1.626        0.251      165.810       23.365        0.020      344.400       21.192      863.493
08/12/2013  23:44:00     -156.842       -2.267       -4.184       56.689       43.446       29.757     3213.672     1887.593      885.487        1.530        0.299      156.858       32.322        0.042      344.446       21.270      863.500
08/12/2013  23:45:00     -181.968      -70.630        3.552       77.956       54.931       31.442     6077.153     3017.419      988.600        2.410        0.504      195.195       32.088        0.027      344.541       21.431      863.509
08/12/2013  23:46:00     -178.531      -40.067       -5.313      105.492       72.978       41.594    11128.596     5325.823     1730.065        2.584        0.909      182.972       52.904        0.084      344.692       21.689      863.515
08/12/2013  23:47:00     -143.317      -25.152      -11.005       50.569       59.041       20.976     2557.186     3485.887      440.005        1.389        0.324      145.507       19.798        0.019      344.597       21.528      863.521
08/12/2013  23:48:00     -124.208      -15.069        1.062       54.919       26.922       23.936     3016.138      724.819      572.945        0.998        0.216      125.119       23.605        0.036      344.440       21.259      863.535
08/12/2013  23:49:00     -216.713      -34.009      -12.980       87.397       56.892       42.551     7638.249     3236.740     1810.620        3.049        0.634      219.365       47.769        0.047      344.509       21.375      863.548
08/12/2013  23:50:00     -110.606      -42.312        8.830       83.188       77.249       43.009     6920.228     5967.466     1849.798        1.442        0.737      118.423       47.968        0.164      344.433       21.247      863.556
08/12/2013  23:51:00     -156.769      -30.386       -2.005       68.986       47.233       35.222     4759.072     2230.966     1240.620        1.687        0.412      159.687       38.727        0.059      344.404       21.197      863.563
08/12/2013  23:52:00     -169.114      -40.125       -4.040       84.998       71.183       38.900     7224.681     5067.036     1513.175        2.201        0.690      173.808       40.736        0.055      344.554       21.453      863.573
08/12/2013  23:53:00     -189.182      -34.784       -5.053      106.884       57.606       40.054    11424.214     3318.456     1604.362        2.668        0.817      192.353       47.853        0.062      344.589       21.511      863.566
08/12/2013  23:54:00     -230.904      -39.509       -7.359       62.624       58.936       34.151     3921.765     3473.394     1166.271        3.175        0.428      234.259       30.077        0.016      344.564       21.467      863.575
08/12/2013  23:55:00     -163.198      -10.386      -12.339       46.527       38.663       24.296     2164.728     1494.810      590.301        1.557        0.212      163.529       16.905        0.011      344.580       21.498      863.598
08/12/2013  23:56:00     -139.400      -43.184       -1.210      103.860       64.374       53.519    10786.995     4143.972     2864.270        1.954        0.890      145.935       64.019        0.192      344.544       21.438      863.605
08/12/2013  23:57:00      -86.170        5.990       -5.442       77.615       77.158       50.441     6024.145     5953.396     2544.340        1.100        0.726       86.378       48.392        0.314      344.519       21.396      863.604
08/12/2013  23:58:00      -94.593       21.744        5.479       69.735       73.466       33.647     4862.978     5397.319     1132.107        1.042        0.570       97.059       31.488        0.105      344.482       21.331      863.592
08/12/2013  23:59:00     -200.958       -2.716       -9.684       67.060       60.442       39.570     4497.107     3653.232     1565.813        2.510        0.486      200.976       33.775        0.028      344.473       21.313      863.591
